     2              OBSERVATION DATA    GPS                 RINEX VERSION / TYPE
ASRINEXO V2.4.4 UX USGS 24-FEB-96 16:18                     PGM / RUN BY / DATE
                                                            COMMENT
Contact: kwendt@isdmnl.wr.usgs.gov (Ph: 415-329-4866)       COMMENT
Contact: kwendt@isdmnl.wr.usgs.gov (Ph: 415-329-4866)       COMMENT
Contact: kwendt@isdmnl.wr.usgs.gov (Ph: 415-329-4866)       COMMENT
Contact: kwendt@isdmnl.wr.usgs.gov (Ph: 415-329-4866)       COMMENT
Contact: kwendt@isdmnl.wr.usgs.gov (Ph: 415-329-4866)       COMMENT
Contact: kwendt@isdmnl.wr.usgs.gov (Ph: 415-329-4866)       COMMENT
Original Marker Name: bm8z BM_80_2253_B_1907_USGS           COMMENT
Campaign Name: USGS Yucca Profile                           COMMENT
4-Character Station Name: BM8Z                              COMMENT
6-Character Antenna Code: ASHP12                            COMMENT
Vertical Measurement Point: EGP                             COMMENT
Vertical Offset to Rinex Ref. Point: 0.0593                 COMMENT
Radial Measurement Point: EGP                               COMMENT
Radial Offset to Rinex Ref. Point: 0.1425                   COMMENT
Antenna Height from Field Measurement: 1.2220 m             COMMENT
Additional Antenna Identification Info.:                    COMMENT
Ashtech L1/L2 Revision B (700228DE)                         COMMENT
Original XYZ: -2403144.3800 -4570572.0400 3733133.5300      COMMENT
New XYZ position is based on association with SCEC monument COMMENT
E1G0F2J6+0011. Position of that monument is believed to be  COMMENT
valid to within 1 m horizontally; vertical accuracy         COMMENT
should be no worse than 3-times this value.                 COMMENT
                                                            COMMENT
Revised Rinex header created by UCSD GPS archive for        COMMENT
GSAC on 08-Aug-2000 (2000:221) 00:24:33 GMT                 COMMENT
For assistance contact dagnew@ucsd.edu                      COMMENT
or anderson@python.ucsd.edu                                 COMMENT
                                                            COMMENT
80 1907 2253                                                MARKER NAME
JMS US GEOLOGICAL SURVEY                                    OBSERVER / AGENCY
4600 ASHTECH Z-XII3 1F00                                    REC # / TYPE / VERS
1036 ASHTECH GEODETIC P                                     ANT # / TYPE
 -2322159.4549 -4561907.4276  3793241.7693                  APPROX POSITION XYZ
        1.1544        0.0000        0.0000                  ANTENNA: DELTA H/E/N
     1     1     0                                          WAVELENGTH FACT L1/2
     5    C1    L1    L2    P1    P2                        # / TYPES OF OBSERV
    30                                                      INTERVAL
  1996     2    17    16    46    0.000000                  TIME OF FIRST OBS
  1996     2    17    23    30   30.000000                  TIME OF LAST OBS
                                                            END OF HEADER
 96  2 17 16 46  0.0000000  0  6 29  4 19 18 22 14
  14404930.197       15041.49419      9488.43159                  14404938.3514
  18130813.809       39645.85119
  17902796.960      -33836.55519
  16196975.828       -8749.81519
  14703649.256       45914.47419
  13906914.472       44594.13019     16922.23959                  13906922.6204
 96  2 17 16 46 30.0000000  0  8 29 25  4 19 18 22 14 15
  14408021.311       31286.52559     22146.89849                  14408024.2314
  14408029.8464   17764471.504      160783.31219
  18137932.118       77068.569 9     55829.08859                  18137941.2224
  17894802.655      -75841.125 9    -54073.53659                  17894813.5164
  16191248.395      -38844.13859    -25183.16559  16191244.7594   16191250.4394
  14714352.796      102212.957 9
  13921595.781      121745.67559     77040.30349                  13921597.8934
  13921604.2884   18833443.612      128811.67819
 96  2 17 16 47  0.0000000  0  6 29  4 19 18 22 14
  21006137.198       45368.98449     33120.24149  21006138.1274   21006143.4294
  24740135.029      112649.41059     83554.40449  24740138.6574   24740146.6544
  24481831.185     -119966.32759    -88456.79349  24481842.5784   24481851.6184
  22780529.633      -71166.70249    -50369.56549  22780528.1264   22780534.1534
  21320166.534      156742.416 9
  20531366.273      197083.18549    135744.83849  20531368.2544   20531374.7864
 96  2 17 16 47 30.0000000  0  7 29 25  4 19 18 22 14
  21008405.559       57287.65759     42407.51659  21008406.2624   21008411.7654
  24411428.320      431539.73859    305743.35959  24411430.5204   24411437.9064
  24746563.874      146394.30659    109849.09559  24746561.8074   24746566.6534
  24473017.754     -166315.30359   -124572.85759  24473022.0704   24473030.0604
  22773936.871     -105795.34259    -77352.90859  22773938.1784   22773944.2754
  21330219.279      209558.533 9     16701.43259                  21330223.5774
  20545371.203      270678.52359    193091.83659  20545372.9974   20545379.5514
 96  2 17 16 48  0.0000000  0  7 29 25  4 19 18 22 14
  21010274.744       67123.78649     50072.03349  21010277.7514   21010283.6894
  24436544.066      563518.47659    408583.90359  24436547.7544   24436552.6864
  24752638.962      178339.28649    134741.24549  24752641.9044   24752645.9334
  24463792.943     -214797.54349   -162351.19149  24463796.0034   24463805.1394
  22766924.822     -142633.80749   -106058.19049  22766927.9224   22766934.8034
  21339944.951      260680.35459     56536.62249  21339945.8374   21339951.6494
  20559045.842      342534.82549    249083.73749  20559047.0194   20559053.4654
 96  2 17 16 48 30.0000000  0  7 29 25  4 19 18 22 14
  21011777.657       75015.39949     56221.33949  21011780.0404   21011785.3654
  24461244.389      693327.26049    509733.57549  24461246.4744   24461251.4004
  24758393.989      208585.58349    158309.75949  24758397.8254   24758404.0934
  24454179.191     -265314.26849   -201714.83149  24454182.2704   24454191.4644
  22759520.174     -181564.54549   -136393.81349  22759519.5554   22759525.8634
  21349374.440      310235.75549     95151.23549  21349375.8364   21349381.5554
  20572409.471      412764.82649    303808.39449  20572411.4684   20572417.7754
 96  2 17 16 49  0.0000000  0  7 29 25  4 19 18 22 14
  21012932.001       81080.42049     60947.32749  21012934.0474   21012939.4394
  24485557.725      821084.69349    609284.80459  24485559.8694   24485566.4514
  24763850.552      237259.04049    180652.70149  24763853.5204   24763860.0544
  24444199.253     -317769.28049   -242588.84349  24444201.9614   24444211.4694
  22751732.118     -222480.01249   -168275.97949  22751733.8834   22751740.3164
  21358533.156      358358.02149    132649.12349  21358533.2354   21358539.4954
  20585484.666      481476.41049    357349.86749  20585486.6414   20585492.8164
 96  2 17 16 49 30.0000000  0  7 29 25  4 19 18 22 14
  21013762.297       85439.52449     64344.03249  21013763.5814   21013768.9574
  24509488.605      946896.18958                                  24509500.2644
  24769034.173      264486.60549    201868.94849  24769035.4444   24769039.8554
  24433874.436     -372033.21249   -284872.38349  24433874.3794   24433884.7664
  22743590.777     -265268.21849   -201617.41049  22743591.6274   22743597.7034
  21367439.733      405161.07149    169119.03049  21367439.4054   21367445.9114
  20598291.160      548774.68149    409790.05649  20598293.3494   20598299.7054
 96  2 17 16 50  0.0000000  0  7 29 25  4 19 18 22 14
  21014287.104       88205.36549     66499.22749  21014289.9064   21014295.3804
  24533097.776     1070867.05319
  24773959.223      290379.04449    222044.83349  24773961.7974   24773968.7614
  24423225.417     -427995.07149   -328478.99349  24423226.6124   24423235.2904
  22735114.403     -309806.93749   -236322.89449  22735116.5734   22735122.6224
  21376113.656      450750.34049    204643.14949  21376114.7734   21376121.0984
  20610850.893      614776.10749    461219.71549  20610852.7984   20610859.1564
 96  2 17 16 50 30.0000000  0  6 29  4 19 18 22 14
  21014530.612       89484.28749     67495.78449  21014533.4224   21014538.7314
  24778656.228      315066.57649    241281.86649  24778658.6474   24778665.5434
  24412273.407     -485526.67649   -373308.77149  24412278.4274   24412286.8684
  22726329.210     -355977.02449   -272299.57349  22726330.4924   22726336.7094
  21384581.634      495247.73049    239316.44649  21384582.4064   21384589.0694
  20623189.350      679617.74749    511745.64049  20623191.7314   20623198.2074
 96  2 17 16 51  0.0000000  0  6 29  4 19 18 22 14
  21014510.158       89372.96049     67409.03249  21014512.0384   21014517.3954
  24783149.781      338684.70749    259685.56549  24783153.3664   24783160.9924
  24401049.159     -544508.21449   -419268.36149  24401053.2884   24401063.8484
  22717257.161     -403658.80549   -309454.18449  22717256.7994   22717263.0874
  21392859.365      538755.73349    273218.78649  21392861.8634   21392868.4704
  20635331.867      743422.69449    561463.75749  20635333.5554   20635339.9254
 96  2 17 16 51 30.0000000  0  6 29  4 19 18 22 14
  21014238.831       87949.90949     66300.15649  21014241.3064   21014246.7634
  24787456.499      361297.40849    277305.80249  24787457.9714   24787463.3374
  24389564.353     -604859.98849   -466295.67649  24389569.6124   24389579.0244
  22707911.912     -452760.07649   -347714.89349  22707913.3594   22707919.2464
  21400964.275      581341.33649    306402.38349  21400965.5384   21400971.8994
  20647291.632      806271.35349    610436.71649  20647293.2504   20647299.5984
 96  2 17 16 52  0.0000000  0  6 29  4 19 18 22 14
  21013726.926       85262.61449     64206.15949  21013729.9644   21013735.2614
  24791574.336      382946.53949    294175.27049  24791576.8874   24791582.2674
  24377830.566     -666537.44749   -514355.99249  24377834.2864   24377841.7644
  22698308.625     -503229.09249   -387041.39549  22698309.5974   22698315.5614
  21408904.173      623064.75549    338914.14549  21408905.3654   21408911.5904
  20659078.987      868217.24649    658706.22449  20659081.1414   20659087.4314
 96  2 17 16 52 30.0000000  0  6 29  4 19 18 22 14
  21012981.231       81338.86649     61148.68449  21012983.4984   21012988.6024
  24795516.102      403664.36849    310318.99449  24795518.4594   24795525.6864
  24365846.072     -729507.54049   -563423.51749  24365849.8724   24365859.6874
  22688448.811     -555043.72049   -427416.41549  22688449.3804   22688455.7384
  21416689.035      663970.61749    370788.84549  21416689.2574   21416695.8654
  20670700.933      929290.28149    706295.57149  20670703.3464   20670709.8844
 96  2 17 16 53  0.0000000  0  6 29  4 19 18 22 14
  21012006.045       76210.20749     57152.32349  21012007.5054   21012012.7534
  24799280.243      423448.22849    325734.95349  24799283.4344   24799289.4024
  24353620.195     -793757.98049   -613488.78949  24353623.4744   24353631.3014
  22678334.611     -608187.49449   -468827.14049  22678336.2194   22678342.6224
  21424320.241      704080.84249    402043.56849  21424321.8374   21424328.8194
  20682155.906      989486.47849    753201.67649  20682158.1334   20682164.2644
 96  2 17 16 53 30.0000000  0  6 29  4 19 18 22 14
  21010805.824       69903.50549     52238.00849  21010807.4894   21010812.7144
  24802872.127      442307.75149    340430.63449  24802873.5874   24802878.2614
  24341158.783     -859255.80649   -664526.02749  24341158.7294   24341167.9784
  22667972.281     -662642.04349   -511259.24649  22667974.3954   22667980.2304
  21431807.636      743419.19449    432696.84049  21431807.7464   21431814.2554
  20693446.748     1048824.58549    799439.13649  20693449.6224   20693456.0494
 96  2 17 16 54  0.0000000  0  6 29  4 19 18 22 14
  21009384.118       62430.38749     46414.79649  21009385.3924   21009390.4164
  24806289.664      460277.07549    354432.68149  24806292.9294   24806299.1174
  24328460.140     -925976.07449   -716515.82149  24328463.2254   24328470.4984
  22657365.129     -718384.99749   -554695.30949  22657366.6044   22657372.8234
  21439148.874      782006.41449    462764.78949  21439150.7924   21439157.3234
  20704581.121     1107330.11549    845027.83849  20704583.0484   20704589.5014
 96  2 17 16 54 30.0000000  0  6 29  4 19 18 22 14
  21007743.690       53814.91649     39701.44149  21007746.0024   21007751.1564
  24809548.730      477402.26349    367776.95349  24809551.1844   24809559.3464
  24315539.667     -993887.22649   -769433.56249  24315541.2604   24315548.6794
  22646522.379     -775372.23049   -599100.92649  22646522.7894   22646528.5474
  21446353.893      819869.71849    492268.66949  21446355.8484   21446362.6394
  20715561.226     1165031.48049    889989.91749  20715563.3404   20715569.8904
 96  2 17 16 55  0.0000000  0  6 29  4 19 18 22 14
  21005898.739       44118.64849     32145.90449  21005900.8934   21005906.0054
  24812661.933      493762.32949    380525.02449  24812664.3174   24812670.9294
  24302400.810    -1062919.15149   -823224.64849  24302404.0034   24302412.1904
  22635454.630     -833527.52449   -644416.73549  22635456.1004   22635461.8714
  21453431.205      857063.63949    521250.93849  21453434.1824   21453440.5164
  20726400.360     1221991.77749    934374.53749  20726402.4424   20726409.2354
 96  2 17 16 55 30.0000000  0  6 29  4 19 18 22 14
  21003843.724       33320.75849     23731.96349  21003845.9054   21003851.1324
  24815628.811      509364.17349    392682.31749  24815632.6284   24815640.1304
  24289054.025    -1133068.30249   -877886.30649  24289055.5284   24289062.6034
  22624167.634     -892833.80949   -690629.39749  22624170.1114   22624176.5394
  21460378.837      893572.11349    549699.09349  21460381.1604   21460388.0014
  20737102.072     1278228.73349    978195.51549  20737104.2094   20737110.6324
 96  2 17 16 56  0.0000000  0  6 29  4 19 18 22 14
  21001596.965       21512.38649     14530.63349  21001599.0754   21001604.0334
  24818472.173      524291.87149    404314.21349  24818475.0464   24818480.3264
  24275504.824    -1204259.76849   -933360.15549  24275508.1634   24275514.9874
  22612680.750     -953201.62249   -737669.22849  22612682.2384   22612688.7974
  21467214.533      929484.63449    577682.86949  21467215.3634   21467221.9214
  20747682.439     1333831.42449   1021522.26549  20747684.9624   20747691.7154
 96  2 17 16 56 30.0000000  0  6 29  4 19 18 22 14
  20999181.941        8820.50149      4640.84749  20999183.8624   20999188.7744
  24821198.887      538629.33849    415486.21949  24821201.9724   24821208.2354
  24261783.586    -1276379.01449   -989556.93949  24261784.2024   24261790.8134
  22601009.380    -1014534.10749   -785460.76549  22601011.3294   22601017.4404
  21473953.863      964905.76349    605283.74249  21473955.6314   21473962.0864
  20758163.961     1388909.42349   1064440.16049  20758166.0674   20758172.6584
 96  2 17 16 57  0.0000000  0  6 29  4 19 18 22 14
  20996613.329       -4677.09549     -5876.76549  20996615.4314   20996620.5094
  24823823.959      552415.53349    426228.69949  24823826.0774   24823831.7944
  24247892.556    -1349358.99949  -1046424.45249  24247896.4564   24247904.2264
  22589162.886    -1076788.71949   -833970.84049  22589164.7784   22589171.2694
  21480611.414      999885.60449    632540.75049  21480612.1564   21480618.7124
  20768559.211     1443540.33049   1107009.67449  20768561.9374   20768568.4284
 96  2 17 16 57 30.0000000  0  6 29  4 19 18 22 14
  20993903.294      -18911.16549    -16968.25349  20993906.6784   20993912.1614
  24826347.212      565689.95849    436572.34149  24826351.4024   24826357.2094
  24233852.002    -1423152.92949  -1103926.21149  24233853.7634   24233861.6264
  22577147.652    -1139928.39149   -883170.57749  22577149.3094   22577155.7674
  21487195.151     1034487.69849    659503.40249  21487196.5114   21487203.3344
  20778879.945     1497774.57549   1149270.09749  20778882.4564   20778889.1744
 96  2 17 16 58  0.0000000  0  6 29  4 19 18 22 14
  20991068.337      -33812.75549    -28579.89049  20991071.3814   20991076.3034
  24828788.739      578510.72849    446562.53649  24828792.6644   24828797.6384
  24219660.332    -1497716.03449  -1162027.34349  24219665.4024   24219673.0694
  22564967.736    -1203932.55249   -933043.93449  22564969.8494   22564976.4064
  21493721.620     1068782.76949    686226.82449  21493722.7924   21493729.2704
  20789132.120     1551650.33149   1191251.18149  20789134.7754   20789141.1684
 96  2 17 16 58 30.0000000  0  6 29  4 19 18 22 14
  20988112.223      -49344.81349    -40682.79649  20988115.5674   20988120.8054
  24831151.520      590923.77249    456234.98049  24831153.2874   24831161.3554
  24205337.460    -1573005.80149  -1220694.69249  24205338.4054   24205346.5904
  22552630.804    -1268766.77249   -983564.09549  22552632.1784   22552639.1804
  21500195.721     1102811.21949    712742.48549  21500198.5804   21500205.0314
  20799322.903     1605198.55249   1232977.03849  20799324.5274   20799331.4554
 96  2 17 16 59  0.0000000  0  6 29  4 19 18 22 14
  20985038.582      -65498.91249    -53270.41049  20985041.4154   20985046.7074
  24833445.704      602981.89449    465630.88749  24833448.5544   24833456.0904
  24190873.019    -1649006.49249  -1279916.01649  24190874.8714   24190883.7154
  22540144.726    -1334390.09449  -1034699.14449  22540144.4504   22540151.1734
  21506628.519     1136617.36749    739084.92349  21506631.3404   21506637.7474
  20809451.735     1658431.89749   1274457.54249  20809454.1154   20809461.0474
 96  2 17 16 59 30.0000000  0  6 29  4 19 18 22 14
  20981845.352      -82283.35849    -66349.20949  20981847.5874   20981852.6584
  24835673.272      614692.07149    474755.67849  24835676.9824   24835685.5144
  24176274.255    -1725726.10149  -1339697.53549  24176275.4694   24176284.4674
  22527507.044    -1400784.41049  -1086434.96149  22527509.9484   22527516.2664
  21513023.422     1170212.23849    765262.74349  21513024.0094   21513030.6024
  20819518.716     1711328.70149   1315675.80049  20819520.5614   20819527.0794
 96  2 17 17  0  0.0000000  0  6 29  4 19 18 22 14
  20978530.670      -99699.96249    -79920.59449  20978533.2144   20978538.4654
  24837837.632      626058.39449    483612.51349  24837840.4434   24837848.0344
  24161537.517    -1803152.05649  -1400029.45349  24161542.3144   24161551.0024
  22514732.878    -1467915.98049  -1138745.26949  22514735.8894   22514742.0464
  21519375.374     1203589.28049    791270.81249  21519376.1634   21519382.0114
  20829520.804     1763893.92249   1356635.68549  20829523.5134   20829529.7934
 96  2 17 17  0 30.0000000  0  6 29  4 19 18 22 14
  20975095.930     -117748.53749    -93984.42449  20975098.6794   20975104.1944
  24839932.886      637073.38249    492195.59449  24839935.1814   24839942.0724
  24146673.432    -1881269.68249  -1460900.31549  24146677.6104   24146686.4384
  22501825.015    -1535751.77249  -1191604.32349  22501826.9874   22501833.0444
  21525680.405     1236733.48349    817097.44649  21525683.1864   21525689.3304
  20839460.615     1816129.55149   1397338.74549  20839463.6204   20839469.7684
 96  2 17 17  1  0.0000000  0  6 29  4 19 18 22 14
  20971541.641     -136424.90149   -108537.44449  20971544.5504   20971550.0704
  24841961.998      647729.17449    500498.75949  24841961.8794   24841969.9854
  24131677.622    -1960070.24449  -1522303.33749  24131681.6174   24131690.5714
  22488784.317    -1604283.22849  -1245005.44449  22488785.8164   22488792.1484
  21531939.969     1269627.92149    842729.47449  21531942.5174   21531948.9344
  20849341.005     1868045.33649   1437792.57249  20849343.0724   20849349.2444
 96  2 17 17  1 30.0000000  0  6 29  4 19 18 22 14
  20967864.191     -155753.78849   -123598.92149  20967866.5084   20967871.7854
  24843907.508      657976.53549    508483.70949  24843913.4084   24843921.0134
  24116547.814    -2039583.15149  -1584261.43849  24116551.2944   24116560.5604
  22475602.645    -1673553.11849  -1298981.97849  22475604.3974   22475610.9274
  21538140.970     1302211.65349    868119.38149  21538143.3794   21538149.5324
  20859154.936     1919620.21149   1477980.75549  20859157.5974   20859163.4734
 96  2 17 17  2  0.0000000  0  6 29  4 19 18 22 14
  20964067.402     -175704.28449   -139144.77449  20964070.1924   20964075.2104
  24845790.203      667855.79149    516181.79049  24845793.3094   24845801.0684
  24101287.769    -2119774.12949  -1646747.87149  24101290.9794   24101298.8814
  22462283.426    -1743545.94549  -1353521.82749  22462284.6694   22462291.8434
  21544287.861     1334504.68449    893282.79049  21544288.2954   21544294.4414
  20868911.494     1970890.35249   1517931.48149  20868913.7494   20868920.1384
 96  2 17 17  2 30.0000000  0  6 29  4 19 18 22 14
  20960161.196     -196233.42449   -155141.51649  20960163.5954   20960168.7844
  24847612.473      677422.35349    523636.19049  24847614.3304   24847622.0644
  24085908.038    -2200593.04049  -1709723.61949  24085910.9364   24085921.1854
  22448831.291    -1814228.46949  -1408599.10749  22448834.6914   22448841.2014
  21550385.918     1366557.49049    918258.99549  21550387.7344   21550393.9124
  20878619.494     2021910.71849   1557687.57949  20878622.6524   20878629.3304
 96  2 17 17  3  0.0000000  0  6 29  4 19 18 22 14
  20956152.311     -217300.67149   -171557.56549  20956154.5514   20956159.9364
  24849381.756      686722.96849    530883.38549  24849384.9104   24849391.1474
  24070415.907    -2282003.78049  -1773160.52949  24070419.5314   24070428.5694
  22435256.089    -1885566.68949  -1464187.32349  22435258.9034   22435265.8604
  21556450.816     1398426.49349    943091.96849  21556452.0774   21556458.9904
  20888290.916     2072729.29649   1597286.43549  20888293.2474   20888299.6134
 96  2 17 17  3 30.0000000  0  6 29  4 19 18 22 14
  20952034.181     -238942.04549   -188420.98149  20952036.4524   20952041.9084
  24851094.476      695720.77749    537894.62349  24851096.4924   24851103.5644
  24054803.028    -2364059.29849  -1837099.82549  24054805.4404   24054813.6044
  22421549.941    -1957596.42149  -1520314.38749  22421552.6834   22421558.6244
  21562474.819     1430081.01749    967757.82949  21562476.1004   21562482.1934
  20897911.883     2123289.75249   1636684.16549  20897914.3024   20897920.8284
 96  2 17 17  4  0.0000000  0  6 29  4 19 18 22 14
  20947813.020     -261123.31049   -205705.09349  20947815.5324   20947820.7624
  24852753.545      704450.44849    544696.94649  24852756.7694   24852764.0294
  24039072.958    -2446719.65049  -1901510.45549  24039075.8614   24039083.2594
  22407718.675    -2030281.44549  -1576952.05749  22407720.6624   22407727.2324
  21568465.996     1461562.90849    992289.16449  21568467.1294   21568472.7964
  20907487.489     2173607.55549   1675892.80949  20907489.7794   20907496.2334
 96  2 17 17  4 30.0000000  0  6 29  4 19 18 22 14
  20943491.645     -283834.32949   -223402.00049  20943493.8004   20943499.0544
  24854361.210      712898.29649    551279.62649  24854364.5314   24854372.6454
  24023227.342    -2529982.85749  -1966390.82549  24023231.2144   24023239.8984
  22393763.875    -2103612.91249  -1634093.45849  22393766.7524   22393772.4084
  21574421.465     1492869.20649   1016683.66949  21574424.4674   21574430.5774
  20917016.816     2223684.31549   1714913.63049  20917019.4094   20917025.4944
 96  2 17 17  5  0.0000000  0  6 29  4 19 18 22 14
  20939068.825     -307073.65549   -241510.57449  20939071.4284   20939076.8544
  24855911.110      721052.57049    557633.55649  24855916.8244   24855923.8544
  24007265.753    -2613860.35949  -2031749.87949  24007269.9254   24007278.3594
  22379684.666    -2177597.64749  -1691743.88749  22379687.5014   22379693.5244
  21580345.150     1523983.27649   1040928.40949  21580345.0354   21580351.0174
  20926493.962     2273490.46749   1753723.59349  20926496.9994   20926503.2964
 96  2 17 17  5 30.0000000  0  6 29  4 19 18 22 14
  20934550.627     -330815.24649   -260010.52449  20934553.7834   20934558.8884
  24857416.504      728943.34849    563782.18449  24857419.6224   24857424.4724
  23991192.711    -2698317.57949  -2097560.64649  23991198.1794   23991206.0074
  22365487.306    -2252206.80649  -1749880.88749  22365490.0954   22365495.9614
  21586231.362     1554916.45249   1065032.17749  21586231.4344   21586237.8554
  20935924.952     2323044.28249   1792336.92149  20935927.0594   20935933.1254
 96  2 17 17  6  0.0000000  0  6 29  4 19 18 22 14
  20929944.375     -355019.23249   -278870.78549  20929947.8124   20929953.0614
  24858878.934      736614.62749    569759.78249  24858879.8444   24858883.7104
  23975023.647    -2783290.65749  -2163773.38549  23975028.1904   23975036.8784
  22351179.517    -2327402.52749  -1808474.94449  22351180.9404   22351187.1774
  21592089.159     1585716.42749   1089032.14749  21592092.6784   21592098.8664
  20945316.646     2372404.02149   1830799.02349  20945319.7884   20945325.9784
 96  2 17 17  6 30.0000000  0  6 29  4 19 18 22 14
  20925257.667     -379650.21349   -298063.76849  20925260.8734   20925265.8804
  24860294.711      744092.97249    575586.97649  24860299.5654   24860308.9634
  23958762.171    -2868750.98949  -2230365.80949  23958765.3344   23958775.3894
  22336765.165    -2403142.47949  -1867493.07549  22336768.3904   22336774.5464
  21597931.354     1616419.79549   1112956.83149  21597934.8624   21597941.6194
  20954680.980     2421618.58649   1869148.00149  20954684.6384   20954691.3724
 96  2 17 17  7  0.0000000  0  6 29  4 19 18 22 14
  20920490.576     -404701.29049   -317584.09249  20920493.6504   20920498.9524
  24861686.078      751390.85649    581273.57849  24861687.9204   24861698.1054
  23942410.175    -2954688.64749  -2297330.18049  23942412.4824   23942421.1754
  22322251.805    -2479411.13349  -1926923.19249  22322254.6104   22322260.3494
  21603762.724     1647048.72349   1136823.52649  21603763.9754   21603769.9994
  20964022.674     2470699.58749   1907392.90249  20964024.8294   20964031.0914
 96  2 17 17  7 30.0000000  0  6 29  4 19 18 22 14
  20915650.120     -430140.06749   -337406.52449  20915652.8434   20915658.0394
  24863045.577      758529.68949    586836.25549  24863048.9554   24863055.7544
  23925971.252    -3041079.28249  -2364647.49849  23925973.3854   23925981.0154
  22307642.248    -2556185.57649  -1986747.43149  22307645.3844   22307650.9584
  21609582.995     1677645.50949   1160665.15749  21609586.2234   21609592.5924
  20973344.177     2519689.93049   1945567.16649  20973347.4294   20973353.7564
 96  2 17 17  8  0.0000000  0  6 29  4 19 18 22 14
  20910743.499     -455929.67349   -357502.32949  20910745.0384   20910750.4544
  24864376.300      765517.91749    592281.60849  24864378.7054   24864385.1674
  23909447.366    -3127906.22049  -2432304.81149  23909450.2884   23909459.0434
  22292941.754    -2633448.97549  -2046952.67549  22292942.2884   22292948.2244
  21615405.435     1708242.21649   1184506.73849  21615408.1634   21615414.8584
  20982653.042     2568605.74049   1983683.34549  20982655.6994   20982662.2614
 96  2 17 17  8 30.0000000  0  6 29  4 19 18 22 14
  20905771.224     -482057.17049   -377861.42349  20905773.1764   20905778.4944
  24865676.671      772365.56549    597617.36749  24865682.1374   24865687.8554
  23892840.966    -3215179.19449  -2500309.70449  23892842.9444   23892849.7184
  22278148.669    -2711182.73749  -2107524.42149  22278149.8954   22278156.3064
  21621227.977     1738841.18449   1208350.07549  21621231.3394   21621237.4544
  20991947.673     2617448.10649   2021742.30049  20991950.4424   20991956.6294
 96  2 17 17  9  0.0000000  0  6 29  4 19 18 22 14
  20900721.788     -508586.23049   -398533.42849  20900724.9924   20900730.2494
  24866949.644      779032.54249    602812.39549  24866950.6564   24866956.9784
  23876136.201    -3302944.12949  -2568697.91949  23876142.3374   23876150.1854
  22263254.942    -2789438.98549  -2168503.30549  22263258.5504   22263264.4194
  21627042.232     1769387.56249   1232152.43749  21627044.2074   21627050.4694
  21001215.977     2666153.28149   2059694.35049  21001218.7134   21001224.8044
 96  2 17 17  9 30.0000000  0  6 29  4 19 18 22 14
  20895615.805     -535419.74849   -419442.67049  20895618.6594   20895624.0304
  24868196.701      785604.20849    607933.10549  24868199.3004   24868208.2304
  23859360.284    -3391102.32849  -2637392.58649  23859364.9494   23859372.8884
  22248282.049    -2868129.76949  -2229820.79649  22248284.0644   22248290.0594
  21632857.479     1799960.20349   1255975.26149  21632861.8784   21632868.1894
  21010473.378     2714802.94149   2097603.14449  21010476.2884   21010482.6704
 96  2 17 17 10  0.0000000  0  6 29  4 19 18 22 14
  20890453.503     -562545.29549   -440579.46849  20890457.2354   20890462.3924
  24869433.454      792099.69349    612994.43449  24869437.9654   24869445.1334
  23842517.054    -3479627.31649  -2706373.06749  23842519.2224   23842527.8914
  22233231.609    -2947217.28649  -2291447.42649  22233234.3374   22233240.0834
  21638686.167     1830569.23449   1279826.46049  21638686.1054   21638692.9184
  21019725.742     2763422.64049   2135488.59849  21019728.2804   21019734.7884
 96  2 17 17 10 30.0000000  0  6 29  4 19 18 22 14
  20885226.961     -590015.97349   -461985.20049  20885229.6384   20885234.5774
  24870651.021      798490.70749    617974.42049  24870652.6834   24870660.5134
  23825595.912    -3568560.45849  -2775671.57949  23825596.7354   23825605.3024
  22218099.317    -3026741.19149  -2353414.10949  22218101.4374   22218106.9954
  21644507.256     1861170.82649   1303671.83049  21644509.9584   21644515.8574
  21028967.456     2811985.44349   2173329.71249  21028969.7194   21028976.0384
 96  2 17 17 11  0.0000000  0  6 29  4 19 18 22 14
  20879921.135     -617901.71149   -483714.35849  20879923.1614   20879928.2684
  24871826.512      804687.36349    622802.89949  24871830.2214   24871837.4064
  23808578.274    -3657970.51049  -2845341.72849  23808581.6094   23808590.3244
  22202867.026    -3106796.44749  -2415794.82949  22202867.2874   22202873.1624
  21650315.425     1891691.75349   1327454.37149  21650317.5874   21650324.3764
  21038181.208     2860407.56249   2211061.20349  21038184.1064   21038190.5864
 96  2 17 17 11 30.0000000  0  6 29  4 19 18 22 14
  20874553.565     -646102.93449   -505689.34749  20874556.6724   20874561.8404
  24872988.159      810780.06049    627550.43949  24872990.6204   24872999.3884
  23791492.478    -3747767.79149  -2915313.59849  23791493.9254   23791502.1764
  22187546.222    -3187301.12149  -2478525.74949  22187547.9644   22187553.8254
  21656127.563     1922225.99849   1351247.28249  21656127.9924   21656135.1364
  21047386.572     2908780.03749   2248754.00749  21047389.0324   21047395.2404
 96  2 17 17 12  0.0000000  0  6 29  4 19 18 22 14
  20869110.222     -674710.67649   -527981.10249  20869112.8614   20869117.9744
  24874119.074      816712.37449    632172.96949  24874121.5964   24874128.5304
  23774309.589    -3838038.41749  -2985654.31949  23774315.8844   23774324.4744
  22172126.020    -3268326.43249  -2541662.34349  22172128.9634   22172135.0254
  21661924.197     1952700.50649   1374993.62949  21661927.8654   21661933.7844
  21056569.864     2957037.43449   2286357.14449  21056572.1484   21056578.6404
 96  2 17 17 12 30.0000000  0  6 29  4 19 18 22 14
  20863604.083     -703647.91949   -550529.61449  20863606.4334   20863611.4354
  24875233.626      822566.52549    636734.56849  24875234.8954   24875241.8954
  23757061.177    -3928710.98349  -3056308.24949  23757062.4324   23757070.3374
  22156623.728    -3349801.84249  -2605149.67349  22156624.7444   22156631.1774
  21667726.199     1983178.42749   1398742.66349  21667726.9654   21667733.3424
  21065743.192     3005244.85149   2323921.33949  21065745.6434   21065752.3744
 96  2 17 17 13  0.0000000  0  6 29  4 19 18 22 14
  20858038.105     -732888.95949   -573314.85249  20858042.0164   20858047.0694
  24876329.560      828353.29249    641243.68149  24876335.6584   24876343.3454
  23739733.377    -4019763.65449  -3127258.37049  23739734.8754   23739743.6474
  22141038.947    -3431695.98749  -2668963.29249  22141040.9754   22141047.2574
  21673527.848     2013664.67849   1422498.16949  21673528.5034   21673534.6434
  21074907.880     3053410.17949   2361452.73249  21074911.3394   21074917.7214
 96  2 17 17 13 30.0000000  0  6 29  4 19 18 22 14
  20852427.839     -762379.29449   -596294.34349  20852430.5004   20852435.3634
  24877435.415      834137.08849    645750.51249  24877437.8814   24877444.2634
  23722344.652    -4111136.89549  -3198458.27949  23722347.4714   23722355.9124
  22125391.589    -3513920.14749  -2733034.06249  22125394.0684   22125400.4104
  21679339.337     2044213.57649   1446302.49549  21679341.4904   21679347.8034
  21084078.868     3101598.25449   2399001.85449  21084080.8744   21084087.8034
 96  2 17 17 14  0.0000000  0  6 29  4 19 18 22 14
  20846775.377     -792082.14549   -619439.43349  20846777.8364   20846783.0844
  24878535.307      839932.68849    650266.47849  24878539.3554   24878547.7204
  23704898.614    -4202816.08449  -3269896.58949  23704901.5984   23704909.4334
  22109687.387    -3596442.16449  -2797336.93449  22109690.5214   22109696.9144
  21685169.025     2074843.22749   1470169.74649  21685170.5664   21685176.1074
  21093255.666     3149834.00249   2436588.12449  21093259.8454   21093266.5314
 96  2 17 17 14 30.0000000  0  6 29  4 19 18 22 14
  20841071.614     -822052.12549   -642792.67449  20841074.9514   20841079.9504
  24879623.895      845636.15449    654710.69249  24879625.7754   24879632.7744
  23687378.717    -4294882.60949  -3341636.70649  23687382.0954   23687389.0144
  22093911.806    -3679349.40149  -2861939.96549  22093913.7814   22093920.2684
  21690996.041     2105470.40249   1494035.07049  21690998.4314   21691004.8314
  21102424.810     3198013.22649   2474130.35149  21102427.9974   21102434.8084
 96  2 17 17 15  0.0000000  0  6 29  4 19 18 22 14
  20835324.061     -852255.49549   -666327.78249  20835327.4184   20835332.6094
  24880694.130      851269.19849    659100.02049  24880697.4204   24880704.4584
  23669791.747    -4387299.26449  -3413649.68449  23669796.0424   23669803.4734
  22078064.761    -3762619.12149  -2926825.45849  22078068.2044   22078074.3914
  21696832.403     2136135.85049   1517930.20549  21696834.2124   21696840.6804
  21111586.051     3246152.48049   2511641.42649  21111589.0374   21111595.3574
 96  2 17 17 15 30.0000000  0  6 29  4 19 18 22 14
  20829531.649     -882690.32449   -690043.24349  20829535.7584   20829541.0124
  24881756.111      856846.12949    663445.64749  24881759.9474   24881766.6824
  23652140.493    -4480060.89949  -3485931.46449  23652143.7174   23652151.4424
  22062150.534    -3846253.59649  -2991995.17749  22062153.0604   22062159.2444
  21702676.760     2166856.18049   1541868.10249  21702679.8534   21702686.4414
  21120741.286     3294260.32649   2549128.03049  21120743.8264   21120750.0984
 96  2 17 17 16  0.0000000  0  6 29  4 19 18 22 14
  20823718.738     -913244.07349   -713851.37349  20823721.7974   20823726.8134
  24882820.814      862467.88749    667826.12849  24882826.8554   24882836.3014
  23634444.285    -4573057.89949  -3558396.64449  23634446.4504   23634453.7204
  22046183.085    -3930159.39149  -3057376.30849  22046186.6004   22046192.7484
  21708555.129     2197739.23549   1565932.80549  21708556.9174   21708563.0904
  21129909.609     3342440.62649   2586671.09049  21129912.2754   21129918.5334
 96  2 17 17 16 30.0000000  0  6 29  4 19 18 22 14
  20817867.013     -943997.11149   -737814.78949  20817869.7684   20817874.7014
  24883891.797      868060.71949    672184.16249  24883892.4304   24883899.2554
  23616694.973    -4666340.64749  -3631084.46949  23616695.0764   23616703.8304
  22030155.184    -4014395.51349  -3123014.84049  22030156.7914   22030163.9444
  21714449.481     2228716.15249   1590070.64049  21714451.3174   21714458.0304
  21139079.531     3390630.21249   2624221.38849  21139082.3824   21139088.8284
 96  2 17 17 17  0.0000000  0  6 29  4 19 18 22 14
  20811971.474     -974975.32349   -761953.66449  20811974.6754   20811979.9144
  24884947.031      873621.28849    676517.03049  24884951.7604   24884958.7134
  23598889.609    -4759903.62749  -3703990.66749  23598890.8044   23598898.3664
  22014063.345    -4098960.56949  -3188909.68449  22014064.7664   22014071.3384
  21720360.737     2259787.26949   1614281.88149  21720364.5104   21720370.8384
  21148254.325     3438843.54649   2661790.19249  21148256.8334   21148263.6384
 96  2 17 17 17 30.0000000  0  6 29  4 19 18 22 14
  20806048.411    -1006102.05849   -786208.27449  20806051.4404   20806056.6584
  24886011.426      879214.98549    680875.71749  24886012.5194   24886022.3064
  23581042.615    -4853672.47349  -3777057.28049  23581047.1824   23581055.7244
  21997923.664    -4183768.26249  -3254993.59549  21997926.8104   21997933.1434
  21726306.531     2291031.12649   1638627.72949  21726309.9754   21726316.6334
  21157450.267     3487173.26549   2699449.68849  21157453.5274   21157460.7584
 96  2 17 17 18  0.0000000  0  6 29  4 19 18 22 14
  20800083.919    -1037445.70849   -810631.90449  20800087.1034   20800092.3114
  24887065.294      884752.02049    685190.20849  24887070.1114   24887076.2934
  23563149.093    -4947710.64149  -3850333.76449  23563152.9464   23563161.1234
  21981726.151    -4268888.35249  -3321320.93049  21981728.4544   21981735.3304
  21732270.303     2322362.68549   1663041.90949  21732272.1714   21732278.4804
  21166655.027     3535540.48449   2737138.39749  21166657.5944   21166664.4984
 96  2 17 17 18 30.0000000  0  6 29  4 19 18 22 14
  20794083.208    -1068977.48049   -835202.11949  20794086.5704   20794091.9884
  24888115.649      890270.20349    689490.05449  24888119.8934   24888130.2124
  23545207.582    -5041985.64449  -3923794.77749  23545212.3534   23545220.5054
  21965473.707    -4354291.61649  -3387868.92249  21965476.8654   21965483.3474
  21738252.562     2353798.71249   1687537.50449  21738253.8254   21738260.8154
  21175869.814     3583971.85749   2774877.10749  21175873.6494   21175880.8634
 96  2 17 17 19  0.0000000  0  6 29  4 19 18 22 14
  20788051.105    -1100677.32649   -859903.30049  20788054.2534   20788059.5494
  24889164.272      895780.30649    693783.59549  24889168.1254   24889175.2014
  23527224.057    -5136495.26849  -3997438.62149  23527227.0474   23527235.6904
  21949169.273    -4439982.75449  -3454641.22349  21949170.4724   21949176.5774
  21744252.785     2385340.35849   1712115.37149  21744257.1004   21744262.3544
  21185099.103     3632465.48449   2812664.31949  21185101.9424   21185108.7874
 96  2 17 17 19 30.0000000  0  6 29  4 19 18 22 14
  20781989.195    -1132535.99449   -884728.23949  20781991.8194   20781996.9844
  24890212.050      901286.83949    698074.32849  24890216.1854   24890222.8204
  23509194.661    -5231243.44049  -4071268.33849  23509197.9054   23509206.2184
  21932807.289    -4525954.74649  -3521632.37649  21932810.4744   21932816.6854
  21750274.341     2416977.48749   1736767.67549  21750276.9574   21750282.7334
  21194335.296     3681005.19449   2850487.44749  21194338.9064   21194345.5214
 96  2 17 17 20  0.0000000  0  6 29  4 19 18 22 14
  20775894.241    -1164562.50549   -909683.96349  20775897.4874   20775902.3034
  24891262.074      906798.17749    702368.79949  24891264.7994   24891272.0024
  23491113.817    -5326248.83849  -4145298.50149  23491118.8484   23491127.8314
  21916391.447    -4612222.68149  -3588854.14249  21916394.1774   21916400.1934
  21756307.825     2448684.66449   1761474.54449  21756310.4104   21756315.7404
  21203577.174     3729569.43149   2888329.68049  21203580.3484   21203587.0184
 96  2 17 17 20 30.0000000  0  6 29  4 19 18 22 14
  20769771.037    -1196739.35049   -934756.82649  20769774.3394   20769779.6494
  24892314.411      912339.02749    706686.31649  24892318.6204   24892327.5634
  23472986.944    -5421516.15349  -4219532.72349  23472989.7744   23472999.7444
  21899923.074    -4698765.32549  -3656289.96249  21899926.0414   21899931.5704
  21762360.424     2480487.12149   1786255.66749  21762361.7824   21762367.9944
  21212825.697     3778170.28749   2926200.44949  21212829.0714   21212835.6554
 96  2 17 17 21  0.0000000  0  6 29  4 19 18 22 14
  20763627.893    -1229023.45449   -959913.26949  20763630.8344   20763636.1624
  24893386.274      917956.39949    711063.48149  24893387.5604   24893395.4634
  23454815.076    -5517000.39549  -4293935.99949  23454819.9664   23454828.3474
  21883414.986    -4785518.82949  -3723890.09149  21883417.3124   21883422.9804
  21768441.655     2512440.20049   1811154.15349  21768443.2534   21768448.3804
  21222091.268     3826857.36549   2964138.40049  21222094.2374   21222100.4294
 96  2 17 17 21 30.0000000  0  6 29  4 19 18 22 14
  20757470.009    -1261375.59549   -985122.72849  20757474.6174   20757479.7164
  24894475.945      923699.88249    715538.86349  24894481.3624   24894489.9104
  23436612.688    -5612660.43349  -4368476.24149  23436616.2534   23436625.1804
  21866877.129    -4872428.74949  -3791612.09549  21866878.7834   21866884.5424
  21774558.348     2544589.77949   1836205.75549  21774561.3554   21774566.0044
  21231379.060     3875670.18349   3002174.33749  21231382.6804   21231389.3814
 96  2 17 17 22  0.0000000  0  6 29  4 19 18 22 14
  20751307.592    -1293772.61149  -1010367.15649  20751309.5744   20751314.8364
  24895597.774      929582.01249    720122.26349  24895601.2104   24895607.9954
  23418376.324    -5708483.16449  -4443143.27049  23418382.0104   23418390.2554
  21850310.859    -4959477.21549  -3859442.05949  21850314.3264   21850319.7694
  21780717.224     2576955.29149   1861425.62749  21780719.3234   21780725.7854
  21240698.083     3924635.92249   3040329.42549  21240700.5594   21240707.3774
 96  2 17 17 22 30.0000000  0  6 29  4 19 18 22 14
  20745119.307    -1326286.10649  -1035702.34849  20745122.5234   20745127.6194
  24896725.325      935522.70849    724751.36049  24896730.6264   24896737.6074
  23400103.668    -5804522.95249  -4517979.40949  23400106.7494   23400114.5714
  21833708.246    -5046732.32749  -3927433.04949  21833710.4014   21833715.9364
  21786905.016     2609473.61749   1886764.56949  21786907.0904   21786914.4044
  21250030.738     3973685.02849   3078549.47949  21250034.2114   21250041.2864
 96  2 17 17 23  0.0000000  0  6 29  4 19 18 22 14
  20738900.553    -1358963.09949  -1061164.94049  20738904.3684   20738909.6164
  24897857.944      941467.42449    729383.52149  24897861.2684   24897870.5544
  23381780.362    -5900813.42949  -4593010.90849  23381783.0974   23381791.4024
  21817051.087    -5134256.16949  -3995633.43749  21817054.6594   21817060.7484
  21793112.072     2642094.90749   1912183.73549  21793115.2934   21793121.6764
  21259373.678     4022780.93149   3116805.99649  21259376.9304   21259384.0314
 96  2 17 17 23 30.0000000  0  6 29  4 19 18 22 14
  20732656.122    -1391768.19849  -1086727.35349  20732661.6164   20732666.7844
  24898992.499      947432.54449    734031.64549  24898996.7054   24899003.6084
  23363410.551    -5997337.87949  -4668224.72649  23363415.5934   23363422.8534
  21800345.952    -5222041.40649  -4064037.51149  21800349.6894   21800355.4944
  21799345.440     2674849.23649   1937706.58449  21799348.4344   21799354.9694
  21268729.676     4071947.77549   3155117.79449  21268733.0884   21268739.9324
 96  2 17 17 24  0.0000000  0  6 29  4 19 18 22 14
  20726395.139    -1424685.25549  -1112377.00549  20726397.8954   20726402.8274
  24900133.089      953420.45649    738697.52549  24900136.5874   24900144.9334
  23345000.795    -6094083.16649  -4743610.63349  23345005.5514   23345013.0544
  21783594.831    -5310076.74749  -4132636.46849  21783596.7994   21783603.1744
  21805606.592     2707747.54449   1963341.62349  21805608.6504   21805615.1214
  21278101.738     4121200.18149   3193496.26049  21278105.3974   21278112.6084
 96  2 17 17 24 30.0000000  0  6 29  4 19 18 22 14
  20720115.522    -1457684.23449  -1138090.49949  20720118.6354   20720123.5914
  24901281.813      959459.04949    743402.82949  24901286.4174   24901293.5114
  23326557.933    -6191017.77949  -4819144.06549  23326559.2384   23326566.7364
  21766800.015    -5398336.47849  -4201410.28149  21766801.8674   21766807.6434
  21811896.574     2740805.18849   1989100.80649  21811899.3434   21811905.7364
  21287495.868     4170562.27249   3231960.19549  21287498.9404   21287505.7864
 96  2 17 17 25  0.0000000  0  6 29  4 19 18 22 14
  20713821.329    -1490752.04649  -1163857.62449  20713825.8274   20713831.0594
  24902443.107      965556.58149    748154.12049  24902445.9914   24902453.9204
  23308074.862    -6288141.04649  -4894824.48849  23308076.7634   23308085.3704
  21749964.411    -5486800.13049  -4270342.98549  21749967.6204   21749973.4464
  21818218.226     2774028.03049   2014988.72849  21818221.8704   21818227.9794
  21296910.947     4220042.49849   3270516.18549  21296914.7194   21296921.4834
 96  2 17 17 25 30.0000000  0  6 29  4 19 18 22 14
  20707519.421    -1523872.92249  -1189666.10049  20707523.3774   20707528.5014
  24903616.854      971722.72549    752958.87749  24903621.3134   24903629.1444
  23289560.331    -6385435.92749  -4970638.64949  23289563.0584   23289570.9334
  21733099.181    -5575430.18649  -4339405.36149  21733101.8894   21733108.1674
  21824573.487     2807418.37449   2041007.17749  21824575.7254   21824581.9904
  21306349.893     4269635.42249   3309159.99049  21306352.1154   21306358.8504
 96  2 17 17 26  0.0000000  0  6 29  4 19 18 22 14
  20701205.083    -1557053.55049  -1215521.13249  20701209.0614   20701214.1914
  24904802.493      977957.42249    757817.01849  24904806.8884   24904815.8014
  23271016.097    -6482883.99649  -5046572.18749  23271018.2154   23271026.0274
  21716203.777    -5664219.69749  -4408591.98549  21716206.0714   21716211.6394
  21830956.490     2840960.90849   2067144.21949  21830958.6544   21830964.7934
  21315804.546     4319326.65249   3347880.40049  21315808.0894   21315814.8794
 96  2 17 17 26 30.0000000  0  6 29  4 19 18 22 14
  20694872.758    -1590333.63749  -1241453.67249  20694876.1514   20694881.3084
  24905994.152      984230.56249    762705.17349  24905999.2524   24906006.2934
  23252437.773    -6580509.20149  -5122643.73449  23252441.6814   23252448.6174
  21699272.655    -5753193.43949  -4477922.17149  21699274.3764   21699280.7954
  21837364.996     2874629.52049   2093379.49949  21837365.0054   21837371.3284
  21325273.490     4369081.91949   3386650.70149  21325276.1994   21325282.8014
 96  2 17 17 27  0.0000000  0  6 29  4 19 18 22 14
  20688515.670    -1623734.54449  -1267480.35249  20688519.7954   20688525.3574
  24907194.599      990523.01749    767608.34049  24907198.9334   24907205.9324
  23233823.343    -6678317.02649  -5198857.59249  23233828.1654   23233836.8784
  21682303.230    -5842356.35149  -4547399.75849  21682307.5954   21682313.8524
  21843794.552     2908427.53149   2119715.59449  21843796.4894   21843802.4494
  21334749.282     4418879.91049   3425454.30049  21334752.3324   21334759.1214
 96  2 17 17 27 30.0000000  0  6 29  4 19 18 22 14
  20682141.535    -1657237.72549  -1293586.72749  20682144.7084   20682149.8014
  24908393.692      996844.31649    772533.96849  24908400.4304   24908406.4284
  23215177.714    -6776298.51049  -5275206.76149  23215182.8654   23215191.1564
  21665302.528    -5931705.43249  -4617022.40249  21665305.1354   21665311.4384
  21850251.929     2942362.29449   2146158.24849  21850254.1824   21850260.5324
  21344233.530     4468719.78949   3464290.53349  21344236.9564   21344243.1314
 96  2 17 17 28  0.0000000  0  6 29  4 19 18 22 14
  20675749.399    -1690822.85449  -1319756.96149  20675753.6134   20675758.7464
  24909608.527     1003215.62749    777498.62349  24909613.0154   24909622.1754
  23196501.946    -6874443.71149  -5351683.50249  23196506.8364   23196514.9794
  21648266.299    -6021226.24349  -4686778.87849  21648269.7404   21648275.8184
  21856738.389     2976453.92749   2172723.14049  21856741.6954   21856748.2904
  21353731.806     4518630.82949   3503182.21749  21353735.0204   21353741.3834
 96  2 17 17 28 30.0000000  0  6 29  4 19 18 22 14
  20669350.057    -1724455.27949  -1345964.04749  20669353.6064   20669358.8454
  24910834.461     1009652.38349    782514.22549  24910838.7134   24910844.9104
  23177799.938    -6972741.71349  -5428279.33249  23177801.3254   23177809.6774
  21631206.240    -6110881.14149  -4756639.82849  21631209.1374   21631215.3684
  21863262.679     3010721.62949   2199425.23249  21863262.8004   21863269.3754
  21363252.982     4568663.21049   3542168.45649  21363255.7844   21363262.2344
 96  2 17 17 29  0.0000000  0  6 29  4 19 18 22 14
  20662948.997    -1758092.20649  -1372174.64249  20662952.5034   20662957.7964
  24912077.078     1016184.97549    787604.49449  24912079.2674   24912088.4594
  23159066.765    -7071171.02449  -5504977.46649  23159070.3444   23159078.4404
  21614124.191    -6200646.68049  -4826586.98949  21614127.3744   21614133.3354
  21869816.807     3045178.03249   2226274.35049  21869819.0004   21869826.3164
  21372800.986     4618848.04649   3581273.48749  21372805.4204   21372811.7004
 96  2 17 17 29 30.0000000  0  6 29  4 19 18 22 14
  20656547.460    -1791731.07949  -1398386.75649  20656551.4504   20656556.5194
  24913332.303     1022799.13249    792758.38649  24913339.7494   24913345.7014
  23140308.325    -7169750.21149  -5581792.38549  23140312.2454   23140319.8644
  21597019.707    -6290536.64649  -4896631.11449  21597022.0894   21597027.6844
  21876405.043     3079798.34349   2253251.20049  21876407.5304   21876414.9104
  21382379.877     4669180.08449   3620493.22949  21382383.4774   21382389.5954
 96  2 17 17 30  0.0000000  0  6 29  4 19 18 22 14
  20650139.383    -1825406.16249  -1424627.08549  20650143.1054   20650148.5414
  24914605.149     1029463.68249    797951.48549  24914607.2864   24914616.3384
  23121517.383    -7268492.74049  -5658734.60149  23121521.9364   23121530.4884
  21579886.196    -6380567.51449  -4966785.03149  21579889.5944   21579895.9214
  21883020.641     3114561.11349   2280339.06149  21883023.9904   21883029.9484
  21391984.264     4719650.25349   3659820.60449  21391987.5114   21391993.7644
 96  2 17 17 30 30.0000000  0  6 29  4 19 18 22 14
  20643721.509    -1859128.96149  -1450904.59449  20643726.0654   20643731.3874
  24915879.901     1036181.44859    803186.09059  24915886.4474   24915895.2544
  23102699.128    -7367393.05049  -5735799.74049  23102701.3484   23102709.1844
  21562725.997    -6470748.28849  -5037055.75749  21562728.9524   21562734.7814
  21889666.295     3149477.44849   2307546.58349  21889667.6984   21889673.9654
  21401612.132     4770245.31749   3699245.29649  21401615.3044   21401621.8554
 96  2 17 17 31  0.0000000  0  6 29  4 19 18 22 14
  20637294.308    -1892908.37649  -1477226.22649  20637298.1674   20637303.0814
  24917172.712     1042952.456 9    808462.12059                  24917182.9094
  23083846.133    -7466459.42849  -5812994.30449  23083850.1194   23083858.8724
  21545530.370    -6561103.09049  -5107462.09549  21545534.9864   21545540.7504
  21896338.508     3184548.17449   2334874.38749  21896341.0714   21896348.3244
  21411256.577     4820928.25349   3738738.46049  21411260.1814   21411266.7724
 96  2 17 17 31 30.0000000  0  6 29  4 19 18 22 14
  20630856.875    -1926742.53749  -1503590.51549  20630859.8704   20630864.8604
  24918468.133     1049779.09859    813781.59459  24918472.0954   24918480.7644
  23064964.546    -7565680.32849  -5890309.26549  23064969.3004   23064977.1144
  21528305.013    -6651626.02149  -5177999.43749  21528309.1124   21528315.0304
  21903045.263     3219785.76549   2362332.24049  21903046.5104   21903053.7784
  21420918.800     4871700.93649   3778301.55849  21420921.7194   21420928.4034
 96  2 17 17 32  0.0000000  0  6 29  4 19 18 22 14
  20624405.727    -1960642.28249  -1530005.90749  20624408.8474   20624413.9394
  24919780.767     1056667.71349    819149.27959  24919785.5854   24919794.0604
  23046054.584    -7665056.78049  -5967745.43449  23046058.1764   23046066.6084
  21511043.904    -6742334.51249  -5248681.37549  21511047.8194   21511053.7904
  21909780.616     3255187.98249   2389918.36249  21909783.8774   21909790.5164
  21430594.249     4922546.91649   3817921.76549  21430597.4184   21430604.0334
 96  2 17 17 32 30.0000000  0  6 29  4 19 18 22 14
  20617946.991    -1994584.01349  -1556454.01549  20617950.0874   20617955.0264
  24921108.222     1063635.14059    824578.42659  24921111.7774   24921119.2704
  23027115.033    -7764589.82849  -6045303.61449  23027117.3464   23027126.5854
  21493749.747    -6833222.53049  -5319503.19249  21493752.1534   21493757.9664
  21916548.776     3290751.56349   2417630.22849  21916551.0124   21916558.0794
  21440284.188     4973466.54749   3857599.36049  21440287.0884   21440293.7374
 96  2 17 17 33  0.0000000  0  6 29  4 19 18 22 14
  20611483.485    -2028545.93849  -1582917.86149  20611487.0074   20611492.0854
  24922448.074     1070683.90549    830070.87959  24922452.6824   24922460.6794
  23008142.839    -7864274.43449  -6122979.91049  23008147.7924   23008156.6974
  21476424.583    -6924267.74849  -5390447.50849  21476427.0714   21476432.8564
  21923344.370     3326469.63349   2445462.47749  21923347.3264   21923354.8824
  21449990.205     5024475.41349   3897346.49649  21449993.7674   21450000.5424
 96  2 17 17 33 30.0000000  0  5 29 19 18 22 14
  20605017.789    -2062525.09549  -1609395.13549  20605021.0644   20605026.3534
  22989147.613    -7964096.08049  -6200762.97849  22989152.4794   22989161.0454
  21459074.142    -7015447.69549  -5461496.81749  21459076.0354   21459081.6724
  21930174.146     3362353.29249   2473423.75849  21930175.9014   21930182.7754
  21459718.045     5075597.03449   3937181.48649  21459721.8854   21459728.6434
 96  2 17 17 34  0.0000000  0  5 29 19 18 22 14
  20598544.956    -2096539.26249  -1635899.69049  20598548.5694   20598553.6414
  22970122.270    -8064069.39649  -6278664.23849  22970127.9814   22970136.7374
  21441699.072    -7106748.43049  -5532640.24049  21441701.8184   21441708.0154
  21937033.492     3398391.85349   2501505.75149  21937034.0574   21937040.7294
  21469466.711     5126823.59549   3977098.25249  21469470.1114   21469476.9654
 96  2 17 17 34 30.0000000  0  5 29 19 18 22 14
  20592071.038    -2130555.91649  -1662406.17249  20592075.2044   20592080.4664
  22951077.966    -8164153.72349  -6356651.99849  22951083.6964   22951091.4514
  21424313.616    -7198109.25249  -5603830.48049  21424316.5484   21424322.5784
  21943927.644     3434627.41449   2529741.23749  21943930.1804   21943935.9514
  21479242.899     5178199.04349   4017131.03149  21479246.1844   21479253.4564
 96  2 17 17 35  0.0000000  0  5 29 19 18 22 14
  20585597.564    -2164585.04749  -1688922.38749  20585599.6694   20585604.8074
  22932013.271    -8264345.77049  -6434723.69449  22932016.8124   22932025.4664
  21406914.331    -7289540.49249  -5675075.59549  21406917.7234   21406923.6224
  21950858.254     3471058.64349   2558129.20049  21950862.3374   21950868.7244
  21489045.515     5229709.47149   4057268.98449  21489048.6624   21489055.3474
 96  2 17 17 35 30.0000000  0  5 29 19 18 22 14
  20579118.200    -2198625.82249  -1715447.66749  20579122.0134   20579127.1004
  22912928.444    -8364635.01249  -6512871.11249  22912932.5644   22912941.2634
  21389501.424    -7381044.07749  -5746377.08849  21389505.5124   21389511.0034
  21957830.788     3507690.75249   2586673.70149  21957833.3264   21957839.2844
  21498873.239     5281350.22349   4097508.48749  21498875.6584   21498882.5374
 96  2 17 17 36  0.0000000  0  5 29 19 18 22 14
  20572640.072    -2232672.50649  -1741977.56249  20572643.2694   20572648.4934
  22893822.870    -8465035.77949  -6591105.45049  22893827.6514   22893835.0604
  21372073.988    -7472632.62149  -5817744.77649  21372076.4964   21372082.4194
  21964834.813     3544508.13349   2615362.55349  21964839.3704   21964844.8534
  21508720.479     5333105.81649   4137837.48349  21508724.3444   21508731.0314
 96  2 17 17 36 30.0000000  0  5 29 19 18 22 14
  20566162.355    -2266712.71449  -1768502.40449  20566165.6934   20566170.9004
  22874696.556    -8565555.30449  -6669432.33349  22874699.2834   22874706.2284
  21354620.227    -7564344.85049  -5889208.84349  21354624.1584   21354630.1974
  21971870.515     3581485.49049   2644176.06349  21971875.3684   21971881.6954
  21518586.341     5384950.48249   4178235.88549  21518590.3294   21518597.0024
 96  2 17 17 37  0.0000000  0  6 29 19 18 22 28 14
  20559690.892    -2300721.08049  -1795002.44049  20559693.9964   20559699.1174
  22855544.159    -8666194.91149  -6747852.77049  22855547.5894   22855555.7884
  21337146.250    -7656178.10749  -5960767.21949  21337148.7854   21337154.7674
  21978939.223     3618618.81149   2673111.11549  21978942.1704   21978947.7974
  24849334.211    -5011160.56219  -3877213.89119  24849333.961    24849342.642
  21528470.248     5436882.73249   4218702.53249  21528472.8334   21528479.3764
 96  2 17 17 37 30.0000000  0  6 29 19 18 22 28 14
  20553228.944    -2334679.58349  -1821463.62049  20553232.1644   20553237.3724
  22836370.838    -8766950.79149  -6826363.81649  22836373.3954   22836382.3214
  21319652.065    -7748110.80849  -6032403.07649  21319654.9654   21319660.7794
  21986035.209     3655909.82549   2702169.02749  21986038.3094   21986044.4104
  24829731.438    -5114180.365 9  -3957489.038 9  24829730.593    24829739.490
  21538369.965     5488908.14849   4259241.77549  21538372.9674   21538379.5824
 96  2 17 17 38  0.0000000  0  6 29 19 18 22 28 14
  20546778.844    -2368573.66749  -1847874.60649  20546782.3484   20546787.1744
  22817176.043    -8867815.60049  -6904959.74849  22817179.7994   22817189.0444
  21302139.157    -7840140.63049  -6104114.61649  21302141.8834   21302147.6304
  21993161.011     3693351.09549   2731344.03349  21993163.0894   21993170.1174
  24810085.319    -5217399.263 9  -4037919.362 9  24810087.614    24810096.504
  21548286.159     5541025.62249   4299852.76749  21548290.7064   21548297.3064
 96  2 17 17 38 30.0000000  0  6 29 19 18 22 28 14
  20540340.826    -2402404.40049  -1874236.22749  20540344.2214   20540349.5614
  22797965.723    -8968766.80449  -6983623.00349  22797969.6804   22797978.5874
  21284610.448    -7932253.03149  -6175890.50949  21284613.4184   21284619.1894
  22000313.767     3730942.03849   2760635.66849  22000316.6774   22000323.9614
  24790407.521    -5320800.486 9  -4118491.811 9  24790411.899    24790419.828
  21558220.058     5593227.61649   4340529.60849  21558224.3034   21558230.5334
 96  2 17 17 39  0.0000000  0  6 29 19 18 22 28 14
  20533907.076    -2436212.16349  -1900579.94849  20533911.1554   20533916.1304
  22778735.705    -9069822.90549  -7062367.98949  22778740.2984   22778747.6844
  21267065.977    -8024452.29849  -6247734.08249  21267068.7644   21267074.4254
  22007494.163     3768665.85549   2790030.85349  22007496.0384   22007502.2304
  24770692.367    -5424392.718 9  -4199213.077 9  24770698.784    24770707.300
  21568169.402     5645504.35149   4381264.68949  21568172.2554   21568178.8864
 96  2 17 17 39 30.0000000  0  6 29 19 18 22 28 14
  20527474.896    -2470012.67249  -1926918.01949  20527478.9094   20527484.0394
  22759489.217    -9170959.86349  -7141175.97549  22759494.4254   22759502.8934
  21249505.448    -8116728.01249  -6319637.22949  21249509.3194   21249515.1374
  22014698.218     3806536.26949   2819540.25149  22014701.4464   22014707.0894
  24750950.286    -5528165.651 9  -4280075.185 9  24750952.568    24750959.634
  21578131.741     5697856.97949   4422058.90649  21578134.5234   21578141.1624
 96  2 17 17 40  0.0000000  0  6 29 19 18 22 28 14
  20521039.237    -2503825.71749  -1953265.85649  20521044.5184   20521049.8364
  22740229.673    -9272174.63849  -7220044.60749  22740233.8484   22740240.8604
  21231933.820    -8209075.88049  -6391596.59849  21231936.1394   21231941.8164
  22021935.345     3844566.99149   2849174.54649  22021938.3514   22021943.1894
  24731168.909    -5632115.197 9  -4361074.887 9  24731171.000    24731178.248
  21588109.026     5750295.76349   4462920.26649  21588113.1114   21588120.0344
 96  2 17 17 40 30.0000000  0  6 29 19 18 22 28 14
  20514604.614    -2537652.35449  -1979624.28549  20514607.6184   20514613.0804
  22720956.735    -9373464.35949  -7298971.63549  22720959.4834   22720966.2244
  21214350.798    -8301466.67349  -6463589.41849  21214354.6294   21214360.2144
  22029206.646     3882774.35249   2878946.49049  22029208.4414   22029216.0974
  24711355.319    -5736228.022 9  -4442201.827 9  24711359.492    24711366.895
  21598109.527     5802844.02749   4503866.93449  21598113.0884   21598119.9024
 96  2 17 17 41  0.0000000  0  6 29 19 18 22 28 14
  20508161.644    -2571506.20049  -2006003.91749  20508165.5614   20508170.5474
  22701660.300    -9474862.51449  -7377983.14649  22701663.7184   22701670.7634
  21196759.823    -8393914.02449  -6535626.31049  21196762.6334   21196768.2274
  22036508.471     3921145.90049   2908846.39649  22036509.8344   22036517.8984
  24691511.363    -5840524.899 9  -4523472.196 9  24691512.799    24691520.000
  21608128.974     5855500.14749   4544897.63949  21608133.3164   21608139.9214
 96  2 17 17 41 30.0000000  0  6 29 19 18 22 28 14
  20501719.102    -2605365.17349  -2032387.54149  20501722.4084   20501727.5274
  22682346.030    -9576366.66349  -7457077.25949  22682347.9444   22682354.8704
  21179159.806    -8486398.91249  -6607692.45349  21179163.2964   21179169.0634
  22043841.398     3959689.50849   2938880.35149  22043844.4264   22043852.3754
  24671625.821    -5944995.308 9  -4604877.733 9  24671632.138    24671639.581
  21618171.937     5908275.36149   4586021.15249  21618176.2674   21618182.7824
 96  2 17 17 42  0.0000000  0  6 29 19 18 22 28 14
  20495279.994    -2639202.33549  -2058754.17349  20495283.4594   20495288.5054
  22663006.662    -9677983.70249  -7536259.31449  22663011.2634   22663018.0444
  21161556.330    -8578909.71949  -6679778.79149  21161558.5274   21161564.7834
  22051208.402     3998398.81249   2969043.42049  22051210.9874   22051217.7784
  24651715.941    -6049621.627 9  -4686404.713 9  24651722.915    24651729.570
  21628243.620     5961194.89649   4627257.11249  21628246.4934   21628253.1174
 96  2 17 17 42 30.0000000  0  6 29 19 18 22 28 14
  20488851.242    -2672977.85849  -2085072.76949  20488856.1044   20488861.3594
  22643650.277    -9779701.24749  -7615519.69049  22643654.7654   22643662.0394
  21143948.707    -8671436.58349  -6751877.63349  21143951.4644   21143957.6284
  22058606.833     4037282.00449   2999341.99349  22058610.4494   22058617.2424
  24631782.916    -6154384.025 9  -4768037.715 9  24631786.940    24631794.757
  21638341.755     6014261.38249   4668607.58749  21638344.6744   21638351.5104
 96  2 17 17 43  0.0000000  0  6 29 19 18 22 28 14
  20482439.990    -2706675.26249  -2111330.49849  20482443.8144   20482448.9974
  22624275.229    -9881516.14649  -7694855.91649  22624280.2774   22624287.1364
  21126336.628    -8763991.87549  -6823998.63249  21126338.8454   21126345.0374
  22066043.869     4076343.72949   3029779.68849  22066043.2204   22066050.6834
  24611825.602    -6259276.266 9  -4849771.883 9  24611826.940    24611834.014
  21648464.816     6067462.88849   4710063.26549  21648468.7614   21648475.4544
 96  2 17 17 43 30.0000000  0  6 29 19 18 22 28 14
  20476045.954    -2740275.49349  -2137512.50349  20476049.9314   20476055.1554
  22604885.923    -9983410.87149  -7774254.35949  22604890.1724   22604897.3294
  21108718.678    -8856568.36749  -6896136.15549  21108722.2894   21108728.0844
  22073510.217     4115591.73849   3060362.52449  22073511.8474   22073518.9344
  24591840.127    -6364281.830 9  -4931594.298 9  24591844.782    24591850.655
  21658612.719     6120791.90649   4751618.30949  21658616.9694   21658623.6444
 96  2 17 17 44  0.0000000  0  6 29 19 18 22 28 14
  20469668.148    -2773777.26249  -2163617.77149  20469674.5074   20469679.8124
  22585481.842   -10085382.91349  -7853713.03849  22585485.0714   22585492.2644
  21091095.387    -8949184.97749  -6968304.93549  21091097.9964   21091103.7774
  22081013.120     4155025.87949   3091090.40549  22081016.5334   22081024.1514
  24571836.335    -6469401.370 9  -5013505.515 9  24571840.646    24571848.055
  21668783.158     6174230.09849   4793258.42349  21668785.9034   21668792.6164
 96  2 17 17 44 30.0000000  0  6 29 19 18 22 28 14
  20463317.099    -2807172.26849  -2189639.86449  20463319.5644   20463324.8774
  22566064.457   -10187410.01249  -7933214.62449  22566069.0044   22566077.8174
  21073464.664    -9041834.78049  -7040499.58449  21073467.5094   21073473.2334
  22088557.716     4194665.62549   3121978.53949  22088559.4154   22088567.9804
  24551815.343    -6574622.249 9  -5095495.726 9  24551818.021    24551825.786
  21678972.465     6227780.49849   4834985.96749  21678975.9864   21678983.2294
 96  2 17 17 45  0.0000000  0  6 29 19 18 22 28 14
  20456981.694    -2840455.49549  -2215574.84749  20456986.0084   20456991.3874
  22546645.889   -10289471.43149  -8012742.96349  22546648.8684   22546656.3944
  21055831.195    -9134499.56249  -7112705.90449  21055833.9894   21055839.9544
  22096139.955     4234508.21449   3153024.69249  22096142.4644   22096148.8964
  24531775.418    -6679928.747 9  -5177552.660 9  24531779.506    24531787.062
  21689187.601     6281462.57649   4876816.11649  21689191.2874   21689198.5374
 96  2 17 17 45 29.9990000  0  6 29 19 18 22 28 14
  20450667.125    -2873642.93949  -2241435.19549  20450670.8294   20450676.0314
  22527218.368   -10391555.87349  -8092289.22349  22527222.1814   22527230.3684
  21038196.140    -9227169.13649  -7184915.95749  21038199.4314   21038205.4754
  22103757.014     4274536.70049   3184215.70049  22103759.3814   22103765.3804
  24511722.846    -6785316.084 9  -5259672.560 9  24511724.554    24511731.344
  21699428.035     6335273.41449   4918746.59249  21699431.4524   21699438.3234
 96  2 17 17 45 59.9990000  0  6 29 19 18 22 28 14
  20444369.418    -2906747.39449  -2267230.87349  20444371.4984   20444376.4774
  22507789.573   -10493650.19949  -8171843.21149  22507794.3194   22507801.8224
  21020562.249    -9319835.28749  -7257123.34449  21020565.5684   21020571.2144
  22111410.049     4314755.79149   3215555.23249  22111412.5024   22111419.1874
  24491656.367    -6890780.471 9  -5341852.465 9  24491654.104    24491661.484
  21709698.163     6389241.21149   4960799.37849  21709701.3114   21709708.0474
 96  2 17 17 46 29.9990000  0  6 29 19 18 22 28 14
  20438082.565    -2939777.61049  -2292968.70149  20438085.6694   20438091.1484
  22488359.984   -10595759.82049  -8251409.11849  22488363.6344   22488371.0374
  21002931.153    -9412487.61049  -7329319.95649  21002934.2614   21002940.3374
  22119096.792     4355151.36349   3247032.27049  22119100.2364   22119106.3404
  24471568.720    -6996320.562 9  -5424091.411 9  24471571.158    24471578.345
  21719995.910     6443360.44049   5002970.16849  21719999.7214   21720006.5984
 96  2 17 17 46 59.9990000  0  6 29 19 18 22 28 14
  20431805.470    -2972752.24049  -2318663.21749  20431810.9574   20431816.2224
  22468922.650   -10697907.75249  -8331004.88149  22468925.9304   22468932.7544
  20985301.596    -9505131.79249  -7401510.22249  20985304.7184   20985310.6804
  22126810.147     4395689.45649   3278620.38849  22126813.6574   22126819.7654
  24451467.120    -7101957.502 9  -5506405.844 9  24451469.513    24451477.517
  21730316.478     6497591.41149   5045228.01849  21730319.5884   21730326.1274
 96  2 17 17 47 29.9990000  0  6 29 19 18 22 28 14
  20425546.553    -3005657.90149  -2344303.99549  20425549.3164   20425554.5154
  22449476.288   -10800084.87249  -8410623.38349  22449481.8674   22449488.8534
  20967675.322    -9597755.17349  -7473684.27649  20967678.9984   20967685.0904
  22134556.612     4436393.47249   3310337.78349  22134559.6834   22134567.0134
  24431344.836    -7207680.361 9  -5588787.209 9  24431350.139    24431358.362
  21740656.629     6551934.89449   5087573.54449  21740660.6364   21740667.4514
 96  2 17 17 47 59.9990000  0  6 29 19 18 22 28 14
  20419303.633    -3038455.63649  -2369860.67249  20419307.9984   20419313.0834
  22430029.921   -10902287.64549  -8490261.87449  22430033.1084   22430040.3604
  20950056.391    -9690345.66749  -7545832.70449  20950059.5634   20950065.6824
  22142339.125     4477286.15749   3342202.19649  22142341.3534   22142347.7194
  24411213.589    -7313470.028 9  -5671220.628 9  24411219.030    24411226.265
  21751021.670     6606406.06249   5130018.56649  21751026.1634   21751033.0554
 96  2 17 17 48 29.9990000  0  6 29 19 18 22 28 14
  20413086.030    -3071129.04649  -2395320.47649  20413090.5394   20413095.7054
  22410572.396   -11004537.27549  -8569936.88849  22410576.2874   22410582.9584
  20932444.090    -9782905.54749  -7617957.28049  20932445.8454   20932451.9574
  22150155.798     4518369.07249   3374214.83149  22150159.2234   22150165.9484
  24391072.519    -7419325.204 9  -5753705.094 9  24391076.051    24391082.397
  21761409.373     6660980.62049   5172544.15149  21761411.3984   21761418.2674
 96  2 17 17 48 59.9990000  0  6 29 19 18 22 28 14
  20406892.248    -3103687.68949  -2420690.84849  20406894.7954   20406899.8884
  22391103.410   -11106838.73449  -8649652.28049  22391107.9864   22391115.5004
  20914832.588    -9875448.29849  -7690068.51349  20914836.1424   20914841.8084
  22158009.015     4559628.57049   3406365.07049  22158010.5474   22158017.6104
  24370913.470    -7525258.272 9  -5836250.240 9  24370917.900    24370924.803
  21771808.743     6715640.68049   5215136.36349  21771812.8774   21771820.1094
 96  2 17 17 49 29.9990000  0  6 29 19 18 22 28 14
  20400718.210    -3136123.39949  -2445965.42749  20400722.4894   20400727.7964
  22371628.075   -11209194.84449  -8729410.26449  22371630.6834   22371638.1794
  20897222.515    -9967991.63349  -7762180.19749  20897225.3384   20897231.5284
  22165895.816     4601083.65849   3438667.70649  22165899.4714   22165905.8664
  24350743.222    -7631259.548 9  -5918848.566 9  24350746.589    24350753.243
  21782230.993     6770404.42449   5257809.36849  21782234.1654   21782241.3274
 96  2 17 17 49 59.9990000  0  6 29 19 18 22 28 14
  20394569.186    -3168441.85049  -2471148.63849  20394572.7774   20394577.7964
  22352137.484   -11311612.22849  -8809215.97849  22352141.8354   22352147.9614
  20879611.560   -10060539.58449  -7834295.47549  20879614.1304   20879620.1574
  22173822.655     4642727.05249   3471117.10449  22173823.9884   22173830.6214
  24330557.572    -7737321.448 9  -6001494.116 9  24330562.418    24330569.871
  21792671.085     6825271.76549   5300563.10149  21792675.3564   21792682.4454
 96  2 17 17 50 29.9990000  0  6 29 19 18 22 28 14
  20388438.101    -3200659.23949  -2496253.10349  20388441.8844   20388446.9834
  22332636.582   -11414083.36349  -8889063.58349  22332641.8094   22332649.1864
  20861999.694   -10153086.40949  -7906409.87549  20862002.9064   20862009.1224
  22181781.472     4684546.97449   3503704.01649  22181782.4334   22181787.8734
  24310365.013    -7843441.544 9  -6084184.998 9  24310368.133    24310376.205
  21803130.241     6880229.22849   5343387.05649  21803133.2984   21803139.9204
 96  2 17 17 50 59.9990000  0  6 29 19 18 22 28 14
  20382326.634    -3232776.40449  -2521279.47049  20382330.2414   20382335.0894
  22313130.970   -11516589.30249  -8968938.29749  22313134.3844   22313142.5684
  20844387.435   -10245637.10649  -7978527.29849  20844391.0384   20844397.3974
  22189768.670     4726537.71949   3536424.04749  22189772.3434   22189779.8994
  24290163.650    -7949618.846 9  -6166920.496 9  24290164.095    24290170.415
  21813604.806     6935281.40449   5386284.81349  21813609.3724   21813616.2204
 96  2 17 17 51 29.9990000  0  6 29 19 18 22 28 14
  20376232.810    -3264801.46849  -2546234.07349  20376235.7784   20376240.7744
  22293618.051   -11619135.81549  -9048844.63549  22293621.3094   22293628.4874
  20826773.429   -10338198.91149  -8050653.37449  20826777.3444   20826783.3914
  22197789.425     4768682.16649   3569263.87549  22197791.9314   22197799.6364
  24269945.578    -8055848.356 9  -6249696.654 9  24269948.058    24269955.173
  21824101.524     6990428.93549   5429256.87749  21824103.4494   21824110.5654
 96  2 17 17 51 59.9990000  0  6 29 19 18 22 28 14
  20370156.069    -3296736.33149  -2571118.39349  20370159.1224   20370164.0884
  22274097.049   -11721719.55449  -9128779.97649  22274100.0254   22274107.2024
  20809161.282   -10430749.77349  -8122770.92549  20809165.5144   20809171.4134
  22205834.253     4810952.71049   3602201.91649  22205836.1154   22205841.3834
  24249721.475    -8162130.674 9  -6332513.962 9  24249723.443    24249730.589
  21834611.358     7045666.02949   5472298.72449  21834614.9314   21834621.8844
 96  2 17 17 52 29.9990000  0  6 29 19 18 22 28 14
  20364097.145    -3328565.83949  -2595920.61449  20364102.0744   20364107.2764
  22254570.998   -11824332.53449  -9208738.10549  22254573.9004   22254580.2684
  20791557.666   -10523263.90849  -8194859.85549  20791560.7674   20791566.8144
  22213902.943     4853350.44649   3635239.11349  22213905.1374   22213912.0314
  24229488.337    -8268461.053 9  -6415368.714 9  24229489.738    24229497.141
  21845141.940     7101000.41249   5515416.38249  21845144.8564   21845151.5644
 96  2 17 17 52 59.9990000  0  6 29 19 18 22 28 14
  20358060.317    -3360294.07549  -2620643.92449  20358064.3074   20358069.5824
  22235035.391   -11926990.23949  -9288731.08649  22235038.2294   22235045.6204
  20773958.221   -10615749.53749  -8266926.57249  20773961.4474   20773967.0544
  22221991.760     4895868.05949   3668369.69549  22221997.3784   22222001.4484
  24209247.236    -8374842.616 9  -6498263.366 9  24209246.766    24209253.215
  21855690.680     7156447.76749   5558622.07849  21855696.1864   21855703.0574
 96  2 17 17 53 29.9990000  0  6 29 19 18 22 28 14
  20352040.105    -3391921.61549  -2645288.76349  20352045.7994   20352051.0474
  22215485.411   -12029715.94649  -9368777.03949  22215490.2804   22215497.3054
  20756365.804   -10708193.86549  -8338961.10849  20756369.5054   20756375.4504
  22230104.967     4938502.10649   3701590.97549  22230109.8664   22230114.5404
  24188987.358    -8481269.620 9  -6581193.412 9  24188993.719    24189000.936
  21866266.045     7212014.75149   5601920.98649  21866270.0974   21866277.5164
 96  2 17 17 53 59.9990000  0  6 29 19 18 22 28 14
  20346045.592    -3423434.12149  -2669843.97649  20346049.4484   20346054.4364
  22195928.968   -12132496.34749  -9448865.62549  22195931.9134   22195939.1394
  20738785.261   -10800582.16049  -8410951.98549  20738788.6264   20738794.6144
  22238243.890     4981277.01849   3734922.08749  22238248.0214   22238255.0384
  24168730.008    -8587736.892 9  -6664154.849 9  24168733.257    24168741.650
  21876864.220     7267700.09449   5645312.11649  21876866.9624   21876873.9704
 96  2 17 17 54 29.9990000  0  6 29 19 18 22 28 14
  20340069.719    -3454835.14149  -2694312.30749  20340073.7914   20340079.0784
  22176361.512   -12235321.32649  -9528988.94949  22176365.2344   22176372.4054
  20721215.242   -10892917.02749  -8482901.22549  20721217.7734   20721223.6824
  22246416.884     5024221.64849   3768385.41549  22246418.9274   22246425.6074
  24148466.083    -8694234.226 9  -6747139.701 9  24148467.834    24148475.382
  21887480.885     7323491.05249   5688785.54949  21887483.4204   21887490.9824
 96  2 17 17 54 59.9990000  0  6 29 19 18 22 28 14
  20334115.525    -3486126.52749  -2718695.21549  20334119.0554   20334124.3484
  22156788.212   -12338185.14549  -9609142.52949  22156790.8084   22156797.5434
  20703649.982   -10985222.16249  -8554827.30049  20703652.6834   20703658.8054
  22254621.371     5067332.54849   3801978.33049  22254624.0224   22254632.4424
  24128193.269    -8800760.080 9  -6830146.788 9  24128196.843    24128203.531
  21898112.738     7379368.89049   5732326.67249  21898116.8324   21898124.1914
 96  2 17 17 55 29.9990000  0  6 29 19 18 22 28 14
  20328182.751    -3517298.88849  -2742985.37049  20328187.2634   20328192.3334
  22137208.784   -12441070.40249  -9689312.82049  22137211.6934   22137219.4584
  20686093.998   -11077477.06649  -8626714.23549  20686097.4224   20686103.2174
  22262858.394     5110617.69749   3835707.00549  22262861.4954   22262865.9404
  24107918.394    -8907308.327 9  -6913171.356 9  24107921.914    24107928.684
  21908759.738     7435312.15949   5775918.78949  21908762.7864   21908769.7284
 96  2 17 17 55 59.9990000  0  6 29 19 18 22 28 14
  20322276.267    -3548349.42549  -2767180.60649  20322278.5874   20322284.0554
  22117630.077   -12543954.31449  -9769482.06849  22117634.0764   22117641.2384
  20668550.336   -11169673.41849  -8698555.54249  20668552.9074   20668558.8644
  22271128.876     5154078.96549   3869572.87049  22271131.4814   22271139.1174
  24087640.963    -9013869.177 9  -6996205.715 9  24087643.052    24087650.200
  21919415.412     7491313.45649   5819556.11649  21919419.2174   21919425.9304
 96  2 17 17 56 29.9990000  0  6 29 19 18 22 28 14
  20316389.972    -3579276.82949  -2791279.88449  20316393.3054   20316398.7584
  22098049.017   -12646854.71449  -9849664.16749  22098052.6714   22098059.4354
  20651017.774   -11261801.57549  -8770343.71449  20651021.6694   20651027.4324
  22279429.668     5197703.44649   3903565.98349  22279432.2164   22279439.8884
  24067362.453    -9120434.261 9  -7079243.367 9  24067364.295    24067372.524
  21930083.359     7547377.41949   5863242.28149  21930087.8534   21930094.9744
 96  2 17 17 56 59.9990000  0  6 29 19 18 22 28 14
  20310530.038    -3610068.69149  -2815273.55149  20310533.9414   20310539.1674
  22078461.784   -12749785.09949  -9929869.63749  22078465.8314   22078472.3734
  20633499.449   -11353862.60449  -8842079.58049  20633502.9714   20633509.0554
  22287755.766     5241465.47849   3937666.25249  22287759.8184   22287766.2664
  24047086.062    -9226999.553 9  -7162281.202 9  24047085.866    24047093.406
  21940767.321     7603523.76549   5906992.64049  21940772.2344   21940778.6354
 96  2 17 17 57 29.9990000  0  6 29 19 18 22 28 14
  20304695.537    -3640732.29349  -2839167.27649  20304698.6384   20304704.0314
  22058868.487   -12852748.42949 -10010100.77149  22058872.2394   22058879.5454
  20615995.487   -11445845.42249  -8913754.50549  20615999.2764   20616005.0824
  22296110.507     5285358.19449   3971868.33549  22296113.4594   22296118.5784
  24026803.627    -9333560.183 9  -7245315.417 9  24026807.687    24026815.184
  21951470.755     7659761.50049   5950814.20949  21951474.3534   21951481.1094
 96  2 17 17 57 59.9990000  0  6 29 19 18 22 28 14
  20298884.283    -3671271.61549  -2862964.15449  20298887.0334   20298892.5764
  22039266.749   -12955753.49949 -10090364.42949  22039270.8834   22039278.4274
  20598502.990   -11537775.59849  -8985388.41549  20598505.6534   20598511.2334
  22304489.146     5329384.24149   4006174.33449  22304491.0614   22304498.0194
  24006528.892    -9440112.953 9  -7328343.501 9  24006531.028    24006538.816
  21962189.274     7716092.26349   5994708.27149  21962193.1764   21962200.4504
 96  2 17 17 58 29.9990000  0  6 29 19 18 22 28 14
  20293097.659    -3701671.46149  -2886652.35149  20293102.3504   20293107.8914
  22019663.011   -13058783.93349 -10170647.85049  22019665.3804   22019672.1274
  20581018.674   -11629654.37449  -9056982.27549  20581021.7064   20581027.3014
  22312891.265     5373551.03249   4040589.95649  22312895.3324   22312900.6444
  23986252.412    -9546645.723 9  -7411356.003 9  23986259.446    23986266.593
  21972929.605     7772525.30649   6038682.02849  21972932.7194   21972939.2204
 96  2 17 17 58 59.9990000  0  6 29 19 18 22 28 14
  20287344.174    -3731911.30349  -2910215.87349  20287347.9444   20287353.1004
  22000058.325   -13161799.33049 -10250919.54949  22000061.8524   22000068.7114
  20563547.142   -11721470.73349  -9128527.49249  20563549.6694   20563555.7084
  22321327.997     5417879.85549   4075131.90849  22321330.0044   22321339.7654
  23965991.567    -9653141.875 9  -7494339.973 9  23965992.928    23966000.864
  21983687.483     7829071.80349   6082744.18749  21983693.1794   21983700.1874
 96  2 17 17 59 29.9990000  0  6 29 19 18 22 28 14
  20281623.345    -3761983.09249  -2933648.44749  20281625.7864   20281630.6034
  21980459.875   -13264780.23849 -10331164.37549  21980465.1574   21980472.4244
  20546089.372   -11813207.48949  -9200010.68449  20546092.5884   20546098.6064
  22329799.171     5462400.10449   4109822.97649  22329803.4744   22329807.5814
  23945732.403    -9759591.990 9  -7577288.062 9  23945736.463    23945744.071
  21994469.789     7885723.41349   6126888.25749  21994473.5924   21994480.7804
 96  2 17 17 59 59.9990000  0  6 29 19 18 22 28 14
  20275935.423    -3791870.49349  -2956937.33649  20275938.3504   20275943.1964
  21960871.529   -13367730.69549 -10411385.46349  21960874.3684   21960881.9074
  20528649.043   -11904855.41449  -9271424.65149  20528652.7214   20528658.6644
  22338308.992     5507115.55649   4144666.13549  22338312.7194   22338318.5214
  23925485.204    -9865992.793 9  -7660197.730 9  23925488.286    23925496.637
  22005271.654     7942482.07049   6171115.74149  22005274.1454   22005281.1374
 96  2 17 18  0 29.9990000  0  6 29 19 18 22 28 14
  20270280.422    -3821575.10549  -2980083.78949  20270285.7324   20270290.7634
  21941281.242   -13470669.18349 -10491597.22949  21941285.5954   21941292.8654
  20511228.840   -11996403.42949  -9342760.76849  20511231.8024   20511237.5484
  22346849.023     5551997.46149   4179639.00549  22346852.8044   22346859.2154
  23905243.088    -9972355.200 9  -7743077.472 9  23905249.120    23905256.257
  22016088.500     7999333.14149   6215415.22349  22016092.5764   22016100.3534
 96  2 17 18  0 59.9990000  0  6 29 19 18 22 28 14
  20264666.720    -3851084.08749  -3003077.80749  20264670.1714   20264675.7144
  21921693.355   -13573601.42849 -10571804.12749  21921697.9704   21921704.8094
  20493832.306   -12087826.20649  -9413999.29749  20493834.4534   20493840.3004
  22355425.742     5597056.75549   4214750.13949  22355426.8184   22355432.4984
  23885017.978   -10078662.986 9  -7825914.679 9  23885020.021    23885027.055
  22026927.548     8056286.66649   6259794.54649  22026930.6354   22026937.6994
 96  2 17 18  1 29.9990000  0  6 29 19 18 22 28 14
  20259086.903    -3880406.21249  -3025926.22349  20259090.3764   20259095.7444
  21902104.425   -13676547.82349 -10652022.06549  21902108.2524   21902115.2354
  20476457.465   -12179125.38649  -9485141.51149  20476460.9544   20476466.8264
  22364028.199     5642273.67949   4249984.08449  22364031.2664   22364039.7254
  23864792.783   -10184916.675 9  -7908709.702 9  23864799.158    23864807.397
  22037782.396     8113326.76849   6304241.33249  22037784.4354   22037791.9084
 96  2 17 18  1 59.9990000  0  6 29 19 18 22 28 14
  20253538.796    -3909553.68949  -3048638.54649  20253543.9914   20253549.2174
  21882513.202   -13779505.87449 -10732249.06849  21882516.0954   21882522.7264
  20459106.318   -12270300.06949  -9556186.71049  20459110.9204   20459116.6614
  22372659.089     5687616.11149   4285315.81549  22372660.9964   22372667.4634
  23844588.404   -10291108.732 9  -7991456.731 9  23844591.805    23844599.767
  22048652.164     8170453.38449   6348755.53849  22048655.8664   22048662.6214
 96  2 17 18  2 29.9990000  0  6 29 19 18 22 28 14
  20248020.121    -3938555.14549  -3071237.08449  20248025.0444   20248030.2494
  21862913.361   -13882492.91749 -10812498.67849  21862918.5344   21862924.6104
  20441775.298   -12361383.88749  -9627161.10949  20441778.2484   20441784.1644
  22381305.404     5733057.12549   4320724.37249  22381307.5144   22381313.3184
  23824387.771   -10397255.961 9  -8074168.819 9  23824392.831    23824400.294
  22059533.920     8227637.08949   6393314.23249  22059537.6724   22059544.9134
 96  2 17 18  2 59.9990000  0  6 29 19 18 22 28 14
  20242534.905    -3967392.87049  -3093708.04149  20242537.4404   20242542.7024
  21843318.778   -13985468.49849 -10892739.34449  21843322.4284   21843329.2394
  20424463.822   -12452355.04749  -9698047.71749  20424466.7214   20424472.8424
  22389976.387     5778626.89649   4356233.25849  22389979.2274   22389985.9114
  23804205.177   -10503326.054 9  -8156820.816 9  23804208.025    23804215.990
  22070431.377     8284905.93549   6437939.26349  22070435.4544   22070442.5894
 96  2 17 18  3 29.9990000  0  7 29 19 18 22 28 14 31
  20237079.865    -3996058.02149  -3116044.52949  20237082.4874   20237087.9084
  21823728.531   -14088408.24649 -10972952.09849  21823734.0724   21823741.0684
  20407178.162   -12543194.59549  -9768831.77649  20407180.7854   20407186.8764
  22398672.057     5824326.60549   4391843.40149  22398675.3124   22398682.8724
  23784040.139   -10609306.182 9  -8239402.720 9  23784041.872    23784048.533
  22081348.051     8342270.35449   6482638.75849  22081351.2004   22081358.4574
  24237378.834    -7995395.29159  -5952224.47359  24237378.3394   24237390.7494
 96  2 17 18  3 59.9990000  0  7 29 19 18 22 28 14 31
  20231654.174    -4024556.40749  -3138251.06349  20231659.3394   20231664.7304
  21804146.879   -14191316.98249 -11053140.68049  21804150.4914   21804157.8834
  20389915.682   -12633904.11549  -9839514.51249  20389919.2164   20389925.3224
  22407393.448     5870154.77249   4427553.63749  22407395.8904   22407402.8874
  23763885.384   -10715201.857 9  -8321918.800 9  23763888.478    23763896.439
  22092283.519     8399733.42249   6527415.13549  22092286.4584   22092293.3944
  24212297.812    -8127196.65349  -6054926.61949  24212300.6614   24212310.2994
 96  2 17 18  4 29.9990000  0  7 29 19 18 22 28 14 31
  20226267.660    -4052868.99249  -3160312.82249  20226271.8564   20226277.1014
  21784568.469   -14294195.07049 -11133305.39349  21784573.6764   21784580.3934
  20372680.371   -12724472.61249  -9910087.35649  20372684.6594   20372690.5314
  22416141.693     5916132.11849   4463380.15249  22416145.5694   22416151.9104
  23743752.565   -10821009.965 9  -8404366.682 9  23743755.744    23743762.764
  22103234.294     8457288.94449   6572263.54249  22103239.2234   22103245.8754
  24187178.338    -8259202.51449  -6157788.17249  24187178.7294   24187189.3104
 96  2 17 18  4 59.9990000  0  7 29 19 18 22 28 14 31
  20220916.090    -4080988.48449  -3182224.11649  20220920.9334   20220926.1764
  21765000.672   -14397029.30349 -11213435.92349  21765004.7414   21765011.8744
  20355480.155   -12814871.78249  -9980528.25449  20355482.4654   20355488.3834
  22424920.695     5962262.51949   4499325.87649  22424923.4734   22424930.6584
  23723636.756   -10926719.508 9  -8486737.697 9  23723639.392    23723646.472
  22114206.765     8514942.64749   6617188.46149  22114210.2224   22114216.8924
  24162018.792    -8391414.19649  -6260810.09749  24162019.5834   24162029.1374
 96  2 17 18  5 29.9990000  0  8 29 27 19 18 22 28 14 31
  20215605.974    -4108898.23749  -3203971.97949  20215609.7514   20215615.0824
  24660222.472    -6472378.22559  -4754709.45759  24660225.5794   24660235.0554
  21745440.724   -14499820.41749 -11293532.86249  21745444.4474   21745451.5014
  20338309.600   -12905097.34349 -10050833.88249  20338312.9014   20338318.5194
  22433730.466     6008557.44249   4535399.88949  22433734.1794   22433741.1224
  23703538.065   -11032316.469 9  -8569021.038 9  23703545.457    23703551.778
  22125199.561     8572702.85749   6662196.36349  22125202.1344   22125208.2844
  24136825.927    -8523812.15949  -6363977.21549  24136825.3694   24136834.0964
 96  2 17 18  5 59.9980000  0  8 29 27 19 18 22 28 14 31
  20210337.447    -4136589.85049  -3225549.86849  20210340.3734   20210345.4434
  24636470.341    -6597186.77549  -4851962.80349  24636476.1874   24636484.7374
  21725888.471   -14602563.67749 -11373592.51349  21725892.8194   21725900.6944
  20321171.341   -12995161.10449 -10121013.42549  20321174.4504   20321180.2764
  22442574.157     6055028.59649   4571611.11349  22442577.6964   22442583.7074
  23683465.694   -11137791.320 9  -8651209.205 9  23683473.036    23683481.295
  22136208.230     8630563.06149   6707282.19249  22136211.5564   22136218.8724
  24111597.015    -8656377.94849  -6467275.10949  24111598.9664   24111604.8224
 96  2 17 18  6 29.9980000  0  8 29 27 19 18 22 28 14 31
  20205104.914    -4164065.00849  -3246959.08649  20205111.8924   20205117.0544
  24612706.786    -6722058.79449  -4949265.61349  24612712.3694   24612721.7524
  21706346.902   -14705257.23649 -11453613.43849  21706351.4034   21706358.1664
  20304060.869   -13085073.53649 -10191075.05149  20304064.6974   20304070.5724
  22451451.781     6101680.66749   4607963.40249  22451453.9704   22451460.8434
  23663421.355   -11243144.633 9  -8733302.652 9  23663425.451    23663432.866
  22147240.420     8688532.52649   6752453.15949  22147243.3854   22147249.5004
  24086340.349    -8789111.32549  -6570703.61949  24086341.3584   24086349.0674
 96  2 17 18  6 59.9980000  0  8 29 27 19 18 22 28 14 31
  20199921.608    -4191320.14849  -3268196.86349  20199925.2324   20199930.9084
  24588937.924    -6846980.08649  -5046606.81049  24588942.0644   24588949.1654
  21686815.644   -14807899.65849 -11533594.51649  21686818.7814   21686825.7094
  20286979.738   -13174841.43949 -10261024.05949  20286982.6114   20286988.0914
  22460362.069     6148506.45949   4644451.00949  22460365.6124   22460371.2804
  23643400.365   -11348368.836 9  -8815295.499 9  23643401.803    23643409.166
  22158293.137     8746617.56249   6797714.18749  22158296.1834   22158303.2484
  24061050.899    -8922002.15549  -6674254.83149  24061053.4264   24061061.4464
 96  2 17 18  7 29.9980000  0  8 29 27 19 18 22 28 14 31
  20194778.443    -4218343.25449  -3289253.83649  20194783.1014   20194788.5334
  24565156.130    -6971959.82749  -5143993.54849  24565158.9574   24565168.3064
  21667291.874   -14910495.61849 -11613539.38849  21667295.7394   21667302.7424
  20269926.665   -13264455.33449 -10330853.05749  20269929.3754   20269935.1634
  22469307.572     6195515.72149   4681081.61549  22469311.6584   22469317.8654
  23623406.624   -11453454.803 9  -8897180.610 9  23623404.913    23623412.784
  22169371.799     8804827.89649   6843072.83949  22169373.1804   22169381.0564
  24035733.855    -9055035.80549  -6777917.31649  24035738.6204   24035745.1904
 96  2 17 18  7 59.9980000  0  8 29 27 19 18 22 28 14 31
  20189682.902    -4245122.43449  -3310120.74349  20189687.3534   20189692.5094
  24541360.076    -7097001.86049  -5241428.82649  24541364.3194   24541372.2574
  21647780.017   -15013029.56449 -11693435.94749  21647783.9834   21647791.0754
  20252907.970   -13353886.49049 -10400539.67049  20252911.3164   20252917.1534
  22478285.274     6242704.24749   4717851.83649  22478291.5874   22478297.1184
  23603433.775   -11558396.955 9  -8978953.693 9  23603434.478    23603442.193
  22180472.044     8863169.00849   6888533.39849  22180475.8414   22180482.0474
  24010393.719    -9188209.38249  -6881688.88349  24010394.5444   24010403.0814
 96  2 17 18  8 29.9980000  0  8 29 27 19 18 22 28 14 31
  20184636.697    -4271646.00649  -3330788.47549  20184640.1764   20184645.3714
  24517553.884    -7222104.51449  -5338911.32949  24517556.5884   24517565.5004
  21628279.151   -15115508.96249 -11773289.99249  21628282.1064   21628290.3924
  20235929.453   -13443110.53849 -10470064.89449  20235932.4454   20235938.4514
  22487300.177     6290064.61149   4754756.03249  22487302.5784   22487310.3184
  23583487.575   -11663186.897 9  -9060608.151 9  23583493.976    23583501.390
  22191601.206     8921643.43249   6934097.83549  22191602.8744   22191609.5034
  23985026.969    -9321514.31349  -6985562.81049  23985028.5434   23985036.3874
 96  2 17 18  8 59.9980000  0  8 29 27 19 18 22 28 14 31
  20179641.480    -4297896.17249  -3351243.15849  20179644.7494   20179650.1544
  24493732.468    -7347278.03949  -5436449.08849  24493737.0074   24493745.7194
  21608788.375   -15217929.98149 -11853098.55249  21608793.3384   21608799.8214
  20218991.671   -13532117.12949 -10539420.67049  20218994.9474   20219000.7844
  22496345.100     6337597.49449   4791794.58849  22496348.0894   22496352.3904
  23563580.085   -11767818.825 9  -9142139.494 9  23563583.702    23563590.972
  22202748.198     8980230.63049   6979750.14849  22202751.8324   22202758.8744
  23959628.021    -9454937.83149  -7089529.14349  23959637.5094   23959647.1584
 96  2 17 18  9 29.9980000  0  8 29 27 19 18 22 28 14 31
  20174693.716    -4323885.22449  -3371494.37749  20174699.2564   20174704.5904
  24469898.034    -7472539.73449  -5534055.53549  24469901.7184   24469909.7774
  21589312.815   -15320280.07549 -11932851.83749  21589316.3894   21589323.1494
  20202095.428   -13620905.92749 -10608606.73549  20202099.3424   20202104.9374
  22505424.036     6385309.01749   4828972.39049  22505426.5684   22505433.9444
  23543694.118   -11872289.304 9  -9223545.013 9  23543703.935    23543710.528
  22213916.644     9038919.99449   7025482.06649  22213919.6814   22213927.2124
  23934223.416    -9588474.58449  -7193583.73049  23934227.8364   23934235.2484
 96  2 17 18  9 59.9980000  0  8 29 27 19 18 22 28 14 31
  20169797.332    -4349623.81449  -3391550.42949  20169801.2084   20169806.6504
  24446046.674    -7597883.30649  -5631725.75349  24446049.7164   24446057.3574
  21569851.281   -15422548.32049 -12012541.34649  21569854.9144   21569861.9414
  20185237.196   -13709505.69449 -10677645.50449  20185239.2824   20185244.7684
  22514536.526     6433197.39749   4866287.98049  22514540.0304   22514546.1874
  23523849.446   -11976596.484 9  -9304823.294 9  23523854.478    23523861.390
  22225098.530     9097684.40749   7071272.46149  22225103.1424   22225109.5764
  23908791.168    -9722130.51649  -7297731.15449  23908793.0854   23908801.0934
 96  2 17 18 10 29.9980000  0  8 29 27 19 18 22 28 14 31
  20164944.091    -4375127.69749  -3411423.59349  20164948.2754   20164953.6594
  24422177.433    -7723305.12249  -5729456.95149  24422181.9034   24422190.8744
  21550405.317   -15524737.16249 -12092168.98949  21550409.1684   21550416.3384
  20168406.394   -13797941.88049 -10746556.80949  20168410.5204   20168416.1354
  22523684.709     6481267.34649   4903745.06249  22523686.5304   22523694.2704
  23504036.431   -12080736.793 9  -9385971.558 9  23504037.131    23504043.790
  22236289.545     9156505.25849   7117106.82449  22236295.6844   22236302.9874
  23883331.168    -9855904.44349  -7401970.52949  23883338.0304   23883346.3364
 96  2 17 18 10 59.9980000  0  8 29 27 19 18 22 28 14 31
  20160133.192    -4400410.39249  -3431124.40849  20160137.1704   20160142.4454
  24398296.438    -7848802.73049  -5827247.22749  24398300.1134   24398307.6234
  21530976.752   -15626839.59349 -12171729.29449  21530980.2084   21530985.9944
  20151607.915   -13886223.49549 -10815347.67049  20151610.8164   20151616.4444
  22532865.850     6529515.59849   4941341.05949  22532868.5934   22532873.7574
  23484252.181   -12184707.718 9  -9466987.811 9  23484252.212    23484259.174
  22247495.942     9215383.64249   7162986.03149  22247499.2984   22247507.3484
  23857855.487    -9989795.22549  -7506300.95049  23857856.9414   23857865.7624
 96  2 17 18 11 29.9980000  0  8 29 27 19 18 22 28 14 31
  20155363.771    -4425470.04149  -3450651.42449  20155368.5154   20155373.8444
  24374406.960    -7974354.75249  -5925079.90249  24374408.0514   24374417.8544
  21511562.586   -15728857.57849 -12251223.79749  21511566.3824   21511572.6064
  20134839.537   -13974332.13249 -10884003.73949  20134844.2604   20134850.2984
  22542080.008     6577936.36649   4979071.52649  22542083.3834   22542089.3344
  23464498.839   -12288494.717 9  -9547860.775 9  23464501.843    23464508.751
  22258715.972     9274348.64149   7208932.71949  22258720.2324   22258727.6894
  23832352.618   -10123801.64749  -7610721.48349  23832358.1374   23832365.6964
 96  2 17 18 11 59.9980000  0  8 29 27 19 18 22 28 14 31
  20150644.064    -4450285.68449  -3469988.29749  20150646.1214   20150651.4764
  24350503.444    -8099954.50449  -6022949.77649  24350507.5714   24350515.8324
  21492162.680   -15830806.95249 -12330664.83149  21492166.0704   21492172.7444
  20118111.308   -14062246.61749 -10952508.52349  20118114.7794   20118120.6874
  22551321.799     6626507.83949   5016919.38049  22551325.0344   22551332.8974
  23444783.277   -12392092.527 9  -9628586.297 9  23444787.905    23444795.237
  22269956.442     9333414.35949   7254957.90549  22269960.5764   22269968.2824
  23806830.844   -10257914.66449  -7715225.04749  23806837.4264   23806844.3604
 96  2 17 18 12 29.9980000  0  8 29 27 19 18 22 28 14 31
  20145970.253    -4474843.49149  -3489124.26049  20145973.1134   20145978.3284
  24326591.968    -8225609.13649  -6120862.40049  24326596.3024   24326603.0864
  21472771.975   -15932700.26049 -12410062.18949  21472776.5974   21472782.7274
  20101426.188   -14149934.72449 -11020836.90649  20101428.3284   20101434.0424
  22560592.887     6675216.04849   5054873.83949  22560595.7664   22560600.4504
  23425108.520   -12495497.137 9  -9709161.278 9  23425111.268    23425117.800
  22281219.781     9392604.45449   7301079.99049  22281224.6834   22281231.3274
  23781297.823   -10392119.02449  -7819799.75949  23781298.3944   23781306.3254
 96  2 17 18 12 59.9980000  0  8 29 27 19 18 22 28 14 31
  20141347.879    -4499128.53349  -3508047.67849  20141351.4324   20141357.0984
  24302672.705    -8351314.92549  -6218814.87749  24302676.3244   24302684.1444
  21453393.229   -16034539.05349 -12489417.06549  21453397.4034   21453403.7944
  20084785.463   -14237375.62549 -11088972.66349  20084788.7744   20084794.6714
  22569884.699     6724053.71149   5092929.11149  22569888.6674   22569894.3024
  23405469.421   -12598707.349 9  -9789584.773 9  23405471.220    23405477.952
  22292510.193     9451926.31749   7347304.74549  22292513.0274   22292520.7344
  23755742.420   -10526406.58949  -7924439.29749  23755743.3864   23755751.8104
 96  2 17 18 13 29.9980000  0  8 29 27 19 18 22 28 14 31
  20136779.786    -4523133.76949  -3526753.06749  20136783.5174   20136788.8434
  24278741.404    -8477073.84649  -6316808.80349  24278746.0034   24278750.1774
  21434026.075   -16136314.08549 -12568722.26249  21434030.2184   21434036.4324
  20068193.273   -14324567.05249 -11156914.02149  20068196.6524   20068202.8374
  22579206.394     6773032.59549   5131094.50249  22579209.3144   22579215.7964
  23385863.494   -12701722.091 9  -9869855.959 9  23385867.499    23385874.536
  22303820.339     9511370.27449   7393624.65149  22303825.2454   22303832.0364
  23730173.607   -10660775.77549  -8029142.43649  23730174.3014   23730184.6904
 96  2 17 18 13 59.9980000  0  8 29 27 19 18 22 28 14 31
  20132264.830    -4546864.34849  -3545244.43449  20132267.8424   20132273.0294
  24254798.972    -8602888.90249  -6414846.43849  24254801.4784   24254810.7954
  21414674.035   -16238009.58649 -12647965.47749  21414677.8654   21414684.1964
  20051648.378   -14411514.35749 -11224665.15649  20051651.2284   20051657.2234
  22588557.935     6822179.06949   5169390.40149  22588560.8644   22588567.9944
  23366300.656   -12804536.481 9  -9949971.032 9  23366302.714    23366309.860
  22315151.779     9570915.36049   7440023.35549  22315155.9114   22315163.5224
  23704590.764   -10795208.56649  -8133895.11349  23704593.2304   23704600.4374
 96  2 17 18 14 29.9980000  0  8 29 27 19 18 22 28 14 31
  20127794.977    -4570348.19549  -3563543.54249  20127798.9014   20127804.3484
  24230847.275    -8728758.68149  -6512926.70249  24230850.2124   24230856.6584
  21395337.628   -16339622.15249 -12727144.07249  21395341.3104   21395348.0744
  20035144.222   -14498246.70349 -11292248.79149  20035146.7654   20035152.5304
  22597944.093     6871499.68649   5207822.06749  22597946.6054   22597951.3054
  23346772.824   -12907155.197 9 -10029933.632 9  23346775.392    23346782.117
  22326499.276     9630540.44549   7486484.39649  22326502.1394   22326509.7834
  23678994.989   -10929714.95849  -8238705.14049  23678997.2734   23679006.3934
 96  2 17 18 14 59.9980000  0  8 29 27 19 18 22 28 14 31
  20123369.946    -4593579.88949  -3581646.16349  20123378.0164   20123383.5384
  24206886.191    -8854677.92849  -6611045.54649  24206887.9504   24206895.6064
  21376020.830   -16441137.65849 -12806247.04349  21376023.8304   21376030.0814
  20018675.994   -14584779.24349 -11359676.73649  20018680.3334   20018685.9124
  22607363.118     6921004.11649   5246396.92949  22607367.1204   22607374.1004
  23327284.841   -13009570.826 9 -10109737.994 9  23327285.985    23327292.460
  22337861.658     9690247.97249   7533009.67249  22337863.9784   22337871.5574
  23653382.087   -11064297.33349  -8343574.36149  23653387.4564   23653395.0964
 96  2 17 18 15 29.9980000  0  8 29 27 19 18 22 28 14 31
  20118999.745    -4616565.08549  -3599556.70849  20119004.0384   20119009.6114
  24182911.056    -8980654.74049  -6709209.24849  24182914.8854   24182922.3174
  21356719.265   -16542558.91349 -12885276.55949  21356723.7804   21356730.3704
  20002247.921   -14671113.31049 -11426950.02349  20002251.2414   20002257.0694
  22616818.816     6970682.14349   5285107.08249  22616820.3924   22616826.6934
  23307831.155   -13111775.455 9 -10189377.945 9  23307836.734    23307843.912
  22349237.913     9750037.10349   7579598.53749  22349242.1544   22349248.9324
  23627756.266   -11198960.34049  -8448506.42749  23627761.1214   23627767.9114
 96  2 17 18 15 59.9980000  0  8 29 27 19 18 22 28 14 31
  20114675.170    -4639293.99349  -3617267.54949  20114678.9184   20114684.3764
  24158931.720    -9106679.96349  -6807410.61949  24158934.9464   24158942.7654
  21337436.914   -16643894.82449 -12964239.58149  21337440.2564   21337446.2504
  19985859.171   -14757238.16749 -11494060.29449  19985862.5404   19985868.1614
  22626299.194     7020508.21349   5323932.59849  22626301.9454   22626309.1114
  23288425.223   -13213761.448 9 -10268847.523 9  23288429.247    23288436.323
  22360634.057     9809917.11749   7626258.21449  22360636.7084   22360643.5914
  23602116.293   -11333701.00349  -8553498.98149  23602121.3944   23602128.2954
 96  2 17 18 16 29.9980000  0  8 29 27 19 18 22 28 14 31
  20110403.776    -4661738.60049  -3634756.85449  20110407.9994   20110413.3674
  24134936.995    -9232744.95249  -6905643.03449  24134943.0004   24134950.7204
  21318170.043   -16745137.82949 -13043130.20149  21318174.1674   21318181.0744
  19969513.607   -14843134.45349 -11560992.45449  19969516.7054   19969522.2954
  22635805.301     7070465.64249   5362860.44649  22635808.7304   22635815.3584
  23269063.154   -13315516.385 9 -10348137.072 9  23269066.054    23269073.328
  22372049.254     9869907.86449   7673004.17749  22372052.2964   22372059.0504
  23576466.054   -11468503.62549  -8658539.85749  23576467.4374   23576474.5124
 96  2 17 18 16 59.9980000  0  8 29 27 19 18 22 28 14 31
  20106188.122    -4683885.28649  -3652014.01749  20106193.5794   20106199.2624
  24110944.801    -9358851.90449  -7003908.10049  24110947.7714   24110956.8654
  21298924.466   -16846282.50849 -13121944.20649  21298927.7944   21298934.4194
  19953217.729   -14928768.53649 -11627720.30349  19953221.1534   19953226.7394
  22645336.706     7120550.87449   5401887.87649  22645338.3454   22645345.8594
  23249745.244   -13417033.745 9 -10427241.492 9  23249747.646    23249754.648
  22383485.734     9930000.95749   7719829.89549  22383487.6704   22383494.9264
  23550804.473   -11603355.18249  -8763618.86149  23550808.2174   23550815.2534
 96  2 17 18 17 29.9980000  0  8 29 27 19 18 22 28 14 31
  20102029.968    -4705741.65249  -3669044.95749  20102034.4924   20102040.0924
  24086940.300    -9484994.81849  -7102201.19249  24086943.3234   24086951.4834
  21279694.516   -16947331.20949 -13200683.41649  21279698.3804   21279705.0854
  19936976.824   -15014118.00249 -11694226.36749  19936979.3874   19936985.4514
  22654891.635     7170757.49349   5441009.89949  22654893.0954   22654900.2474
  23230470.856   -13518312.225 9 -10506159.770 9  23230475.224    23230481.737
  22394935.257     9990177.09449   7766720.32949  22394939.2664   22394946.7214
  23525133.446   -11738240.61349  -8868724.26649  23525140.2794   23525145.5124
 96  2 17 18 17 59.9980000  0  8 29 27 19 18 22 28 14 31
  20097928.994    -4727300.72049  -3685844.23349  20097931.9664   20097937.3534
  24062932.639    -9611156.18649  -7200508.68249  24062934.9714   24062945.0824
  21260485.270   -17048276.97349 -13279342.42749  21260488.9074   21260495.8594
  19920791.175   -15099172.77649 -11760502.80249  19920794.1074   19920799.6184
  22664471.261     7221103.40749   5480240.44449  22664474.3134   22664479.8864
  23211247.487   -13619347.206 9 -10584888.298 9  23211249.042    23211255.366
  22406401.617    10050438.18049   7813676.95349  22406406.4814   22406413.1784
  23499462.550   -11873140.94849  -8973841.29749  23499470.1314   23499476.5264
 96  2 17 18 18 29.9980000  0  8 29 27 19 18 22 28 14 31
  20093882.430    -4748566.41949  -3702414.91749  20093885.0144   20093890.4294
  24038921.816    -9737331.45149  -7298826.98049  24038924.9334   24038933.7864
  21241296.991   -17149110.01049 -13357913.59349  21241300.9744   21241307.5724
  19904664.831   -15183917.49349 -11826537.63549  19904667.5654   19904673.1444
  22674083.856     7271617.78849   5519602.28349  22674086.2084   22674092.6844
  23192068.210   -13720124.817 9 -10663416.295 9  23192071.673    23192077.870
  22417887.535    10110784.36849   7860699.88949  22417890.1504   22417896.9634
  23473795.673   -12008036.82549  -9078954.87949  23473799.4314   23473808.2874
 96  2 17 18 18 59.9980000  0  8 29 27 19 18 22 28 14 31
  20089889.692    -4769546.11549  -3718762.73749  20089892.8794   20089898.3354
  24014909.769    -9863515.01849  -7397151.75949  24014912.9464   24014920.6334
  21222130.596   -17249833.76349 -13436399.60149  21222133.8334   21222140.2364
  19888597.117   -15268350.95949 -11892329.93449  19888600.7594   19888606.3884
  22683727.402     7322305.41349   5559099.09949  22683731.4444   22683738.4774
  23172939.048   -13820644.429 9 -10741743.230 9  23172943.270    23172950.581
  22429385.551    10171209.23749   7907784.13349  22429388.1264   22429396.1844
  23448123.058   -12142943.97949  -9184077.23949  23448125.8204   23448134.6764
 96  2 17 18 19 29.9980000  0  8 29 27 19 18 22 28 14 31
  20085952.115    -4790230.37849  -3734880.34749  20085956.9604   20085962.2134
  23990895.863    -9989700.99649  -7495478.41949  23990900.5694   23990908.3494
  21202985.732   -17350441.79549 -13514795.43449  21202988.6344   21202995.3094
  19872585.320   -15352491.70649 -11957894.14349  19872589.3484   19872594.9284
  22693408.512     7373171.17349   5598734.72149  22693411.2974   22693417.7774
  23153862.563   -13920898.691 9 -10819863.417 9  23153865.526    23153872.194
  22440900.522    10231733.13049   7954945.54849  22440905.9634   22440913.1744
  23422451.077   -12277860.79649  -9289207.16649  23422453.3454   23422463.2964
 96  2 17 18 19 59.9980000  0  8 29 27 19 18 22 28 14 31
  20082074.869    -4810609.91449  -3750760.50849  20082078.5884   20082084.0504
  23966883.027   -10115898.09849  -7593813.75449  23966886.2974   23966893.7434
  21183862.491   -17450930.81349 -13593098.53249  21183866.2704   21183872.8824
  19856629.941   -15436345.93049 -12023235.08949  19856632.3524   19856637.9404
  22703122.109     7424220.70749   5638513.54749  22703125.4564   22703132.7034
  23134836.144   -14020881.436 9 -10897772.028 9  23134839.752    23134846.243
  22452438.942    10292365.80649   8002191.72049  22452443.8254   22452451.2404
  23396766.173   -12412789.80149  -9394346.59349  23396776.0034   23396784.5224
 96  2 17 18 20 29.9980000  0  8 29 27 19 18 22 28 14 31
  20078258.236    -4830670.53449  -3766392.16649  20078261.6414   20078266.6044
  23942863.479   -10242118.70049  -7692167.38849  23942866.7334   23942874.9004
  21164764.257   -17551291.08149 -13671301.29149  21164768.5524   21164775.0094
  19840725.471   -15519921.22249 -12088358.68449  19840728.5114   19840734.1314
  22712870.642     7475444.16849   5678427.89649  22712873.3064   22712880.3904
  23115865.378   -14120583.183 9 -10975461.673 9  23115867.308    23115873.968
  22464000.396    10353115.50449   8049529.07749  22464004.1384   22464011.2324
  23371094.896   -12547724.79449  -9499490.69349  23371097.5734   23371106.5584
 96  2 17 18 20 59.9980000  0  8 29 27 19 18 22 28 14 31
  20074503.230    -4850395.57849  -3781762.34049  20074508.2154   20074513.1514
  23918837.129   -10368367.67949  -7790543.14849  23918842.2354   23918849.6774
  21145693.110   -17651512.08149 -13749395.53249  21145697.1534   21145703.3854
  19824871.101   -15603230.81049 -12153275.23849  19824875.0294   19824880.9724
  22722648.667     7526824.39349   5718464.41349  22722650.1614   22722657.3264
  23096943.789   -14220001.044 9 -11052930.096 9  23096948.518    23096955.226
  22475585.154    10413989.48749   8096963.28049  22475588.2204   22475596.4014
  23345416.497   -12682660.68449  -9604635.49549  23345420.7774   23345428.7094
 96  2 17 18 21 29.9980000  0  8 29 27 19 18 22 28 14 31
  20070813.507    -4869796.02649  -3796879.58149  20070816.2034   20070821.6734
  23894806.464   -10494657.00349  -7888950.36349  23894810.8654   23894817.4764
  21126645.784   -17751606.34449 -13827391.01349  21126649.4254   21126655.8664
  19809066.365   -15686290.74349 -12217997.25449  19809069.2954   19809075.0824
  22732450.467     7578344.73549   5758610.10049  22732453.2084   22732461.8524
  23078081.219   -14319138.656 9 -11130180.167 9  23078082.986    23078089.837
  22487190.695    10474981.30449   8144489.30249  22487194.6464   22487202.7554
  23319742.486   -12817586.48849  -9709772.43349  23319744.6974   23319753.2574
 96  2 17 18 21 59.9980000  0  8 29 27 19 18 22 28 14 31
  20067179.587    -4888883.96949  -3811753.31249  20067183.5714   20067189.1254
  23870764.892   -10620983.38249  -7987386.42749  23870769.6204   23870779.5374
  21107619.389   -17851590.96349 -13905301.06749  21107622.9024   21107629.4714
  19793308.628   -15769097.03849 -12282521.63449  19793311.7294   19793317.6984
  22742279.736     7629989.51749   5798852.74749  22742281.6324   22742289.1414
  23059267.795   -14417999.245 9 -11207214.359 9  23059270.194    23059276.882
  22498815.841    10536067.41049   8192088.77949  22498818.2124   22498827.3794
  23294067.420   -12952505.09849  -9814903.78849  23294070.3064   23294078.6244
 96  2 17 18 22 29.9980000  0  8 29 27 19 18 22 28 14 31
  20063604.136    -4907671.38449  -3826392.86749  20063608.3864   20063613.8504
  23846726.365   -10747327.41549  -8085836.25949  23846729.1744   23846737.3624
  21088614.737   -17951461.65949 -13983122.34049  21088617.8744   21088624.8604
  19777599.428   -15851646.77249 -12346846.09149  19777603.0434   19777609.2384
  22752127.468     7681750.59049   5839186.02649  22752131.9414   22752139.1524
  23040508.967   -14516580.094 9 -11284030.588 9  23040511.067    23040517.956
  22510454.047    10597238.19349   8239754.24949  22510459.2504   22510467.0994
  23268397.498   -13087413.46549  -9920027.15249  23268399.2054   23268406.3144
 96  2 17 18 22 59.9980000  0  8 29 27 19 18 22 28 14 31
  20060087.242    -4926153.41049  -3840794.45949  20060091.5314   20060097.1244
  23822686.104   -10873649.07049  -8184268.63749  23822688.9774   23822699.1754
  21069633.835   -18051204.02749 -14060843.62849  21069637.9374   21069644.4444
  19761947.374   -15933901.21649 -12410940.45749  19761950.5034   19761956.4394
  22762004.509     7733650.21649   5879627.27849  22762008.5814   22762014.3214
  23021803.991   -14614863.851 9 -11360615.309 9  23021808.477    23021815.680
  22522109.374    10658488.32049   8287481.54549  22522114.7474   22522122.3714
  23242728.836   -13222296.61349 -10025130.87249  23242731.1414   23242739.3794
 96  2 17 18 23 29.9970000  0  8 29 27 19 18 22 28 14 31
  20056625.749    -4944342.29849  -3854967.62949  20056630.5554   20056635.8454
  23798653.511   -10999935.78349  -8282673.79849  23798658.3504   23798665.8474
  21050676.347   -18150829.55249 -14138473.87249  21050680.2184   21050686.3134
  19746354.612   -16015837.67249 -12474787.03449  19746358.6464   19746364.5054
  22771910.570     7785700.12349   5920185.61949  22771913.6364   22771920.3244
  23003162.304   -14712846.988 9 -11436965.793 9  23003162.202    23003169.569
  22533776.823    10719795.78849   8335253.50449  22533780.8464   22533789.6664
  23217064.901   -13357150.94949 -10130212.14349  23217070.6654   23217077.5694
 96  2 17 18 23 59.9970000  0  8 29 27 19 18 22 28 14 31
  20053222.636    -4962227.94149  -3868904.51849  20053226.9474   20053232.3174
  23774629.323   -11126189.21849  -8381053.03349  23774633.1514   23774641.4054
  21031741.962   -18250328.87849 -14216005.78449  21031745.4914   21031751.6784
  19730825.732      -47386.91419    -17547.17959                  19730836.2774
  22781848.130     7837922.99849   5960878.76049  22781851.0394   22781857.6014
  22984570.979   -14810524.569 9 -11513078.183 9  22984575.091    22984582.115
  22545455.385    10781160.51549   8383070.08949  22545458.7584   22545467.2174
  23191409.819   -13491975.46049 -10235270.16149  23191414.3234   23191421.3024
 96  2 17 18 24 29.9970000  0  8 29 27 19 18 22 28 14 31
  20049880.018    -4979800.84249  -3882597.70649  20049882.8944   20049888.1834
  23750608.183   -11252417.62949  -8479412.76449  23750613.5664   23750619.4194
  21012833.037   -18349691.48449 -14293431.15949  21012837.2884   21012843.5584
  19715363.312     -128655.03359    -80872.98549  19715365.4734   19715371.1914
  22791819.482     7890323.90149   6001710.67349  22791822.0864   22791827.1944
  22966043.897   -14907890.051 9 -11588947.376 9  22966047.766    22966053.562
  22557144.081    10842581.10349   8430930.20149  22557146.3824   22557155.1284
  23165763.284   -13626750.09249 -10340289.31149  23165767.3454   23165774.8374
 96  2 17 18 24 59.9970000  0  8 29 27 19 18 22 28 14 31
  20046595.753    -4997052.81949  -3896040.81749  20046599.6564   20046605.2054
  23726590.798   -11378634.15149  -8577763.22649  23726595.1264   23726601.3174
  20993949.699   -18448926.09349 -14370756.78949  20993953.4424   20993960.1044
  19699958.965     -209599.40449   -143946.50949  19699962.4494   19699968.2214
  22801825.639     7942902.97249   6042681.35149  22801828.0174   22801835.2524
  22947574.189   -15004939.612 9 -11664570.401 9  22947578.835    22947585.795
  22568838.766    10904056.83949   8478833.29449  22568846.3824   22568853.3004
  23140129.158   -13761475.00249 -10445269.71649  23140130.4884   23140138.0314
 96  2 17 18 25 29.9970000  0  8 29 27 19 18 22 28 14 31
  20043373.413    -5013981.83049  -3909232.27449  20043378.7884   20043383.8734
  23702572.819   -11504848.99649  -8676112.37149  23702577.1524   23702586.6824
  20975090.780   -18548029.30649 -14447980.03849  20975095.1124   20975101.5474
  19684611.446     -290240.29959   -206783.55959  19684616.9064   19684622.7334
  22811864.997     7995658.33349   6083789.44149  22811867.2954   22811873.4354
  22929172.871   -15101667.102 9 -11739942.467 9  22929172.221    22929179.424
  22580552.074    10965607.81149   8526794.99949  22580558.0804   22580566.3414
  23114493.852   -13896150.87049 -10550211.92349  23114501.4344   23114510.1424
 96  2 17 18 25 59.9970000  0  8 29 27 19 18 22 28 14 31
  20040216.728    -5030573.62749  -3922160.96449  20040221.3364   20040226.6514
  23678556.570   -11631063.53349  -8774461.28449  23678559.2894   23678565.8364
  20956259.839   -18646990.98449 -14525093.00649  20956263.5274   20956269.8884
  19669322.568     -370595.61149   -269398.08049  19669325.7044   19669331.6554
  22821933.948     8048580.75049   6125027.69149  22821938.6294   22821944.6504
  22910823.543   -15198070.037 9 -11815061.627 9  22910827.944    22910834.813
  22592286.361    11027251.11649   8574828.64449  22592288.8504   22592297.8884
  23088877.356   -14030781.82449 -10655119.10349  23088880.9714   23088889.8524
 96  2 17 18 26 29.9970000  0  8 29 27 19 18 22 28 14 31
  20037124.029    -5046830.83749  -3934828.93649  20037127.4784   20037132.8034
  23654536.948   -11757276.84049  -8872809.19849  23654540.3174   23654547.4424
  20937454.136   -18745816.97149 -14602100.23649  20937457.3274   20937463.7114
  19654085.145     -450669.00749   -331792.92149  19654088.1484   19654094.0484
  22832034.705     8101657.27449   6166386.02049  22832038.0264   22832044.0394
  22892542.658   -15294146.507 9 -11889926.401 9  22892544.942    22892552.091
  22604031.821    11088990.29149   8622936.98949  22604036.9864   22604045.3474
  23063266.620   -14165375.22349 -10759997.01549  23063269.3734   23063276.2604
 96  2 17 18 26 59.9970000  0  7 29 27 19 22 28 14 31
  20034090.845    -5062759.88049  -3947241.19149  20034096.4274   20034101.7264
  23630522.527   -11883488.33949  -8971155.73449  23630525.3544   23630529.7334
  20918669.619   -18844523.85149 -14679014.65949  20918673.8464   20918680.8994
  22842162.511     8154875.55549   6207854.79249  22842165.0824   22842171.6104
  22874317.440   -15389904.493 9 -11964542.993 9  22874323.378    22874329.272
  22615798.961    11150822.93749   8671118.17849  22615803.2684   22615811.8644
  23037660.418   -14299948.14649 -10864858.97349  23037661.4004   23037669.1404
 96  2 17 18 27 29.9970000  0  7 29 27 19 22 28 14 31
  20031124.534    -5078355.55949  -3959393.68349  20031128.6094   20031134.2134
  23606502.078   -12009699.74549  -9069502.20849  23606505.5454   23606513.4764
  20899909.732   -18943114.82949 -14755838.76549  20899913.2374   20899919.5744
  22852315.174     8208233.29349   6249432.24749  22852318.9684   22852326.2144
  22856157.887   -15485348.897 9 -12038915.236 9  22856160.539    22856167.853
  22627582.958    11212738.44249   8719363.92049  22627586.1744   22627594.6874
  23012054.195   -14434492.52449 -10969698.67249  23012058.9874   23012066.8154
 96  2 17 18 27 59.9970000  0  8 29 27 19 18 22 28 14 31
  20028219.031    -5093619.35449  -3971287.56349  20028223.8444   20028229.3634
  23582484.581   -12135923.11949  -9167858.04549  23582485.9584   23582492.8694
  20881168.577   -19041594.17349 -14832575.88849  20881172.8214   20881179.2754
  19608716.324      -73697.20519    -41685.62759                  19608725.5654
  22862492.725     8261709.67849   6291102.16149  22862494.5594   22862502.2934
  22838056.221   -15580487.489 9 -12113049.172 9  22838055.971    22838062.683
  22639378.434    11274715.10049   8767657.31649  22639380.1764   22639388.8274
  22986460.168   -14568997.52949 -11074507.70549  22986463.2774   22986470.1094
 96  2 17 18 28 29.9970000  0  8 29 27 19 18 22 28 14 31
  20025374.920    -5108565.31249  -3982933.77749  20025379.9184   20025385.5284
  23558462.164   -12262159.60749  -9266224.06949  23558463.2774   23558473.5914
  20862450.480   -19139959.13349 -14909223.88649  20862454.5584   20862461.0314
  19593719.657     -152508.03459   -103096.65849  19593722.4144   19593728.2934
  22872687.861     8315286.47049   6332850.26449  22872690.2364   22872697.0554
  22820008.110   -15675322.306 9 -12186946.397 9  22820009.509    22820016.121
  22651181.836    11336731.41649   8815981.60649  22651181.0414   22651189.5894
  22960868.779   -14703456.10249 -11179280.55049  22960875.7454   22960883.8044
 96  2 17 18 28 59.9970000  0  8 29 27 19 18 22 28 14 31
  20022593.714    -5123198.31049  -3994336.13249  20022595.5884   20022601.0224
  23534433.888   -12388406.96349  -9364598.54349  23534439.7344   23534447.5494
  20843755.252   -19238205.05949 -14985779.12349  20843758.4264   20843765.6864
  19578789.597     -230970.19349   -164235.99449  19578791.7184   19578797.3484
  22882899.735     8368957.88149   6374672.13549  22882903.7244   22882910.3494
  22802018.215   -15769850.841 9 -12260604.951 9  22802021.868    22802026.876
  22662983.841    11398785.26449   8864335.15049  22662990.3294   22662999.1434
  22935295.617   -14837859.22849 -11284010.16949  22935300.6954   22935308.5534
 96  2 17 18 29 29.9970000  0  8 29 27 19 18 22 28 14 31
  20019863.237    -5137531.57249  -4005504.91649  20019867.6314   20019873.2124
  23510407.378   -12514682.00949  -9462994.62349  23510410.8004   23510418.4194
  20825084.643   -19336319.73949 -15062232.09549  20825088.1874   20825094.9464
  19563921.193     -309095.67359   -225112.98759  19563924.8834   19563930.6004
  22893127.256     8422700.17949   6416549.23249  22893130.7074   22893137.5394
  22784087.744   -15864072.065 9 -12334024.026 9  22784090.567    22784097.921
  22674799.277    11460863.26649   8912707.51749  22674803.3594   22674811.4734
  22909734.522   -14972199.96549 -11388691.21849  22909735.3654   22909743.8094
 96  2 17 18 29 59.9970000  0  8 29 27 19 18 22 28 14 31
  20017189.520    -5151588.14849  -4016458.10449  20017193.0014   20017198.4504
  23486368.345   -12641002.47449  -9561426.10849  23486371.9334   23486379.0684
  20806436.572   -19434315.85449 -15138592.67449  20806440.3524   20806446.5734
  19549111.924     -386918.09249   -285753.82549  19549115.7504   19549121.6914
  22903361.164     8476490.55249   6458463.77549  22903365.6614   22903372.5984
  22766214.856   -15957989.550 9 -12407206.441 9  22766218.860    22766225.538
  22686615.904    11522958.78849   8961093.50949  22686620.0654   22686628.5284
  22884178.796   -15106493.41549 -11493335.38249  22884179.4544   22884188.3624
 96  2 17 18 30 29.9970000  0  8 29 27 19 18 22 28 14 31
  20014566.029    -5165374.30349  -4027200.56949  20014569.3864   20014575.0264
  23462320.211   -12767371.50649  -9659895.42149  23462325.5034   23462331.4764
  20787807.480   -19532213.27649 -15214876.35149  20787810.7534   20787817.3134
  19534359.219     -464448.08449   -346166.79849  19534362.1774   19534368.1824
  22913608.596     8530332.96649   6500418.85749  22913612.4544   22913619.2094
  22748400.353   -16051602.565 9 -12480151.578 9  22748405.736    22748412.611
  22698434.272    11585068.36749   9009490.46649  22698439.7904   22698446.3954
  22858628.010   -15240745.33049 -11597947.19549  22858633.4154   22858640.4204
 96  2 17 18 30 59.9970000  0  8 29 27 19 18 22 28 14 31
  20011996.553    -5178885.50549  -4037728.78849  20011998.3844   20012004.1214
  23438263.757   -12893795.44349  -9758407.53049  23438268.2754   23438274.2074
  20769191.208   -19630037.42249 -15291102.92449  20769195.5914   20769202.3954
  19519660.151     -541691.86549   -406356.75149  19519663.3624   19519669.1044
  22923864.730     8584226.57849   6542413.87849  22923867.4794   22923875.0844
  22730644.986   -16144910.838 9 -12552859.282 9  22730649.426    22730655.243
  22710254.296    11647187.46249   9057894.83349  22710259.9494   22710267.7884
  22833086.670   -15374957.31949 -11702527.89449  22833093.2974   22833100.7544
 96  2 17 18 31 29.9970000  0  8 29 27 19 18 22 28 14 31
  20009473.861    -5192127.07849  -4048046.89649  20009478.9444   20009484.2424
  23414193.745   -13020286.84749  -9856972.19749  23414196.5134   23414204.1364
  20750588.256   -19727804.72049 -15367285.20649  20750591.1204   20750597.6024
  19505011.764     -618667.56149   -466337.80849  19505015.3414   19505021.0444
  22934128.697     8638170.63049   6584448.19449  22934133.0784   22934140.3574
  22712946.865   -16237924.888 9 -12625337.706 9  22712949.224    22712956.481
  22722075.567    11709301.36449   9106295.15449  22722079.3664   22722087.6674
  22807557.240   -15509133.71249 -11807080.84749  22807560.6774   22807567.8134
 96  2 17 18 31 59.9970000  0  8 29 27 19 18 22 28 14 31
  20007009.777    -5205088.48449  -4058146.69449  20007012.4144   20007017.8494
  23390114.727   -13146820.25449  -9955569.59049  23390118.6064   23390125.9934
  20731993.068   -19825513.15749 -15443421.61949  20731997.8004   20732003.9904
  19490418.231     -695360.72249   -526098.70349  19490421.2824   19490426.7654
  22944410.225     8692185.58749   6626537.71449  22944411.4434   22944418.7534
  22695305.230   -16330638.565 9 -12697582.094 9  22695307.473    22695313.049
  22733896.967    11771415.18149   9154695.40349  22733899.5974   22733908.7374
  22782033.661   -15643268.38349 -11911601.28549  22782036.4984   22782043.0864
 96  2 17 18 32 29.9970000  0  8 29 27 19 18 22 28 14 31
  20004598.678    -5217755.57749  -4068017.15149  20004601.4144   20004607.3154
  23366030.733   -13273376.57549 -10054184.82449  23366034.4174   23366044.9324
  20713416.157   -19923141.37749 -15519495.53449  20713419.9294   20713426.0434
  19475880.198     -771756.32749   -585627.74049  19475883.7134   19475889.2064
  22954702.029     8746282.24349   6668690.92449  22954705.6864   22954713.1334
  22677721.028   -16423043.666 9 -12769586.012 9  22677723.324    22677728.791
  22745717.617    11833532.09949   9203098.07349  22745719.5944   22745729.5434
  22756519.519   -15777344.20849 -12016075.86449  22756522.3844   22756528.9684
 96  2 17 18 32 59.9970000  0  8 29 27 19 18 22 28 14 31
  20002246.486    -5230116.40149  -4077648.95649  20002249.3614   20002255.1094
  23341948.807   -13399940.76149 -10152806.19849  23341951.7644   23341959.7884
  20694859.615   -20020653.70749 -15595479.13649  20694864.0934   20694870.0714
  19461403.577     -847833.41649   -644908.57949  19461406.8914   19461412.2214
  22965011.942     8800470.35749   6710915.41349  22965017.7034   22965025.6464
  22660196.674   -16515124.404 9 -12841337.201 9  22660200.403    22660206.607
  22757539.170    11895662.82549   9251511.50049  22757542.3894   22757550.7224
  22731017.846   -15911344.06249 -12120491.23949  22731022.2424   22731030.4854
 96  2 17 18 33 29.9970000  0  8 29 27 19 18 22 28 14 31
  19999951.201    -5242175.99049  -4087046.03449  19999954.5174   19999960.2974
  23317859.184   -13526520.54249 -10251439.73049  23317863.2654   23317871.6904
  20676329.509   -20118032.46149 -15671358.65049  20676333.2294   20676339.5194
  19446986.315     -923593.48349   -703942.38749  19446989.9544   19446995.6234
  22975342.184     8854751.48449   6753212.36849  22975346.1254   22975353.9454
  22642736.533   -16606881.733 9 -12912836.374 9  22642739.437    22642746.092
  22769361.486    11957800.59549   9299930.42349  22769368.5644   22769375.5754
  22705535.398   -16045262.07949 -12224842.83549  22705539.7644   22705546.1894
 96  2 17 18 33 59.9970000  0  8 29 27 19 18 22 28 14 31
  19997713.043    -5253935.09949  -4096208.97849  19997716.9404   19997722.6424
  23293771.870   -13653118.57649 -10350087.48749  23293774.6124   23293782.2174
  20657824.096   -20215281.76949 -15747137.30549  20657827.3934   20657833.5964
  19432626.736     -999055.43949   -762743.90249  19432629.9564   19432635.5994
  22985685.774     8909106.42149   6795566.86349  22985689.5504   22985697.5754
  22625335.443   -16698317.891 9 -12984085.301 9  22625339.421    22625346.339
  22781190.997    12019924.71749   9348338.71749  22781189.8444   22781197.1374
  22680064.386   -16179107.75549 -12329138.06249  22680067.9334   22680075.0724
 96  2 17 18 34 29.9970000  0  8 29 27 19 18 22 28 14 31
  19995534.101    -5265389.74049  -4105134.67249  19995537.2414   19995542.9924
  23269672.533   -13779755.55749 -10448765.58649  23269675.9454   23269682.7794
  20639340.161   -20312416.83549 -15822826.94249  20639343.3534   20639349.1744
  19418321.608    -1074229.81649   -821321.33149  19418324.6954   19418330.3134
  22996041.013     8963525.51949   6837971.31649  22996045.7284   22996053.4374
  22607999.772   -16789434.550 9 -13055085.273 9  22608000.578    22608007.022
  22793001.990    12082018.65449   9396723.49049  22793005.5014   22793014.2294
  22654609.190   -16312885.06449 -12433380.00149  22654611.1834   22654618.2964
 96  2 17 18 34 59.9970000  0  8 29 27 19 18 22 28 14 31
  19993413.892    -5276522.33149  -4113809.41749  19993418.6994   19993424.2644
  23245568.444   -13906419.64449 -10547464.82949  23245572.4364   23245579.2974
  20620876.068   -20409441.28849 -15898430.38749  20620879.9834   20620886.0084
  19404071.769    -1149111.27849   -879670.51549  19404075.3194   19404080.9284
  23006409.969     9018010.88049   6880427.39349  23006414.3004   23006421.6244
  22590724.115   -16880217.519 9 -13125825.224 9  22590725.071    22590732.048
  22804810.780    12144088.68449   9445089.64549  22804817.8814   22804826.0224
  22629167.637   -16446582.28049 -12537559.56249  22629170.9054   22629177.0594
 96  2 17 18 35 29.9970000  0  8 29 27 19 18 22 28 14 31
  19991359.960    -5287322.88949  -4122225.44349  19991363.6104   19991368.8784
  23221461.411   -14033102.84149 -10646178.97749  23221465.2724   23221471.6934
  20602432.165   -20506366.19249 -15973956.26249  20602436.0244   20602441.8664
  19389877.009    -1223702.75949   -937793.73549  19389880.9844   19389886.7114
  23016792.587     9072567.76549   6922939.23649  23016795.5564   23016802.9834
  22573509.803   -16970659.464 9 -13196299.443 9  22573514.886    22573520.795
  22816621.477    12206133.40149   9493436.07649  22816623.7764   22816632.3224
  22603740.241   -16580202.38549 -12641679.04549  22603741.9354   22603749.7974
 96  2 17 18 35 59.9970000  0  8 29 27 19 18 22 28 14 31
  19989368.326    -5297787.89649  -4130379.99849  19989372.3164   19989377.8564
  23197351.602   -14159799.67249 -10744903.72749  23197355.2514   23197363.6084
  20584006.972   -20603191.43349 -16049404.47149  20584010.6594   20584016.9364
  19375742.096    -1297988.57249   -995678.77849  19375744.5384   19375750.2934
  23027187.759     9127201.32549   6965510.83749  23027192.5144   23027199.4004
  22556367.787   -17060752.173 9 -13266501.534 9  22556370.409    22556377.413
  22828421.091    12268154.08449   9541763.75049  22828426.0754   22828436.4384
  22578324.979   -16713741.59749 -12745735.50349  22578330.2744   22578338.1604
 96  2 17 18 36 29.9970000  0  8 29 27 19 18 22 28 14 31
  19987439.177    -5307920.13549  -4138275.25049  19987444.3434   19987449.5804
  23173238.548   -14286513.46149 -10843641.70049  23173241.7234   23173250.0744
  20565600.101   -20699914.97049 -16124773.44349  20565604.3224   20565610.7904
  19361671.389    -1371926.61649  -1053292.82749  19361674.9774   19361680.4884
  23037599.026     9181916.78049   7008146.24849  23037604.1904   23037611.4514
  22539293.220   -17150487.443 9 -13336425.132 9  22539294.868    22539301.094
  22840224.319    12330177.75249   9590093.75749  22840228.6234   22840237.6254
  22552934.562   -16847178.56949 -12849712.27249  22552937.9444   22552944.6774
 96  2 17 18 36 59.9970000  0  8 29 27 19 18 22 28 14 31
  19985571.324    -5317739.77749  -4145926.93349  19985575.2774   19985581.1934
  23149122.838   -14413232.68849 -10942383.90949  23149127.8514   23149136.5434
  20547214.754   -20796531.45549 -16200058.99649  20547218.8694   20547225.3344
  19347671.592    -1445501.70249  -1110624.05749  19347674.2094   19347679.5804
  23048027.555     9236712.68149   7050844.33149  23048032.1844   23048039.0214
  22522283.383   -17239863.505 9 -13406068.796 9  22522286.511    22522293.637
  22852030.419    12392210.92849   9638431.16949  22852033.5484   22852042.3904
  22527563.440   -16980507.11949 -12953604.56949  22527566.1844   22527574.6664
 96  2 17 18 37 29.9970000  0  8 29 27 19 18 22 28 14 31
  19983761.756    -5327250.84249  -4153338.15849  19983765.5384   19983771.0054
  23125010.508   -14539949.26049 -11041124.05649  23125014.3704   23125021.4494
  20528853.114   -20893026.05849 -16275249.57449  20528856.7304   20528862.8944
  19333743.691    -1518687.30949  -1167651.79249  19333747.4284   19333752.9824
  23058473.699     9291600.54549   7093614.07049  23058477.0984   23058483.8424
  22505343.640   -17328873.379 9 -13475427.136 9  22505348.303    22505355.178
  22863840.716    12454255.26849   9686777.27949  22863840.8844   22863849.6054
  22502216.191   -17113713.53249 -13057401.70849  22502218.2814   22502224.7404
 96  2 17 18 37 59.9970000  0  8 29 27 19 18 22 28 14 31
  19982011.985    -5336450.99749  -4160507.12949  19982014.4704   19982020.3224
  23100900.738   -14666661.43949 -11139860.75749  23100901.7494   23100910.1424
  20510515.198   -20989392.67349 -16350340.42149  20510518.8394   20510524.9544
  19319891.767    -1591480.07249  -1224373.41449  19319895.0374   19319900.8144
  23068933.243     9346569.02349   7136446.62049  23068936.6224   23068944.4294
  22488479.420   -17417513.764 9 -13544497.577 9  22488480.474    22488487.615
  22875645.924    12516329.12949   9735146.39349  22875652.1704   22875662.4784
  22476892.693   -17246782.38349 -13161091.63649  22476895.9014   22476903.5654
 96  2 17 18 38 29.9970000  0  8 29 27 19 18 22 28 14 31
  19980318.687    -5345341.08549  -4167434.48249  19980322.6984   19980328.7174
  23076790.273   -14793357.05949 -11238584.56949  23076793.1964   23076800.8854
  20492201.673   -21085632.19049 -16425332.22949  20492204.9634   20492211.2704
  19306111.743    -1663889.73649  -1280796.51949  19306116.1614   19306121.9004
  23079407.877     9401605.29549   7179331.98649  23079410.5754   23079417.8224
  22471681.004   -17505782.072 9 -13613278.076 9  22471683.505    22471691.057
  22887470.969    12578439.86549   9783544.21249  22887472.9504   22887480.9544
  22451598.051   -17379715.23549 -13264675.60649  22451599.7324   22451608.5484
 96  2 17 18 38 59.9970000  0  8 29 27 19 18 22 28 14 31
  19978690.342    -5353902.45249  -4174105.69549  19978693.8034   19978699.5794
  23052681.990   -14920028.69349 -11337289.66049  23052687.4494   23052695.8814
  20473914.014   -21181734.34849 -16500217.00549  20473917.2304   20473923.6904
  19292401.115    -1735945.29049  -1336943.69249  19292404.4374   19292410.1014
  23089892.672     9456707.81949   7222268.98749  23089896.2264   23089902.9834
  22454956.249   -17593672.251 9 -13681763.937 9  22454959.445    22454965.778
  22899292.017    12640568.79549   9831956.21349  22899295.6624   22899303.7174
  22426323.469   -17512520.88649 -13368160.46549  22426328.9034   22426335.7554
 96  2 17 18 39 29.9970000  0  8 29 27 19 18 22 28 14 31
  19977126.244    -5362120.32849  -4180509.25249  19977130.0644   19977135.9724
  23028578.882   -15046689.42749 -11435986.27849  23028585.7974   23028592.0834
  20455650.493   -21277707.33049 -16575001.12949  20455654.4514   20455660.4654
  19278752.281    -1807668.33349  -1392831.76549  19278756.0224   19278761.6974
  23100388.551     9511871.40549   7265253.61149  23100393.6514   23100400.2964
  22438303.878   -17681183.797 9 -13749954.740 9  22438305.732    22438313.322
  22911112.861    12702710.40549   9880378.10049  22911120.0614   22911128.3844
  22401076.333   -17645203.73449 -13471549.63549  22401079.0684   22401085.9864
 96  2 17 18 39 59.9960000  0  8 29 27 19 18 22 28 14 31
  19975627.237    -5369989.35149  -4186640.97349  19975632.7494   19975638.7754
  23004481.466   -15173350.50249 -11534683.13349  23004483.3684   23004490.3064
  20437411.527   -21373551.96649 -16649685.23849  20437415.3284   20437421.6614
  19265166.932    -1879065.45549  -1448465.87649  19265169.6884   19265175.1104
  23110897.562     9567088.09849   7308279.66759  23110899.4644   23110907.0594
  22421722.832   -17768310.028 9 -13817845.298 9  22421725.843    22421733.396
  22922946.920    12764856.31249   9928803.33049  22922946.1314   22922955.4494
  22375850.998   -17777761.24149 -13574841.12849  22375853.6114   22375861.3444
 96  2 17 18 40 29.9960000  0  8 29 27 19 18 22 28 14 31
  19974197.260    -5377511.16449  -4192502.13849  19974201.5064   19974207.0834
  22980376.579   -15300022.50449 -11633388.51149  22980377.7234   22980385.1544
  20419197.321   -21469273.36149 -16724273.30749  20419200.2534   20419206.1654
  19251641.887    -1950137.10149  -1503846.36349  19251644.9734   19251650.5804
  23121419.413     9622368.63849   7351355.42359  23121420.3064   23121427.3084
  22405216.125   -17855053.099 9 -13885437.283 9  22405219.671    22405227.270
  22934762.643    12826987.00549   9977216.72049  22934769.8224   22934778.3864
  22350648.108   -17910195.85749 -13678036.86349  22350652.5194   22350659.2334
 96  2 17 18 40 59.9960000  0  8 29 27 19 18 22 28 14 31
  19972833.890    -5384677.91149  -4198086.64549  19972837.7564   19972843.1764
  22956264.998   -15426700.06949 -11732098.22049  22956270.9954   22956279.0864
  20401006.225   -21564863.42149 -16798759.04049  20401010.0114   20401016.4654
  19238182.352    -2020867.47949  -1558960.93349  19238185.4594   19238191.0564
  23131953.180     9677729.76449   7394493.90649  23131955.0864   23131962.5674
  22388786.267   -17941401.275 9 -13952721.567 9  22388788.906    22388795.295
  22946587.098    12889093.32149  10025611.09449  22946587.4144   22946596.6504
  22325472.335   -18042489.50449 -13781122.74649  22325477.0354   22325485.2354
 96  2 17 18 41 29.9960000  0  8 29 27 19 18 22 28 14 31
  19971534.796    -5391509.18249  -4203409.72649  19971537.8254   19971543.4234
  22932162.455   -15553371.22449 -11830802.93549  22932166.4464   22932174.2074
  20382841.171   -21660317.20149 -16873138.58149  20382845.6214   20382852.1994
  19224791.847    -2091226.03049  -1613785.76549  19224796.7924   19224802.2004
  23142505.842     9733183.50249   7437704.56949  23142507.1294   23142513.4754
  22372429.046   -18027348.162 9 -14019693.158 9  22372433.162    22372440.372
  22958394.723    12951175.81549  10073986.91849  22958401.9924   22958411.2824
  22300328.792   -18174629.07549 -13884088.58149  22300331.1534   22300339.5564
 96  2 17 18 41 59.9960000  0  8 29 27 19 18 22 28 14 31
  19970296.613    -5398014.11049  -4208478.52649  19970299.8584   19970305.3584
  22908063.654   -15680023.44049 -11929492.90649  22908065.3364   22908072.7234
  20364706.907   -21755617.76649 -16947398.73049  20364710.3544   20364716.8674
  19211479.459    -2161188.76249  -1668302.17149  19211483.1564   19211488.9994
  23153075.319     9788734.76049   7480991.24849  23153078.9004   23153084.6844
  22356153.181   -18112884.821 9 -14086345.080 9  22356156.811    22356163.519
  22970210.951    13013234.30549  10122344.02349  22970212.0944   22970220.6034
  22275214.752   -18306597.65549 -13986921.16749  22275219.4814   22275226.1554
 96  2 17 18 42 29.9960000  0  8 29 27 19 18 22 28 14 31
  19969117.985    -5404199.40449  -4213298.25549  19969122.8244   19969128.1924
  22883968.568   -15806636.61149 -12028152.46249  22883971.5674   22883977.7604
  20346602.366   -21850759.80249 -17021535.35149  20346605.7724   20346612.2494
  19198243.792    -2230743.80949  -1722500.89949  19198247.3804   19198252.8104
  23163666.120     9844389.53849   7524358.60049  23163669.6174   23163676.5404
  22339955.139   -18198004.315 9 -14152671.928 9  22339959.471    22339965.792
  22982011.558    13075274.63749  10170686.98249  22982018.4954   22982026.8954
  22250137.559   -18438385.60549 -14089613.01849  22250141.6184   22250148.8394
 96  2 17 18 42 59.9960000  0  8 29 27 19 18 22 28 14 31
  19968004.092    -5410061.68849  -4217866.29049  19968007.3384   19968012.9884
  22859883.553   -15933199.25949 -12126772.64949  22859887.2364   22859894.2824
  20328528.172   -21945740.51749 -17095546.26949  20328531.1254   20328538.0134
  19185088.097    -2299886.30149  -1776378.15349  19185090.1244   19185095.6644
  23174274.824     9900140.86449   7567801.19149  23174278.7674   23174284.3654
  22323840.338   -18282703.134 9 -14218670.975 9  22323841.624    22323848.500
  22993819.634    13137300.86449  10219018.96349  22993820.9544   22993830.3134
  22225095.345   -18569994.53349 -14192165.34149  22225098.1374   22225103.0394
 96  2 17 18 43 29.9960000  0  8 29 27 19 18 22 28 14 31
  19966948.497    -5415603.35749  -4222184.49849  19966952.9934   19966958.1934
  22835807.996   -16059726.09049 -12225364.94149  22835810.3314   22835816.6884
  20310481.990   -22040571.40449 -17169440.43949  20310486.0694   20310491.9934
  19172005.125    -2368624.23749  -1829940.17049  19172009.5804   19172015.0494
  23184900.743     9955962.63549   7611298.65049  23184900.3714   23184907.8104
  22307800.582   -18366986.013 9 -14284345.923 9  22307802.719    22307809.793
  23005619.938    13199320.07849  10267345.47349  23005623.7434   23005632.6144
  22200084.609   -18701419.95349 -14294574.70449  22200088.4144   22200093.9864
 96  2 17 18 43 59.9960000  0  8 29 27 19 18 22 28 14 31
  19965959.542    -5420803.93049  -4226236.91849  19965963.4214   19965968.5704
  22811735.741   -16186221.36649 -12323932.64349  22811739.5124   22811746.0474
  20292463.651   -22135260.23249 -17243223.91649  20292467.1014   20292473.6134
  19159001.464    -2436965.90849  -1883193.41049  19159004.5854   19159010.3144
  23195533.876    10011839.33849   7654838.91349  23195534.0804   23195541.1474
  22291842.119   -18450847.812 9 -14349692.738 9  22291844.395    22291851.356
  23017424.129    13261351.62949  10315681.60049  23017428.9704   23017436.7564
  22175111.439   -18832649.42049 -14396831.39449  22175114.9664   22175122.8524
 96  2 17 18 44 29.9960000  0  8 29 27 19 18 22 28 14 31
  19965039.403    -5425638.42749  -4230004.07049  19965043.0974   19965048.4224
  22787669.687   -16312686.63349 -12422476.96749  22787673.1594   22787680.8764
  20274469.946   -22229815.22949 -17316903.11149  20274473.6334   20274479.9524
  19146069.699    -2504923.92749  -1936147.70149  19146072.4014   19146078.1024
  23206172.005    10067757.45149   7698411.44749  23206174.3144   23206181.6854
  22275964.353   -18534287.325 9 -14414710.498 9  22275966.628    22275972.770
  23029234.467    13323401.90049  10364032.32749  23029236.3784   23029244.6734
  22150179.568   -18963680.54549 -14498933.50749  22150180.8814   22150187.9054
 96  2 17 18 44 59.9960000  0  8 29 27 19 18 22 28 14 31
  19964192.158    -5430094.13549  -4233476.06449  19964195.4874   19964200.7954
  22763607.475   -16439128.44549 -12521003.00149  22763612.9364   22763619.4254
  20256501.962   -22324239.79949 -17390480.67449  20256505.3674   20256511.8464
  19133208.892    -2572505.22449  -1988808.43849  19133212.2694   19133217.9634
  23216817.845    10123710.02449   7742010.83549  23216822.7114   23216830.0434
  22260164.584   -18617302.483 9 -14479397.580 9  22260169.781    22260175.701
  23041044.262    13385477.47849  10412402.76449  23041048.1794   23041057.0924
  22125282.235   -19094501.76549 -14600872.08949  22125286.9344   22125292.3174
 96  2 17 18 45 29.9960000  0  8 29 27 19 18 22 28 14 31
  19963415.764    -5434167.91949  -4236650.45149  19963420.1274   19963425.3564
  22739551.381   -16565550.64949 -12619513.78649  22739555.9364   22739561.4904
  20238558.662   -22418528.18549 -17463952.12649  20238562.6884   20238569.3464
  19120423.701    -2639693.04249  -2041162.56949  19120426.9624   19120432.4714
  23227475.142    10179708.14049   7785645.70349  23227479.3724   23227485.3534
  22244453.057   -18699881.667 9 -14543744.930 9  22244454.260    22244461.365
  23052862.163    13447585.41849  10460798.41949  23052866.4864   23052875.7624
  22100431.119   -19225090.48149 -14702629.48849  22100436.0504   22100443.1234
 96  2 17 18 45 59.9960000  0  8 29 27 19 18 22 28 14 31
  19962713.119    -5437863.28649  -4239529.96949  19962716.8544   19962722.2734
  22715495.621   -16691956.84849 -12718012.04549  22715500.1064   22715507.1514
  20220645.585   -22512667.53649 -17537307.44749  20220648.7784   20220655.0204
  19107712.102    -2706486.38649  -2093209.32249  19107716.4734   19107722.0704
  23238142.825    10235759.69449   7829322.22049  23238144.9754   23238151.9794
  22228817.699   -18782025.429 9 -14607752.998 9  22228823.150    22228829.268
  23064686.263    13509697.03749  10509196.95349  23064686.1434   23064693.7094
  22075626.976   -19355450.14749 -14804208.42049  22075629.3204   22075637.3944
 96  2 17 18 46 29.9960000  0  8 29 27 19 18 22 28 14 31
  19962077.286    -5441195.54449  -4242126.54849  19962082.7604   19962088.2514
  22691442.164   -16818359.97349 -12816507.94349  22691446.3944   22691453.8544
  20202759.911   -22606654.53149 -17610544.05649  20202763.6224   20202770.1494
  19095077.511    -2772886.09349  -2144949.34849  19095080.9454   19095086.2594
  23248818.783    10291863.15649   7873039.17549  23248821.6024   23248826.3084
  22213269.607   -18863745.093 9 -14671430.591 9  22213272.369    22213278.503
  23076489.207    13571779.75149  10557572.94349  23076500.6364   23076509.7904
  22050861.114   -19485602.06749 -14905625.47949  22050862.2484   22050870.5654
 96  2 17 18 46 59.9960000  0  8 29 27 19 18 22 28 14 31
  19961510.683    -5444188.49049  -4244458.72849  19961513.2624   19961518.6294
  22667394.448   -16944745.80449 -12914990.33849  22667397.0074   22667403.4254
  20184906.444   -22700477.56449 -17683652.89249  20184909.9864   20184916.2934
  19082522.550    -2838867.77049  -2196363.63549  19082525.3704   19082530.6764
  23259510.576    10348032.57549   7916807.52949  23259510.5424   23259517.0124
  22197801.687   -18945031.812 9 -14734770.818 9  22197803.772    22197810.136
  23088302.867    13633825.94249  10605920.46449  23088307.2334   23088316.6504
  22026129.728   -19615545.76449 -15006880.26349  22026135.0404   22026141.1724
 96  2 17 18 47 29.9960000  0  8 29 27 19 18 22 28 14 31
  19961002.413    -5446854.74049  -4246536.32849  19961005.7334   19961011.2964
  22643344.128   -17071116.74249 -13013461.14249  22643349.5174   22643356.0494
  20167084.012   -22794132.57549 -17756630.80649  20167088.0004   20167094.0344
  19070045.092    -2904435.45449  -2247455.32649  19070048.2084   19070053.5694
  23270210.360    10404268.75549   7960627.90649  23270211.2274   23270217.7424
  22182415.052   -19025888.400 9 -14797775.871 9  22182416.977    22182423.886
  23100096.534    13695807.63749  10654217.73049  23100102.1524   23100112.1044
  22001441.490   -19745295.36349 -15107983.81949  22001444.7564   22001450.2174
 96  2 17 18 47 59.9960000  0  8 29 27 19 18 22 28 14 31
  19960555.339    -5449199.84549  -4248363.68649  19960559.7544   19960565.2424
  22619303.115   -17197462.33249 -13111912.18549  22619305.6834   22619313.4494
  20149294.078   -22887617.42749 -17829476.12449  20149298.2124   20149304.6544
  19057642.609    -2969602.72849  -2298235.01049  19057647.0484   19057652.4124
  23280921.340    10460553.80949   8004486.36149  23280921.4254   23280929.4584
  22167108.056   -19106320.402 9 -14860450.084 9  22167111.172    22167118.204
  23111875.403    13757719.80749  10702460.81649  23111884.2034   23111893.6234
  21976784.166   -19874871.78049 -15208952.42449  21976786.5064   21976794.6684
 96  2 17 18 48 29.9960000  0  8 29 27 19 18 22 28 14 31
  19960173.293    -5451215.21149  -4249934.10749  19960176.4084   19960181.9534
  22595269.933   -17323753.62049 -13210320.90349  22595274.7594   22595280.5324
  20131537.864   -22980928.87749 -17902186.32949  20131541.3324   20131548.0604
  19045322.713    -3034355.19249  -2348691.46549  19045325.2374   19045330.7784
  23291635.653    10516889.64649   8048384.39349  23291643.5124   23291647.9524
  22151888.057   -19186316.391 9 -14922784.546 9  22151888.645    22151895.277
  23123663.702    13819592.44449  10750673.07649  23123656.8304   23123666.2434
  21952158.628   -20004258.88949 -15309773.53349  21952164.4654   21952173.4164
 96  2 17 18 48 59.9960000  0  8 29 27 19 18 22 28 14 31
  19959849.688    -5452906.87749  -4251252.28949  19959854.3724   19959860.0154
  22571245.483   -17449999.34549 -13308694.14549  22571248.6834   22571256.9434
  20113811.268   -23074082.24649 -17974773.35349  20113815.4294   20113821.2914
  19033074.865    -3098714.13749  -2398841.28849  19033078.0974   19033083.4994
  23302362.966    10573256.45749   8092306.57949  23302364.7064   23302372.7374
  22136744.963   -19265882.555 9 -14984784.077 9  22136748.157    22136754.604
  23135414.617    13881417.69749  10798848.41349  23135422.7824   23135432.8044
  21927578.490   -20133444.33049 -15410437.48449  21927582.4624   21927589.1514
 96  2 17 18 49 29.9960000  0  8 29 27 19 18 22 28 14 31
  19959593.047    -5454261.05049  -4252307.49249  19959596.5574   19959602.1384
  22547223.275   -17576219.44249 -13407047.40849  22547230.7144   22547238.6094
  20096113.149   -23167082.52049 -18047241.08249  20096117.6594   20096124.1794
  19020900.244    -3162692.44849  -2448694.51149  19020903.7284   19020908.8764
  23313096.382    10629645.22849                                  23313098.4794
  22121683.614   -19345024.598 9 -15046453.141 9  22121687.289    22121694.664
  23147174.092    13943195.26549  10846986.58649  23147178.8854   23147188.0794
  21903033.496   -20262429.12549 -15510945.08749  21903037.4304   21903044.0084
 96  2 17 18 49 59.9960000  0  8 29 27 19 18 22 28 14 31
  19959402.435    -5455261.08449  -4253086.74049  19959406.2284   19959411.9804
  22523212.956   -17702418.51849 -13505384.30749  22523215.9124   22523223.4974
  20078443.804   -23259938.70549 -18119596.52849  20078447.7774   20078453.8474
  19008798.972    -3226285.37149  -2498247.43449  19008802.1084   19008807.6584
  23323829.835    10686050.01349   8180197.59559  23323832.0754   23323839.2284
  22106707.061   -19423738.273 9 -15107788.410 9  22106709.052    22106715.272
  23158932.471    14004942.09049  10895100.80049  23158928.7434   23158938.8944
  21878530.450   -20391196.63349 -15611283.38049  21878533.7524   21878540.2864
 96  2 17 18 50 29.9960000  0  8 29 27 19 18 22 28 14 31
  19959278.894    -5455910.31449  -4253592.63249  19959282.6184   19959288.6444
  22499196.283   -17828621.42849 -13603724.17549  22499200.0344   22499208.5864
  20060795.926   -23352678.33649 -18191861.15049  20060799.9774   20060806.4464
  18996768.700    -3289501.72549  -2547506.92949  18996772.4824   18996778.0554
  23334558.035    10742470.53159                                  23334568.5994
  22091805.547   -19502032.751 9 -15168797.034 9  22091810.073    22091816.097
  23170665.742    14066635.88949  10943173.69349  23170669.7104   23170679.0804
  21854067.572   -20519743.09649 -15711449.41649  21854070.9764   21854079.6714
 96  2 17 18 50 59.9960000  0  8 29 27 19 18 22 28 14 31
  19959223.862    -5456196.96149  -4253815.99449  19959228.0594   19959233.8804
  22475180.925   -17954822.28449 -13702062.46749  22475184.5474   22475192.6004
  20043172.045   -23445293.94449 -18264029.13949  20043175.9534   20043182.2244
  18984811.906    -3352340.48249  -2596472.19549  18984814.6104   18984820.3664
  23345305.139                                                    23345309.428
  22076989.514   -19579892.662 9 -15229467.055 9  22076992.712    22077000.079
  23182392.163    14128264.95849  10991196.17049  23182397.5504   23182406.6474
  21829648.961   -20648061.83449 -15811438.00249  21829653.2564   21829659.6554
 96  2 17 18 51 29.9960000  0  7 29 27 19 18 28 14 31
  19959239.854    -5456113.34849  -4253750.83849  19959244.1704   19959249.6924
  22451170.398   -18081008.09049 -13800389.03249  22451172.5584   22451179.4424
  20025571.383   -23537786.76949 -18336101.44549  20025575.2114   20025581.1824
  18972926.360    -3414791.90649  -2645135.63549  18972930.5994   18972936.0384
  22062257.478   -19657313.417 9 -15289794.886 9  22062260.813    22062267.623
  23194109.162    14189825.40649  11039165.18249  23194113.0294   23194121.1644
  21805274.459   -20776160.17549 -15911254.86249  21805277.1354   21805284.3304
 96  2 17 18 51 59.9960000  0  7 29 27 19 18 28 14 31
  19959324.048    -5455670.38349  -4253405.67149  19959328.4794   19959334.0884
  22427161.878   -18207164.11949 -13898692.38449  22427164.9364   22427172.0264
  20007992.972   -23630159.05949 -18408079.83249  20007997.1794   20008003.4444
  18961118.883    -3476843.70749  -2693487.68349  18961122.5494   18961128.2004
  22047605.896   -19734294.503 9 -15349780.118 9  22047611.162    22047618.041
  23205806.127    14251301.21949  11087068.25249  23205810.7644   23205819.4714
  21780940.023   -20904030.29449 -16010893.86449  21780943.6204   21780950.8414
 96  2 17 18 52 29.9960000  0  7 29 27 19 18 28 14 31
  19959468.294    -5454911.84549  -4252814.60649  19959472.4964   19959478.2924
  22403160.442   -18333292.64149 -13996974.30049  22403164.0834   22403171.1514
  19990438.103   -23722409.69749 -18479963.42249  19990442.8424   19990448.8444
  18949386.579    -3538501.51049  -2741532.72449  18949389.4394   18949395.1784
  22033042.151   -19810849.286 9 -15409433.156 9  22033043.226    22033049.957
  23217483.635    14312666.09249  11134884.86849  23217487.7864   23217498.0504
  21756646.847   -21031696.84949 -16110374.25449  21756650.4394   21756656.2164
 96  2 17 18 52 59.9960000  0  7 29 27 19 18 28 14 31
  19959676.049    -5453818.65249  -4251962.76549  19959680.5904   19959686.5044
  22379166.349   -18459368.84949 -14095215.45049  22379172.4004   22379179.8144
  19972913.148   -23814506.87949 -18551727.43149  19972916.8404   19972922.8374
  18937734.137    -3599731.91949  -2789244.72849  18937737.5604   18937743.1664
  22018557.456   -19886952.168 9 -15468734.083 9  22018561.107    22018568.423
  23229147.066    14373943.69149  11182633.47049  23229148.2594   23229158.0824
  21732397.279   -21159132.17949 -16209674.45549  21732399.6484   21732406.6594
 96  2 17 18 53 29.9960000  0  7 29 27 19 18 28 14 31
  19959945.117    -5452408.23149  -4250863.74549  19959949.3884   19959954.8914
  22355182.491   -18585419.61649 -14193436.79649  22355185.7004   22355192.0474
  19955414.515   -23906458.27449 -18623377.84349  19955418.8884   19955425.2544
  18926164.406    -3660532.90849  -2836622.12049  18926167.4514   18926173.0284
  22004160.342   -19962615.169 9 -15527692.253 9  22004163.167    22004169.889
  23240788.324    14435137.12249  11230316.48549  23240793.8014   23240803.8314
  21708187.012   -21286339.20849 -16308796.76449  21708192.7814   21708200.5154
 96  2 17 18 53 59.9960000  0  7 29 27 19 18 28 14 31
  19960268.144    -5450708.74049  -4249539.46749  19960272.5954   19960277.9554
  22331192.495   -18711485.73349 -14291670.08849  22331196.4144   22331203.3394
  19937942.180   -23998279.37649 -18694926.72949  19937946.2744   19937952.5994
  18914673.193    -3720917.59549  -2883675.12149  18914676.8424   18914682.2194
  21989842.044   -20037851.641 9 -15586318.062 9  21989845.661    21989852.886
  23252418.927    14496244.13649  11277932.16949  23252421.8684   23252431.9024
  21684023.551   -21413324.12849 -16407746.00549  21684028.8224   21684035.4594
 96  2 17 18 54 29.9960000  0  7 29 27 19 18 28 14 31
  19960652.551    -5448694.90049  -4247970.25149  19960655.6244   19960660.9324
  22307199.259   -18837570.88149 -14389918.20649  22307202.8924   22307210.8394
  19920493.926   -24089967.80649 -18766372.23249  19920498.3354   19920504.7174
  18903261.566    -3780890.39449  -2930407.17449  18903264.2274   18903269.7984
  21975610.311   -20112647.019 9 -15644600.164 9  21975613.352    21975619.664
  23264033.166    14557292.86749  11325502.40749  23264036.9704   23264046.7104
  21659905.878   -21540068.32249 -16506507.65249  21659910.2194   21659916.8774
 96  2 17 18 54 59.9960000  0  7 29 27 19 18 28 14 31
  19961099.781    -5446338.73249  -4246134.28049  19961104.2124   19961109.7364
  22283201.430   -18963681.26649 -14488185.97049  22283205.0034   22283211.5174
  19903071.701   -24181524.37349 -18837714.98749  19903075.4984   19903081.9474
  18891924.546    -3840459.85149  -2976824.92749  18891928.7024   18891934.3144
  21961464.229   -20186994.451 9 -15702533.218 9  21961465.914    21961472.409
  23275641.114    14618290.15649  11373032.56449  23275646.0654   23275655.6204
  21635837.253   -21666552.27149 -16605066.51749  21635841.3444   21635847.3624
 96  2 17 18 55 29.9960000  0  7 29 27 19 18 28 14 31
  19961611.181    -5443653.88849  -4244042.19649  19961614.9154   19961620.9724
  22259197.489   -19089826.17749 -14586480.64849  22259200.4514   22259206.9184
  19885672.774   -24272958.95749 -18908962.69849  19885676.1354   19885682.7614
  18880662.772    -3899645.25549  -3022943.42049  18880666.1614   18880671.6624
  21947398.561   -20260902.577 9 -15760123.950 9  21947401.969    21947407.706
  23287242.633    14679228.50549  11420516.76849  23287243.4724   23287253.0444
  21611815.305   -21792784.05349 -16703428.89549  21611819.7904   21611826.2354
 96  2 17 18 55 59.9950000  0  7 29 27 19 18 28 14 31
  19962185.402    -5440631.37149  -4241686.98849  19962190.0124   19962195.8474
  22235190.734   -19215974.18349 -14684777.74349  22235195.3724   22235202.0444
  19868296.986   -24364263.06049 -18980108.72749  19868301.2184   19868308.0484
  18869475.240    -3958434.08149  -3068752.88849  18869479.0124   18869484.4884
  21933422.232   -20334358.894 9 -15817362.614 9  21933423.717    21933429.669
  23298819.527    14740102.75849  11467951.02549  23298826.0644   23298838.3054
  21587845.200   -21918750.90049 -16801584.81349  21587848.6724   21587856.4744
 96  2 17 18 56 29.9950000  0  7 29 27 19 18 28 14 31
  19962827.795    -5437260.07249  -4239060.01349  19962831.5084   19962837.3414
  22211190.654   -19342099.29749 -14783057.01949  22211194.6944   22211202.3904
  19850948.790   -24455433.60249 -19051150.69049  19850952.4014   19850958.8614
  18858364.068    -4016827.20349  -3114254.02249  18858367.0334   18858372.4424
  21919527.683   -20407362.108 9 -15874248.237 9  21919531.913    21919538.189
  23310392.710    14800894.10149  11515320.67249  23310395.2744   23310405.3264
  21563924.247   -22044457.88549 -16899538.25749  21563927.5324   21563935.3214
 96  2 17 18 56 59.9950000  0  7 29 27 19 18 28 14 31
  19963531.493    -5433558.52149  -4236175.68749  19963535.7834   19963541.5764
  22187197.729   -19468194.71349 -14881313.14449  22187200.1454   22187206.1274
  19833626.744   -24546461.87649 -19122081.79749  19833630.3634   19833636.7904
  18847330.527    -4074811.29349  -3159436.42549  18847332.9784   18847338.5384
  21905720.255   -20479912.077 9 -15930780.650 9  21905725.563    21905731.405
  23321941.901    14861584.47349  11562611.62949  23321944.9404   23321956.0534
  21540054.360   -22169902.17749 -16997287.00149  21540056.4734   21540063.5904
 96  2 17 18 57 29.9950000  0  7 29 27 19 18 28 14 31
  19964297.859    -5429536.83649  -4233041.91449  19964301.0164   19964307.0204
  22163205.605   -19594258.91349 -14979544.92149  22163210.0454   22163216.5584
  19816329.495   -24637359.71349 -19192911.26349  19816333.2934   19816339.3814
  18836374.395    -4132382.31749  -3204296.95749  18836377.5904   18836383.1494
  21892003.607   -20552010.667 9 -15986961.338 9  21892004.350    21892010.966
  23333467.312    14922165.44449  11609817.34149  23333473.2974   23333484.2894
  21516231.085   -22295084.89249 -17094831.91649  21516234.7324   21516242.0384
 96  2 17 18 57 59.9950000  0  7 29 27 19 18 28 14 31
  19965123.630    -5425193.80049  -4229657.73549  19965127.9474   19965133.5034
  22139227.829   -19720281.52549 -15077744.31649  22139228.5124   22139234.7764
  19799058.574   -24728119.43049 -19263633.10649  19799062.3244   19799068.2214
  18825500.080    -4189527.39049  -3248825.58449  18825503.1374   18825508.8214
  21878370.635   -20623654.525 9 -16042787.702 9  21878371.399    21878379.848
  23344979.727    14982627.16949  11656930.12849  23344978.5934   23344989.4134
  21492460.203   -22420007.02149 -17192173.77249  21492463.2194   21492470.5384
 96  2 17 18 58 29.9950000  0  7 29 27 19 18 28 14 31
  19966010.195    -5420538.78849  -4226030.46349  19966013.7754   19966019.2574
  22115250.266   -19846275.67949 -15175921.50749  22115252.7344   22115258.2344
  19781812.964   -24818747.08049 -19334252.03949  19781816.2924   19781822.3604
  18814702.505    -4246267.28949  -3293038.48449  18814705.8354   18814711.5194
  21864818.824   -20694854.565 9 -16098268.233 9  21864823.518    21864829.762
  23356455.866    15042961.90349  11703943.96649  23356460.5554   23356471.1404
  21468734.846   -22544674.25149 -17289316.99949  21468739.4124   21468746.2284
 96  2 17 18 58 59.9950000  0  7 29 27 19 18 28 14 31
  19966956.033    -5415569.25349  -4222158.10549  19966959.5424   19966965.0914
  22091275.789   -19972253.49049 -15274085.98649  22091279.9784   22091286.4234
  19764592.762   -24909239.62149 -19404765.69549  19764595.9764   19764602.4044
  18803981.718    -4302604.71749  -3336937.77149  18803985.1794   18803990.7374
  21851353.687   -20765610.234 9 -16153402.496 9  21851359.476    21851365.032
  23367918.239    15103185.95149  11750871.54649  23367920.3934   23367931.8464
  21445062.744   -22669081.79949 -17386257.88249  21445065.1824   21445072.7084
 96  2 17 18 59 29.9950000  0  6 29 27 19 18 28 31
  19967960.732    -5410283.07649  -4218039.01249  19967965.2984   19967971.0904
  22067305.748   -20098213.28449 -15372236.42849  22067310.5274   22067317.3474
  19747397.403   -24999602.88149 -19475178.61349  19747400.6224   19747406.5834
  18793335.734    -4358549.70749  -3380531.26849  18793339.3964   18793344.7274
  21837976.084   -20835923.442 9 -16208191.987 9  21837978.598    21837985.289
  21421434.562   -22793241.35449 -17483005.53249  21421439.1894   21421445.4854
 96  2 17 18 59 59.9950000  0  6 29 27 19 18 28 31
  19969026.131    -5404686.90649  -4213678.36349  19969030.4784   19969035.9914
  22043338.769   -20224166.75849 -15470381.92849  22043343.1984   22043349.3454
  19730225.885   -25089836.57249 -19545490.57049  19730229.6434   19730235.8964
  18782764.212    -4414102.96249  -3423819.51049  18782767.7244   18782773.4904
  21824676.936   -20905800.959 9 -16262641.967 9  21824680.992    21824688.025
  21397852.574   -22917169.77049 -17579573.07649  21397856.0534   21397863.0494
 96  2 17 19  0 29.9950000  0  6 29 27 19 18 28 31
  19970153.112    -5398760.93749  -4209060.72949  19970158.1224   19970163.3954
  22019370.785   -20350109.43249 -15568519.02449  22019377.3314   22019383.0004
  19713081.867   -25179931.28949 -19615694.23649  19713085.3704   19713091.3054
  18772267.807    -4469264.32149  -3466802.38349  18772271.0124   18772276.7134
  21811470.007   -20975225.959 9 -16316739.350 9  21811470.884    21811476.704
  21374318.700   -23040840.54749 -17675939.85849  21374322.3274   21374328.8884
 96  2 17 19  0 59.9950000  0  6 29 27 19 18 28 31
  19971344.143    -5392508.40049  -4204188.63049  19971347.7894   19971353.3884
  21995406.074   -20476058.40049 -15666661.04149  21995409.0304   21995415.5124
  19695963.024   -25269888.20649 -19685790.52349  19695967.0554   19695973.2674
  18761849.488    -4524010.75749  -3509461.93749  18761853.2574   18761858.8174
  21798340.505   -21044192.389 9 -16370479.416 9  21798346.303    21798352.668
  21350834.491   -23164247.53649 -17772101.08049  21350838.2474   21350844.4654
 96  2 17 19  1 29.9950000  0  6 29 27 19 18 28 31
  19972595.493    -5385936.16949  -4199067.41549  19972598.5064   19972603.8464
  21971437.687   -20602008.11149 -15764803.61949  21971442.0984   21971447.4304
  19678869.850   -25359713.12449 -19755783.95949  19678873.8844   19678880.0164
  18751514.581    -4578321.52149  -3551782.00449  18751518.2164   18751523.7344
  21785307.672   -21112692.786 9 -16423856.327 9  21785311.282    21785317.187
  21327402.281   -23287378.36649 -17868047.12049  21327407.5264   21327414.0284
 96  2 17 19  1 59.9950000  0  6 29 27 19 18 28 31
  19973907.341    -5379041.55549  -4193694.99549  19973910.8564   19973916.1074
  21947470.420   -20727953.37349 -15862942.73549  21947475.2454   21947481.7284
  19661802.277   -25449404.49049 -19825673.31849  19661805.9814   19661812.2914
  18741262.386    -4632196.97749  -3593762.87649  18741265.6844   18741271.4224
  21772361.281   -21180723.614 9 -16476867.339 9  21772364.825    21772371.513
  21304029.609   -23410212.68149 -17963762.11749  21304032.7774   21304039.4734
 96  2 17 19  2 29.9950000  0  6 29 27 19 18 28 31
  19975278.029    -5371830.90449  -4188076.31149  19975282.6624   19975288.0514
  21923503.289   -20853903.32349 -15961085.50749  21923507.6574   21923514.8204
  19644756.151   -25538984.41449 -19895475.84349  19644759.7064   19644765.8194
  18731089.063    -4685657.20449  -3635420.19449  18731092.8324   18731098.1574
  21759503.612   -21248293.887 9 -16529519.486 9  21759506.755    21759513.853
  21280712.045   -23532744.62649 -18059241.48249  21280716.3094   21280721.3634
 96  2 17 19  2 59.9950000  0  6 29 27 19 18 28 31
  19976713.344    -5364293.54649  -4182203.05549  19976716.8264   19976722.4344
  21899539.678   -20979841.12449 -16059218.82649  21899542.9024   21899548.4584
  19627730.487   -25628450.91349 -19965189.98449  19627734.6274   19627740.8614
  18720998.659    -4738681.82749  -3676738.08149  18721002.4514   18721008.2344
  21746731.884   -21315396.474 9 -16581807.204 9  21746737.914    21746744.490
  21257452.590   -23654968.86449 -18154481.08249  21257457.0264   21257463.4194
 96  2 17 19  3 29.9950000  0  6 29 27 19 18 28 31
  19978210.238    -5356424.13949  -4176071.06149  19978214.5474   19978220.0664
  21875576.379   -21105759.89849 -16157337.30549  21875580.4454   21875586.9074
  19610725.390   -25717816.14249 -20034825.22049  19610728.9104   19610735.3224
  18710985.898    -4791304.25749  -3717742.57249  18710988.8134   18710994.3264
  21734052.529   -21382042.169 9 -16633738.908 9  21734055.914    21734061.821
  21234250.046   -23776898.66249 -18249491.24049  21234254.9644   21234261.4124
 96  2 17 19  3 59.9950000  0  6 29 27 19 18 28 31
  19979773.526    -5348214.46449  -4169673.93349  19979777.1774   19979781.9414
  21851615.178   -21231669.84349 -16255448.92649  21851620.8524   21851626.7134
  19593740.964   -25807071.26049 -20104374.65049  19593744.2494   19593750.1744
  18701045.069    -4843544.24349  -3758449.05649  18701048.0164   18701053.4444
  21721458.143   -21448233.736 9 -16685316.729 9  21721459.930    21721466.036
  21211101.590   -23898546.90249 -18344281.99549  21211105.5904   21211111.5954
 96  2 17 19  4 29.9950000  0  6 29 27 19 18 28 31
  19981396.465    -5339690.93349  -4163032.23049  19981399.0954   19981404.1024
  21827655.095   -21357590.96449 -16353569.24749  21827658.0084   21827664.7384
  19576774.796   -25896225.12849 -20173845.18749  19576778.8684   19576785.1384
  18691175.917    -4895398.49449  -3798854.96249  18691180.2864   18691185.8464
  21708946.613   -21513977.645 9 -16736545.725 9  21708948.650    21708955.955
  21188005.778   -24019921.65749 -18438859.63749  21188009.0724   21188016.2984
 96  2 17 19  4 59.9950000  0  6 29 27 19 18 28 31
  19983074.630    -5330859.39349  -4156150.52049  19983079.1084   19983084.6694
  21803693.138   -21483517.56549 -16451693.85149  21803695.7764   21803702.6984
  19559833.763   -25985253.20149 -20243217.70749  19559837.4244   19559843.2414
  18681387.499    -4946837.93449  -3838937.64649  18681391.6664   18681397.4734
  21696522.298   -21579262.157 9 -16787416.769 9  21696525.281    21696531.992
  21164964.230   -24141007.07949 -18533211.83449  21164966.8594   21164973.0464
 96  2 17 19  5 29.9950000  0  6 29 27 19 18 28 31
  19984811.054    -5321735.19649  -4149040.76549  19984815.3504   19984820.8524
  21779721.491   -21609458.49949 -16549829.61549  21779729.9604   21779735.8594
  19542917.267   -26074148.29049 -20312486.59549  19542921.2024   19542927.2164
  18671679.225    -4997857.64749  -3878693.27049  18671683.0394   18671688.5074
  21684188.741   -21644087.057 9 -16837929.663 9  21684191.175    21684195.419
  21141978.610   -24261792.63649 -18627330.35849  21141982.4444   21141988.3764
 96  2 17 19  5 59.9950000  0  6 29 27 19 18 28 31
  19986603.590    -5312317.13049  -4141702.02149  19986607.7624   19986613.2994
  21755761.719   -21735398.29149 -16647964.50049  21755764.8674   21755770.6524
  19526030.352   -26162889.35549 -20381635.46249  19526034.3244   19526040.4124
  18662058.148    -5048421.64949  -3918093.79249  18662061.1244   18662066.6364
  21671937.924   -21708432.238 9 -16888068.750 9  21671944.971    21671951.917
  21119057.183   -24382247.09049 -18721190.87649  21119060.1824   21119066.6924
 96  2 17 19  6 29.9950000  0  6 29 27 19 18 28 31
  19988450.945    -5302606.94349  -4134135.65249  19988455.4374   19988461.2714
  21731797.309   -21861320.53749 -16746085.71649  21731802.2444   21731808.6934
  19509173.488   -26251476.58649 -20450664.46249  19509176.9204   19509182.5864
  18652524.382    -5098521.93649  -3957132.98349  18652527.4554   18652532.7544
  21659790.754   -21772297.109 9 -16937833.544 9  21659792.867    21659798.245
  21096197.652   -24502360.83449 -18814785.90249  21096203.5114   21096209.3924
 96  2 17 19  6 59.9950000  0  7 29 27 19 18 28  2 31
  19990359.213    -5292581.83849  -4126323.89949  19990363.2054   19990368.8164
  21707841.940   -21987212.61949 -16844183.41749  21707845.0314   21707851.5724
  19492346.158   -26339901.34649 -20519566.86549  19492349.9514   19492355.9764
  18643078.256    -5148162.26649  -3995813.76649  18643081.2164   18643086.5894
  21647725.170   -21835684.272 9 -16987226.123 9  21647730.248    21647736.693
  23522457.985    -5202701.02259  -4033883.35759  23522464.2244   23522473.0124
  21073404.856   -24622148.79649 -18908127.07549  21073408.2074   21073414.0734
 96  2 17 19  7 29.9950000  0  7 29 27 19 18 28  2 31
  19992330.121    -5282230.28349  -4118257.76049  19992333.2414   19992338.6284
  21683893.692   -22113059.28949 -16942245.73049  21683897.2934   21683904.1864
  19475551.244   -26428161.70949 -20588341.15749  19475554.4274   19475560.8894
  18633714.584    -5197367.04249  -4034155.15549  18633717.9614   18633723.2514
  21635757.427   -21898590.855 9 -17036244.212 9  21635759.892    21635766.459
  23494128.098    -5351580.76249  -4149893.41949  23494131.4784   23494140.5714
  21050667.066   -24741630.93349 -19001229.92749  21050671.0644   21050678.0054
 96  2 17 19  7 59.9950000  0  7 29 27 19 18 28  2 31
  19994361.958    -5271544.21749  -4109930.96749  19994366.4954   19994371.9934
  21659961.085   -22238846.82749 -17040261.96849  21659961.5194   21659967.4124
  19458786.921   -26516253.55649 -20656984.14549  19458791.1774   19458797.2184
  18624430.938    -5246151.68549  -4072169.16349  18624434.4234   18624439.8974
  21623879.785   -21961010.639 9 -17084882.984 9  21623881.763    21623887.563
  23465819.785    -5500384.83349  -4265844.51849  23465816.3914   23465822.9964
  21027989.752   -24860809.42749 -19094096.18349  21027992.3224   21027999.1354
 96  2 17 19  8 29.9950000  0  7 29 27 19 18 28  2 31
  19996458.734    -5260529.17249  -4101347.82949  19996462.7574   19996467.8114
  21636027.533   -22364586.92749 -17138241.21549  21636033.9004   21636040.5834
  19442054.640   -26604183.16249 -20725500.71049  19442058.9534   19442064.8454
  18615225.274    -5294531.70549  -4109867.88849  18615227.9724   18615233.3624
  21612090.005   -22022952.094 9 -17133149.021 9  21612094.301    21612100.656
  23437506.865    -5649117.27749  -4381739.78949  23437512.9064   23437522.1614
  21005368.456   -24979686.14649 -19186727.31149  21005370.3834   21005377.8334
 96  2 17 19  8 59.9950000  0  7 29 27 19 18 28  2 31
  19998615.219    -5249192.11849  -4092513.76849  19998620.1684   19998625.8064
  21612108.419   -22490293.38649 -17236194.26249  21612112.5474   21612119.7894
  19425350.971   -26691961.90849 -20793899.71849  19425355.1864   19425361.0014
  18606093.759    -5342506.88449  -4147251.14549  18606098.4684   18606103.9484
  21600396.277   -22084416.223 9 -17181043.115 9  21600398.643    21600404.312
  23409224.470    -5797773.13149  -4497575.40449  23409226.0744   23409233.2924
  20982806.264   -25098253.81249 -19279117.61749  20982808.0634   20982815.0874
 96  2 17 19  9 29.9950000  0  7 29 27 19 18 28  2 31
  20000830.363    -5237553.51449  -4083444.73849  20000835.3364   20000840.5954
  21588192.852   -22615977.53149 -17334129.92249  21588195.5904   21588203.0184
  19408674.379   -26779597.91349 -20862187.50349  19408678.5204   19408684.8754
  18597040.873    -5390089.41649  -4184328.44849  18597043.8914   18597049.4224
  21588788.062   -22145403.645 9 -17228565.752 9  21588792.185    21588799.085
  23380943.549    -5946355.15849  -4613353.49049  23380950.9594   23380959.7774
  20960305.954   -25216487.02749 -19371247.32249  20960309.4454   20960315.4624
 96  2 17 19  9 59.9950000  0  7 29 27 19 18 28  2 31
  20003105.200    -5225603.11449  -4074132.75149  20003108.7874   20003114.6924
  21564281.572   -22741638.45949 -17432047.48449  21564283.1864   21564290.2864
  19392025.571   -26867088.78149 -20930362.18549  19392029.5384   19392035.6354
  18588067.775    -5437241.46149  -4221070.30249  18588071.0994   18588076.5254
  21577278.626   -22205902.705 9 -17275707.831 9  21577279.934    21577285.922
  23352686.251    -6094874.73349  -4729082.91949  23352689.0154   23352697.6254
  20937879.348   -25334341.63049 -19463082.02049  20937882.5294   20937888.4594
 96  2 17 19 10 29.9950000  0  7 29 27 19 18 28  2 31
  20005438.094    -5213337.19649  -4064574.90149  20005442.9624   20005448.8294
  21540369.702   -22867285.22749 -17529954.00549  21540373.1484   21540379.3164
  19375402.600   -26954443.59949 -20998430.86649  19375406.3694   19375412.4834
  18579179.508    -5483950.07549  -4257466.62549  18579182.9794   18579188.3534
  21565856.594   -22265916.095 9 -17322471.488 9  21565859.404    21565865.557
  23324434.704    -6243348.46549  -4844776.64549  23324433.7244   23324442.8814
  20915522.076   -25451818.28549 -19554622.21849  20915527.7464   20915533.7544
 96  2 17 19 10 59.9940000  0  7 29 27 19 18 28  2 31
  20007832.862    -5200755.26749  -4054770.81249  20007837.2744   20007843.0374
  21516463.409   -22992915.06749 -17627847.33949  21516466.2874   21516473.0154
  19358803.693   -27041673.52449 -21066402.22449  19358807.0434   19358813.0754
  18570376.327    -5530210.11149  -4293513.41349  18570380.0124   18570385.4564
  21554528.095   -22325443.504 9 -17368856.449 9  21554531.558    21554537.429
  23296184.142    -6391779.91349  -4960437.42349  23296188.5134   23296198.1074
  20893237.530   -25568931.64049 -19645879.32349  20893241.0954   20893247.3304
 96  2 17 19 11 29.9940000  0  7 29 27 19 18 28  2 31
  20010288.522    -5187846.94749  -4044712.39149  20010293.2794   20010299.0874
  21492558.156   -23118534.79349 -17725732.79049  21492561.8494   21492568.6724
  19342228.055   -27128779.15749 -21134276.73349  19342231.4064   19342237.5214
  18561660.807    -5576017.29349  -4329207.32749  18561663.3884   18561668.5694
  21543293.425   -22384483.968 9 -17414861.986 9  21543296.860    21543303.010
  23267948.598    -6540171.88949  -5076067.42349  23267951.1274   23267960.0894
  20871019.934   -25685687.34949 -19736857.75849  20871022.2024   20871029.2844
 96  2 17 19 11 59.9940000  0  7 29 27 19 18 28  2 31
  20012812.501    -5174597.87449  -4034388.45449  20012814.9324   20012820.5674
  21468656.156   -23244136.43149 -17823604.15149  21468660.1694   21468667.1554
  19325674.710   -27215765.54849 -21202058.32149  19325678.5674   19325684.7224
  18553033.598    -5621352.87349  -4364533.75349  18553036.0304   18553041.5644
  21532154.221   -22443031.677 9 -17460483.528 9  21532157.004    21532162.053
  23239725.210    -6688508.43349  -5191654.22049  23239723.2734   23239732.7234
  20848868.271   -25802092.77949 -19827563.24949  20848872.3404   20848878.0254
 96  2 17 19 12 29.9940000  0  7 29 27 19 18 28  2 31
  20015395.429    -5161015.71549  -4023804.95649  20015399.8184   20015405.6174
  21444759.156   -23369721.93949 -17921462.95449  21444762.7604   21444768.9484
  19309144.433   -27302634.55549 -21269748.44649  19309147.7414   19309153.8184
  18544492.552    -5666230.94449  -4399503.67949  18544496.0234   18544501.4584
  21521103.508   -22501090.810 9 -17505724.391 9  21521107.530    21521113.338
  23211497.233    -6836785.59349  -5307194.74749  23211506.7014   23211516.5914
  20826780.893   -25918164.34549 -19918008.58549  20826784.4314   20826790.6464
 96  2 17 19 12 59.9940000  0  7 29 27 19 18 28  2 31
  20018038.748    -5147124.53949  -4012980.68449  20018042.9654   20018049.0354
  21420860.656   -23495309.45749 -18019323.31149  21420864.0944   21420870.5124
  19292634.449   -27389393.50249 -21337352.81349  19292638.2554   19292644.0274
  18536037.509    -5710664.51649  -4434127.24449  18536040.6204   18536046.1824
  21510147.323   -22558671.149 9 -17550592.159 9  21510150.388    21510156.373
  23183306.019    -6984999.33249  -5422685.84549  23183303.1324   23183312.0344
  20804755.678   -26033909.78449 -20008199.80949  20804759.3854   20804764.8074
 96  2 17 19 13 29.9940000  0  7 29 27 19 18 28  2 31
  20020739.160    -5132935.50949  -4001924.31049  20020743.1224   20020749.5034
  21396960.873   -23620895.54849 -18117182.55149  21396965.3144   21396971.6374
  19276147.524   -27476035.47349 -21404866.02349  19276150.7764   19276156.7014
  18527664.610    -5754662.49649  -4468411.38549  18527668.1904   18527673.5994
  21499281.193   -22615771.685 9 -17595086.051 9  21499283.576    21499290.592
  23155108.136    -7133151.74649  -5538129.14649  23155110.1434   23155119.1164
  20782792.932   -26149313.18749 -20098124.50549  20782797.7514   20782803.9114
 96  2 17 19 13 59.9940000  0  7 29 27 19 18 28  2 31
  20023496.798    -5118446.68649  -3990634.33549  20023500.1714   20023506.0044
  21373064.361   -23746477.11549 -18215038.27249  21373068.5184   21373074.2044
  19259682.886   -27562556.60949 -21472285.08349  19259686.5184   19259692.5154
  18519371.604    -5798235.07249  -4502364.04749  18519376.5424   18519382.1574
  21488509.956   -22672385.477 9 -17639200.693 9  21488511.649    21488517.383
  23126922.495    -7281242.72949  -5653524.57149  23126928.6004   23126939.0924
  20760902.045   -26264365.23149 -20187775.41849  20760904.0784   20760910.6414
 96  2 17 19 14 29.9940000  0  7 29 27 19 18 28  2 31
  20026312.234    -5103650.53749  -3979104.87949  20026316.1304   20026321.5724
  21349169.639   -23872049.50249 -18312886.86149  21349172.2174   21349179.3684
  19243244.918   -27648938.38949 -21539595.55649  19243248.5744   19243254.4644
  18511159.341    -5841397.60549  -4535997.18949  18511163.1054   18511168.3194
  21477828.231   -22728508.588 9 -17682932.959 9  21477831.051    21477836.714
  23098756.868    -7429260.03449  -5768862.56649  23098761.7744   23098771.8114
  20739075.902   -26379053.49549 -20277142.86349  20739080.2944   20739085.4924
 96  2 17 19 14 59.9940000  0  7 29 27 19 18 28  2 31
  20029183.178    -5088557.76649  -3967344.29249  20029187.9304   20029193.5874
  21325273.928   -23997623.20349 -18410736.45149  21325276.8464   21325282.9794
  19226830.914   -27735189.86849 -21606804.49449  19226835.4144   19226841.4694
  18503019.449    -5884172.03849  -4569327.91749  18503023.3594   18503028.7774
  21467238.827   -22784154.278 9 -17726293.216 9  21467243.235    21467248.139
  23070603.296    -7577209.61249  -5884147.79549  23070609.2064   23070617.4914
  20717320.683   -26493388.58449 -20366235.09649  20717322.3024   20717328.7024
 96  2 17 19 15 29.9940000  0  7 29 27 19 18 28  2 31
  20032114.381    -5073155.05849  -3955342.19449  20032119.2314   20032124.7684
  21301378.963   -24123182.69549 -18508574.99749  21301383.7604   21301389.9724
  19210442.892   -27821311.29249 -21673912.09149  19210447.0764   19210453.0224
  18494953.850    -5926562.59449  -4602359.52149  18494956.6244   18494962.1394
  21456739.841   -22839320.994 9 -17769280.231 9  21456744.461    21456750.816
  23042459.925    -7725100.40249  -5999387.21149  23042464.9524   23042475.0314
  20695630.202   -26607359.13949 -20455043.30449  20695635.0694   20695641.0954
 96  2 17 19 15 59.9940000  0  7 29 27 19 18 28  2 31
  20035107.468    -5057429.75949  -3943088.72949  20035111.6584   20035117.1384
  21277491.243   -24248722.44849 -18606398.14949  21277494.3894   21277500.5444
  19194082.632   -27907288.18649 -21740907.06949  19194086.4104   19194092.4094
  18486962.281    -5968551.82549  -4635078.40049  18486966.3924   18486971.8684
  21446334.329   -22894004.011 9 -17811890.352 9  21446338.878    21446344.697
  23014332.271    -7872924.61249  -6114574.75249  23014335.6104   23014345.4034
  20674014.584   -26720962.06049 -20543565.01649  20674016.5284   20674022.6064
 96  2 17 19 16 29.9940000  0  7 29 27 19 18 28  2 31
  20038158.526    -5041399.59349  -3930597.69549  20038162.0734   20038167.4354
  21253605.379   -24374231.53549 -18704197.39449  21253610.7794   21253616.1434
  19177749.818   -27993114.96149 -21807785.05749  19177753.9464   19177759.7544
  18479053.695    -6010116.42949  -4667466.40049  18479056.9854   18479062.3254
  21436020.363   -22948210.115 9 -17854128.828 9  21436024.645    21436029.216
  22986216.054    -8020684.85649  -6229712.45849  22986217.7514   22986226.5954
  20652464.807   -26834204.36749 -20631805.73049  20652468.1124   20652473.7344
 96  2 17 19 16 59.9940000  0  7 29 27 19 18 28  2 31
  20041263.102    -5025073.37349  -3917875.98549  20041268.7864   20041273.9264
  21229728.989   -24499713.79549 -18801975.75849  21229733.0054   21229738.6854
  19161446.943   -28078791.03649 -21874545.63749  19161450.3754   19161456.0284
  18471230.555    -6051223.46949  -4699497.87349  18471234.3494   18471239.8204
  21425798.406   -23001932.641 9 -17895990.530 9  21425800.879    21425808.448
  22958107.027    -8168392.71349  -6344809.36149  22958110.0274   22958119.2694
  20630983.549   -26947081.86049 -20719762.18849  20630987.5304   20630993.2164
 96  2 17 19 17 29.9940000  0  8 29 27 16 19 18 28  2 31
  20044429.094    -5008455.65149  -3904927.12649  20044430.6914   20044436.9124
  21205849.756   -24625181.75149 -18899742.95949  21205856.5964   21205862.2294
  23089563.477     -525773.05459   -381866.43259  23089565.0334   23089572.6514
  19145170.800   -28164320.93449 -21941192.29749  19145174.7454   19145180.4174
  18463498.644    -6091859.11549  -4731162.02149  18463501.7364   18463507.4074
  21415663.936   -23055173.515 9 -17937476.887 9  21415668.222    21415675.501
  22930009.910    -8316056.63049  -6459872.01449  22930010.8014   22930019.3074
  20609574.310   -27059594.73049 -20807434.50449  20609576.9604   20609583.1634
 96  2 17 19 17 59.9940000  0  8 29 27 16 19 18 28  2 31
  20047643.795    -4991544.68549  -3891749.76349  20047648.5564   20047654.6554
  21181980.159   -24750636.35049 -18997499.76549  21181983.5644   21181989.6724
  23065644.343     -651455.91359   -479801.07159  23065648.8104   23065655.9614
  19128928.034   -28249679.86149 -22007705.74049  19128931.2884   19128936.9864
  18455858.817    -6132001.07249  -4762441.47149  18455863.0104   18455868.5784
  21405630.046   -23107918.723 9 -17978576.997 9  21405631.165    21405638.378
  22901917.288    -8463662.08649  -6574889.10649  22901921.6954   22901931.1834
  20588233.900   -27171731.32749 -20894813.62849  20588237.9854   20588244.2614
 96  2 17 19 18 29.9940000  0  8 29 27 16 19 18 28  2 31
  20050920.287    -4974331.37849  -3878336.81749  20050924.6204   20050930.3724
  21158108.308   -24876075.34849 -19095244.41149  21158112.6444   21158119.0634
  23041792.190     -776806.73749   -577477.00749  23041795.0004   23041801.8094
  19112716.815   -28334869.36149 -22074087.16349  19112720.3564   19112725.7614
  18448313.371    -6171655.86449  -4793341.31749  18448317.0774   18448322.6094
  21395686.867   -23160156.115 9 -18019281.455 9  21395690.133    21395696.906
  22873843.945    -8611187.51849  -6689843.85149  22873848.4474   22873857.3924
  20566971.714   -27283478.70949 -20981889.46349  20566973.1764   20566979.8044
 96  2 17 19 18 59.9940000  0  8 29 27 16 19 18 28  2 31
  20054254.865    -4956803.98649  -3864679.12949  20054260.1274   20054265.7764
  21134240.886   -25001498.73649 -19192976.89849  21134245.7454   21134251.1864
  23018002.731     -901815.93449   -674886.72449  23018006.9924   23018013.2864
  19096536.149   -28419894.16449 -22140340.24849  19096540.5604   19096546.1294
  18440858.270    -6210835.49049  -4823870.90549  18440861.4384   18440866.9024
  21385846.742   -23211878.792 9 -18059584.827 9  21385848.831    21385854.099
  22845788.117    -8758620.28149  -6804726.38249  22845792.7614   22845800.3954
  20545779.405   -27394822.08949 -21068650.48849  20545784.7084   20545791.2934
 96  2 17 19 19 29.9940000  0  8 29 27 16 19 18 28  2 31
  20057649.151    -4938973.55449  -3850785.31149  20057653.4164   20057658.8164
  21110383.500   -25126884.09249 -19290679.75149  21110385.1014   21110391.7994
  22994282.720    -1026464.05549   -772015.10349  22994286.6694   22994293.8324
  19080386.284   -28504763.93649 -22206472.53449  19080390.2324   19080396.0014
  18433489.157    -6249562.89649  -4854048.11649  18433491.8604   18433497.1504
  21376099.455   -23263089.789 9 -18099489.481 9  21376102.253    21376110.674
  22817753.679    -8905949.71349  -6919528.39849  22817757.4294   22817765.2944
  20524673.750   -27505751.21249 -21155088.71049  20524675.9284   20524682.4504
 96  2 17 19 19 59.9940000  0  8 29 27 16 19 18 28  2 31
  20061096.469    -4920854.19449  -3836666.34349  20061101.3934   20061106.7964
  21086532.602   -25252215.31649 -19388340.41549  21086535.4494   21086541.7054
  22970633.215    -1150742.66649   -868855.59449  22970637.2314   22970644.6974
  19064263.305   -28589490.25849 -22272493.03049  19064267.2884   19064273.1224
  18426202.829    -6287848.02149  -4883880.68549  18426205.8954   18426211.7244
  21366452.498   -23313789.359 9 -18138995.628 9  21366456.536    21366461.845
  22789742.399    -9053162.72549  -7034239.67549  22789744.4814   22789751.5534
  20503641.985   -27616266.12649 -21241204.17249  20503645.0514   20503652.0014
 96  2 17 19 20 29.9940000  0  8 29 27 16 19 18 28  2 31
  20064598.355    -4902454.78449  -3822329.16149  20064602.3024   20064607.9854
  21062693.762   -25377484.08949 -19485952.41849  21062698.0434   21062704.5884
  22947056.062    -1274651.06249   -965407.54749  22947059.3224   22947065.8784
  19048162.930   -28674097.54349 -22338420.78049  19048167.0154   19048173.2984
  18419000.474    -6325690.02449  -4913367.96849  18419004.8834   18419010.5054
  21356902.287   -23363984.968 9 -18178109.084 9  21356904.584    21356908.701
  22761748.825    -9200255.79349  -7148857.48049  22761752.0534   22761760.3524
  20482689.561   -27726371.21849 -21327000.29949  20482693.4634   20482699.3714
 96  2 17 19 20 59.9940000  0  8 29 27 16 19 18 28  2 31
  20068151.255    -4883783.43649  -3807780.07949  20068155.5594   20068161.0404
  21038868.219   -25502685.05749 -19583511.56949  21038872.7244   21038878.8174
  22923551.202    -1398174.52649  -1061659.58249  22923553.3284   22923559.6564
  19032086.319   -28758580.83549 -22404251.90549  19032090.4384   19032096.3094
  18411886.856    -6363081.23449  -4942503.98449  18411889.4924   18411895.2514
  21347442.748   -23413681.641 9 -18216833.762 9  21347446.946    21347452.058
  22733776.325    -9347243.78949  -7263393.40349  22733780.8044   22733788.4834
  20461814.800   -27836071.52149 -21412481.00349  20461817.3814   20461824.3964
 96  2 17 19 21 29.9940000  0  8 29 27 16 19 18 28  2 31
  20071755.953    -4864843.19749  -3793021.47549  20071760.0484   20071765.5734
  21015053.898   -25627840.65249 -19681035.38549  21015056.1304   21015062.0714
  22900116.111    -1521322.02249  -1157618.63149  22900118.3974   22900125.4544
  19016032.655   -28842945.92249 -22469990.92249  19016036.5264   19016042.6004
  18404856.315    -6400025.04949  -4971291.37749  18404859.5764   18404865.4084
  21338081.267   -23462888.240 9 -18255176.564 9  21338082.532    21338088.503
  22705826.957    -9494134.15549  -7377853.27249  22705828.8454   22705837.1044
  20441011.543   -27945380.38549 -21497656.68549  20441017.2044   20441023.1144
 96  2 17 19 21 59.9940000  0  8 29 27 16 19 18 28  2 31
  20075413.650    -4845618.19149  -3778040.97549  20075418.0054   20075423.9564
  20991240.167   -25752979.68749 -19778546.29749  20991243.3244   20991248.9644
  22876747.186    -1644123.63049  -1253308.17149  22876749.8954   22876756.5474
  19000001.196   -28927193.28349 -22535638.20449  19000004.4044   19000010.5084
  18397911.106    -6436521.71449  -4999730.34649  18397914.7484   18397920.1734
  21328806.894   -23511615.368 9 -18293145.776 9  21328810.967    21328817.769
  22677890.031    -9640937.32849  -7492245.19149  22677893.5144   22677901.4584
  20420285.964   -28054313.40449 -21582539.51049  20420287.7174   20420293.9824
 96  2 17 19 22 29.9940000  0  8 29 27 16 19 18 28  2 31
  20079133.822    -4826078.27649  -3762815.09249  20079136.6624   20079142.1294
  20967431.640   -25878101.29149 -19876043.61549  20967433.4824   20967439.9364
  22853443.388    -1766583.53149  -1348731.48849  22853447.5074   22853454.7474
  18983996.745   -29011295.12849 -22601172.10649  18984000.6734   18984006.5114
  18391051.311    -6472570.37949  -5027820.22149  18391054.6044   18391060.4744
  21319629.919   -23559850.012 9 -18330731.224 9  21319633.234    21319637.806
  22649965.935    -9787656.09349  -7606571.33849  22649973.0914   22649980.4094
  20399631.940   -28162849.84549 -21667113.31049  20399634.2164   20399640.6254
 96  2 17 19 22 59.9940000  0  8 29 27 16 19 18 28  2 31
  20082911.031    -4806226.92349  -3747346.52149  20082914.0044   20082919.7984
  20943619.969   -26003221.72249 -19973540.02549  20943623.9604   20943629.8734
  22830202.108    -1888719.17049  -1443902.10749  22830205.1754   22830212.1954
  18968021.130   -29095249.74049 -22666591.27749  18968024.4294   18968030.5744
  18384272.165    -6508193.99849  -5055578.89049  18384276.1034   18384281.4964
  21310544.689   -23607597.313 9 -18367936.916 9  21310546.679    21310551.809
  22622061.158    -9934297.69349  -7720837.34649  22622067.6094   22622076.8824
  20379051.140   -28270992.59949 -21751380.32849  20379055.7914   20379061.2494
 96  2 17 19 23 29.9940000  0  8 29 27 16 19 18 28  2 31
  20086744.843    -4786071.58449  -3731641.08449  20086749.4064   20086755.3044
  20919805.907   -26128353.16149 -20071045.00749  20919811.7764   20919818.5154
  22807018.504    -2010548.54549  -1538834.08349  22807022.4894   22807028.6424
  18952069.931   -29179071.41449 -22731906.86349  18952073.8734   18952079.7324
  18377571.361    -6543409.55549  -5083019.59349  18377574.7054   18377580.0654
  21301548.466   -23654864.461 9 -18404768.446 9  21301550.984    21301557.397
  22594170.980   -10080864.88149  -7835045.38749  22594177.1354   22594185.0244
  20358547.336   -28378738.90249 -21835338.44049  20358551.2074   20358558.2744
 96  2 17 19 23 59.9940000  0  8 29 27 16 19 18 28  2 31
  20090634.859    -4765628.45949  -3715711.40349  20090639.7234   20090645.6124
  20895996.547   -26253492.14449 -20168555.88149  20895998.4404   20896005.0974
  22783892.121    -2132075.332 9
  18936142.784   -29262768.66449 -22797125.49449  18936146.7994   18936152.5164
  18370945.376    -6578228.55649  -5110151.28549  18370948.6464   18370954.2204
  21292645.933   -23701655.348 9 -18441228.885 9  21292648.632    21292653.311
  22566292.737   -10227371.73249  -7949206.41349  22566297.5804   22566304.4754
  20338123.970   -28486081.26649 -21918981.78849  20338125.5884   20338131.0004
 96  2 17 19 24 29.9940000  0  8 29 27 16 19 18 28  2 31
  20094576.347    -4744922.28549  -3699576.74349  20094580.1044   20094585.7504
  20872179.838   -26378639.03949 -20266072.91349  20872184.2244   20872190.7064
  22760829.987    -2253270.499 9
  18920239.399   -29346343.79349 -22862248.96549  18920242.8244   18920248.5654
  18364395.694    -6612644.42049  -5136968.84349  18364399.6854   18364405.1294
  21283830.374   -23747965.598 9 -18477314.799 9  21283834.761    21283839.800
  22538426.599   -10373825.99049  -8063326.46849  22538427.9324   22538436.0054
  20317773.476   -28593016.34849 -22002307.79149  20317776.3144   20317782.5924
 96  2 17 19 24 59.9940000  0  8 29 27 16 19 18 28  2 31
  20098566.264    -4723957.53549  -3683240.60149  20098569.6364   20098575.3244
  20848364.207   -26503786.99049 -20363590.76549  20848369.0434   20848376.0494
  22737835.140    -2374111.881 9
  18904357.399   -29429805.54249 -22927284.08949  18904360.8234   18904366.8144
  18357930.031    -6646621.75249  -5163444.69449  18357934.1674   18357939.4844
  21275112.428   -23793789.465 9 -18513021.685 9  21275114.741    21275121.078
  22510572.374   -10520212.68449  -8177393.89349  22510572.8874   22510579.2114
  20297501.969   -28699534.76849 -22085309.11149  20297506.3014   20297512.9914
 96  2 17 19 25 29.9930000  0  8 29 27 16 19 18 28  2 31
  20102605.306    -4702731.82749  -3666701.11149  20102608.8614   20102614.2604
  20824551.586   -26628931.51349 -20461105.94849  20824554.6304   20824561.5874
  22714909.396    -2494588.437 9
  18888495.992   -29513155.96449 -22992232.46849  18888499.6524   18888505.6944
  18351551.484    -6680144.21349  -5189566.09449  18351555.0074   18351560.4214
  21266483.044   -23839123.918 9 -18548347.247 9  21266486.806    21266494.605
  22482726.768   -10666533.14849  -8291409.69449  22482727.6564   22482735.8534
  20277315.035   -28805627.20549 -22167978.50449  20277317.6554   20277324.7934
 96  2 17 19 25 59.9930000  0  8 29 27 16 19 18 28  2 31
  20106695.563    -4681232.93549  -3649948.75249  20106699.9384   20106705.4244
  20800736.957   -26754073.22749 -20558618.92049  20800740.9384   20800747.7714
  22692054.187    -2614688.095 9
  18872656.826   -29596389.95249 -23057090.11649  18872660.8994   18872666.7034
  18345262.823    -6713188.49049  -5215314.87949  18345266.8384   18345272.2654
  21257952.128   -23883962.069 9 -18583286.071 9  21257953.770    21257962.069
  22454893.036   -10812787.57549  -8405374.06149  22454896.0464   22454904.7474
  20257206.328   -28911297.26549 -22250318.76849  20257209.2004   20257215.4014
 96  2 17 19 26 29.9930000  0  8 29 27 16 19 18 28  2 31
  20110840.368    -4659454.74849  -3632978.76449  20110844.2224   20110849.5564
  20776927.176   -26879195.39549 -20656116.69249  20776931.2784   20776938.1014
  22669271.587    -2734405.26759   -136208.35959  22669275.2684   22669284.0824
  18856842.645   -29679492.71349 -23121845.51449  18856846.7904   18856852.7144
  18339067.927    -6745743.76349  -5240682.62949  18339071.5664   18339076.8614
  21249513.748   -23928302.812 9 -18617837.284 9  21249517.222    21249523.307
  22427080.718   -10958957.84049  -8519272.85649  22427080.8554   22427089.2464
  20237177.312   -29016544.15349 -22332329.28449  20237181.6374   20237187.2064
 96  2 17 19 26 59.9930000  0  8 29 27 16 19 18 28  2 31
  20115042.512    -4637371.43049  -3615771.01449  20115046.7494   20115051.9524
  20753125.716   -27004272.13449 -20753579.05749  20753130.0544   20753136.0984
  22646562.466    -2853743.98549   -229199.54459  22646565.5864   22646577.0064
  18841059.387   -29762436.44449 -23186476.99449  18841063.0124   18841068.9514
  18332967.877    -6777800.16849  -5265661.64749  18332971.5884   18332976.9934
  21241173.936   -23972129.062 9 -18651987.606 9  21241177.600    21241183.409
  22399285.109   -11105006.63249  -8633076.99549  22399287.9954   22399296.0904
  20217237.622   -29121338.38049 -22413987.09349  20217239.7254   20217245.3024
 96  2 17 19 27 29.9930000  0  8 29 27 16 19 18 28  2 31
  20119306.070    -4614964.43149  -3598311.04249  20119310.1254   20119316.0944
  20729337.046   -27129286.70449 -20850992.96849  20729340.7324   20729347.1724
  22623928.572    -2972686.88649   -321882.30849  22623933.5344   22623940.8874
  18825312.106   -29845185.76249 -23250956.97049  18825316.1954   18825322.3794
  18326960.384    -6809371.06649  -5290262.35249  18326964.0384   18326969.1644
  21232935.179   -24015431.575 9 -18685729.835 9  21232937.909    21232942.054
  22371516.284   -11250923.35549  -8746778.23249  22371521.6004   22371529.9154
  20197381.988   -29225670.30449 -22495284.65049  20197385.2994   20197391.8774
 96  2 17 19 27 59.9930000  0  8 29 27 16 19 18 28  2 31
  20123631.874    -4592240.87049  -3580604.40149  20123634.5924   20123640.2814
  20705563.712   -27254222.06149 -20948345.16149  20705566.5454   20705572.7074
  22601376.175    -3091211.85249   -414239.42349  22601378.5474   22601383.8424
  18809605.807   -29927726.83249 -23315274.68349  18809609.5204   18809615.3964
  18321043.825    -6840463.99649  -5314490.61349  18321047.1604   18321052.5124
  21224794.422   -24058206.690 9 -18719061.080 9  21224797.121    21224803.215
  22343779.862   -11396692.50749  -8860364.46449  22343782.9454   22343789.8774
  20177618.699   -29329527.76949 -22576212.50549  20177622.2864   20177627.9564
 96  2 17 19 28 29.9930000  0  8 29 27 16 19 18 28  2 31
  20128011.871    -4569210.60349  -3562658.76949  20128017.1234   20128022.7624
  20681801.936   -27379080.07049 -21045637.08449  20681806.1774   20681813.0414
  22578899.385    -3209320.35449   -506272.01149  22578903.0824   22578909.9974
  18793938.425   -30010058.99049 -23379429.60649  18793942.2254   18793947.9844
  18315214.042    -6871097.52049  -5338360.89549  18315217.8654   18315223.3194
  21216754.948   -24100450.463 9 -18751978.292 9  21216759.087    21216765.323
  22316070.153   -11542307.53249  -8973830.62149  22316073.9334   22316080.7164
  20157948.866   -29432897.59949 -22656760.38349  20157951.7984   20157957.1844
 96  2 17 19 28 59.9930000  0  8 29 27 16 19 18 28  2 31
  20132454.117    -4545877.78249  -3544477.38249  20132457.0984   20132463.1564
  20658052.971   -27503875.89449 -21142880.54449  20658058.3594   20658065.2944
  22556504.819    -3327000.97949   -597971.19349  22556508.1214   22556516.3864
  18778307.716   -30092198.34549 -23443434.28849  18778311.6554   18778317.5744
  18309470.931    -6901277.57349  -5361877.82049  18309474.6784   18309480.3094
  21208818.940   -24142162.005 9 -18784480.806 9  21208821.642    21208827.655
  22288386.752   -11687770.36749  -9087178.18849  22288391.9304   22288400.2064
  20138372.251   -29535776.39149 -22736925.62449  20138374.6864   20138379.9884
 96  2 17 19 29 29.9930000  0  8 29 27 16 19 18 28  2 31
  20136950.533    -4522239.94449  -3526058.31749  20136955.3154   20136961.1624
  20634319.202   -27628605.90749 -21240072.72949  20634322.8654   20634329.6494
  22534195.042    -3444240.60649   -689326.70849  22534199.7244   22534206.4434
  18762710.324   -30174163.65649 -23507303.35249  18762714.3244   18762720.2474
  18303814.919    -6931000.26649  -5385038.36649  18303818.5534   18303824.2764
  21200981.061   -24183339.900 9 -18816567.501 9  21200985.259    21200993.083
  22260735.203   -11833076.60249  -9200403.72749  22260741.1994   22260748.4504
  20118883.100   -29638176.37249 -22816717.78049  20118888.1644   20118894.2604
 96  2 17 19 29 59.9930000  0  8 29 27 16 19 18 28  2 31
  20141505.300    -4498312.26049  -3507413.40749  20141509.0204   20141514.9424
  20610596.443   -27753269.90849 -21337213.47649  20610600.2424   20610606.7854
  22511963.784    -3561059.31249   -780354.23649  22511968.7494   22511976.8374
  18747142.088   -30255977.07449 -23571054.05449  18747145.7524   18747151.4894
  18298245.681    -6960265.76349  -5407842.65549  18298249.6524   18298255.0994
  21193249.122   -24223983.656 9 -18848237.950 9  21193252.104    21193257.392
  22233118.017   -11978216.61349  -9313499.75849  22233122.0924   22233130.1704
  20099489.772   -29740101.83749 -22896140.17449  20099492.5184   20099498.4894
 96  2 17 19 30 29.9930000  0  8 29 27 16 19 18 28  2 31
  20146113.969    -4474086.93349  -3488536.55949  20146118.8234   20146124.5994
  20586883.549   -27877876.28649 -21434309.33449  20586888.1424   20586894.8744
  22489813.313    -3677474.80849   -871067.58749  22489815.9934   22489824.7124
  18731601.512   -30337643.75249 -23634690.41749  18731605.1004   18731610.7644
  18292764.944    -6989065.43149  -5430283.96149  18292769.0324   18292774.7074
  21185613.647   -24264098.075 9 -18879495.955 9  21185617.605    21185624.462
  22205527.157   -12123196.93849  -9426471.35549  22205532.5694   22205540.9934
  20080179.491   -29841572.09149 -22975207.87849  20080183.8284   20080189.4534
 96  2 17 19 30 59.9930000  0  8 29 27 16 19 18 28  2 31
  20150787.773    -4449533.01249  -3469403.66249  20150791.1654   20150796.9664
  20563191.654   -28002384.73349 -21531328.87949  20563195.6684   20563202.0064
  22467740.667    -3793456.80549   -961443.16249  22467745.1854   22467752.5194
  18716094.082   -30419135.93149 -23698190.79949  18716097.4634   18716103.0484
  18287380.389    -7017362.40549  -5452333.55349  18287384.3254   18287389.8054
  21178085.820   -24303668.149 9 -18910329.800 9  21178088.713    21178094.539
  22177974.196   -12267993.01849  -9539299.40949  22177979.4574   22177986.6804
  20060957.866   -29942578.12549 -23053913.83949  20060962.7854   20060968.7494
 96  2 17 19 31 29.9930000  0  8 29 27 16 19 18 28  2 31
  20155520.978    -4424665.82049  -3450026.66349  20155523.6004   20155528.4454
  20539517.612   -28126795.15849 -21628272.04949  20539520.9414   20539527.2974
  22445746.665    -3909030.14249  -1051500.31249  22445751.4634   22445760.1294
  18700621.237   -30500445.94449 -23761549.24249  18700624.7384   18700630.1864
  18282088.495    -7045171.06649  -5474002.64449  18282092.4804   18282098.1624
  21170656.440   -24342707.822 9 -18940750.350 9  21170658.536    21170665.211
  22150456.625   -12412624.65549  -9651999.33149  22150456.9454   22150464.0624
  20041824.481   -30043136.41449 -23132270.91849  20041827.1024   20041833.0784
 96  2 17 19 31 59.9930000  0  8 29 27 16 19 18 28  2 31
  20160307.638    -4399495.55349  -3430413.49349  20160312.8894   20160318.5784
  20515860.457   -28251114.40549 -21725144.16649  20515864.0654   20515869.8294
  22423836.328    -4024187.23549  -1141233.06649  22423837.8574   22423846.2594
  18685185.865   -30581558.64049 -23824753.92949  18685189.5124   18685195.1124
  18276891.452    -7072486.00949  -5495287.02049  18276894.6794   18276900.5644
  21163328.011   -24381219.449 9 -18970759.445 9  21163329.967    21163336.448
  22122956.544   -12557119.25649  -9764592.47049  22122960.3404   22122967.9344
  20022777.612   -30143228.19849 -23210264.48249  20022779.9164   20022785.9984
 96  2 17 19 32 29.9930000  0  8 29 27 16 19 18 28  2 31
  20165158.155    -4374013.37849  -3410557.27649  20165161.8384   20165167.6124
  20492217.817   -28375355.27349 -21821955.21249  20492221.3534   20492227.1944
  22402004.312    -4138907.66749  -1230625.55249  22402009.0374   22402016.2344
  18669790.926   -30662458.38649 -23887792.68249  18669794.7204   18669800.4204
  18271789.845    -7099293.90949  -5516176.29849  18271793.1774   18271798.8884
  21156101.072   -24419201.527 9 -19000355.872 9  21156102.652    21156109.608
  22095484.919   -12701489.41949  -9877088.65949  22095486.4324   22095495.5634
  20003821.930   -30242838.92149 -23287883.19649  20003824.7764   20003830.9344
 96  2 17 19 32 59.9930000  0  8 29 27 16 19 18 28  2 31
  20170059.146    -4348256.40549  -3390486.93849  20170063.4734   20170069.2834
  20468583.926   -28499546.52649 -21918727.59149  20468588.5264   20468594.5784
  22380250.516    -4253219.59149  -1319699.74449  22380255.6084   22380263.1034
  18654430.613   -30743174.96249 -23950688.70749  18654434.8604   18654440.5244
  18266777.388    -7125638.14849  -5536704.28149  18266780.3654   18266785.9194
  21148968.617   -24456675.032 9 -19029556.046 9  21148972.963    21148979.577
  22068031.780   -12845767.36949  -9989512.98149  22068031.8654   22068039.9684
  19984956.209   -30341978.84949 -23365135.07449  19984959.1084   19984965.3464
 96  2 17 19 33 29.9930000  0  8 29 27 16 19 18 28  2 31
  20175013.280    -4322229.13749  -3370205.98149  20175016.1714   20175021.7714
  20444955.961   -28623712.82749 -22015480.53449  20444960.7634   20444966.8764
  22358572.026    -4367141.55749  -1408470.11649  22358575.5964   22358584.1284
  18639104.177   -30823717.84849 -24013449.39149  18639108.2464   18639113.8204
  18261849.361    -7151536.83149  -5556885.07949  18261852.0274   18261857.6214
  21141935.445   -24493639.734 9 -19058359.709 9  21141937.364    21141944.421
  22040590.919   -12989964.88349 -10101874.65149  22040593.0994   22040599.7574
  19966182.464   -30440631.20549 -23442007.01449  19966186.1314   19966191.6894
 96  2 17 19 33 59.9930000  0  8 29 27 16 19 18 28  2 31
  20180014.512    -4295942.02249  -3349722.55249  20180018.9864   20180023.7624
  20421329.054   -28747872.90349 -22112228.62949  20421333.3644   20421340.0154
  22336968.245    -4480676.56349  -1496938.93749  22336970.9084   22336978.1284
  18623805.578   -30904111.36949 -24076093.69049  18623809.8434   18623815.3514
  18256999.031    -7177012.86249  -5576736.53749  18257004.0264   18257009.5804
  21134991.557   -24530105.902 9 -19086774.883 9  21134997.331    21135004.295
  22013164.856   -13134076.64649 -10214169.49249  22013169.0534   22013176.2214
  19947501.442   -30538799.08049 -23518501.44749  19947505.8544   19947511.5644
 96  2 17 19 34 29.9930000  0  8 29 27 16 19 18 28  2 31
  20185067.806    -4269386.83249  -3329030.22149  20185072.0564   20185077.4984
  20397703.273   -28872021.77149 -22208967.98349  20397709.2964   20397714.9694
  22315435.739    -4593836.21549  -1585115.28349  22315438.5174   22315445.2394
  18608533.914   -30984365.89849 -24138629.67749  18608537.6224   18608543.3194
  18252232.351    -7202071.53949  -5596262.78249  18252235.3624   18252240.9834
  21128151.349   -24566071.037 9 -19114799.715 9  21128154.542    21128161.869
  21985763.186   -13278074.93949 -10326375.92149  21985766.5114   21985773.4644
  19928910.371   -30636493.92549 -23594627.27549  19928914.6564   19928920.8414
 96  2 17 19 34 59.9930000  0  8 29 27 16 19 18 28  2 31
  20190168.946    -4242586.03549  -3308146.51849  20190172.4884   20190177.9454
  20374080.482   -28996164.25349 -22305702.36349  20374085.2974   20374091.0694
  22293969.347    -4706644.08949  -1673017.51249  22293972.3434   22293978.8964
  18593282.182   -31064518.38449 -24201086.15749  18593285.3154   18593291.0154
  18247538.564    -7226732.63449  -5615479.22449  18247542.5654   18247548.3634
  21121399.597   -24601556.077 9 -19142450.380 9  21121403.238    21121406.770
  21958381.754   -13421965.62549 -10438498.49849  21958385.0044   21958393.1024
  19910404.097   -30733740.56749 -23670403.86749  19910409.1474   19910415.5514
 96  2 17 19 35 29.9930000  0  8 29 27 16 19 18 28  2 31
  20195318.764    -4215513.19149  -3287050.83349  20195324.0984   20195329.7724
  20350462.483   -29120279.62249 -22402415.62049  20350467.0324   20350472.4544
  22272575.987    -4819066.48549  -1760619.36449  22272578.5934   22272585.5034
  18578052.621   -31144546.87649 -24263446.01949  18578056.0294   18578061.7414
  18242927.560    -7250962.78649  -5634359.87049  18242931.8324   18242937.5044
  21114739.840   -24636546.391 9 -19169715.551 9  21114743.689    21114751.466
  21931026.890   -13565716.65449 -10550512.23049  21931029.9354   21931037.9574
  19891991.778   -30830517.68549 -23745814.58449  19891993.0864   19891999.3934
 96  2 17 19 35 59.9930000  0  8 29 27 16 19 18 28  2 31
  20200526.305    -4188157.29849  -3265734.58849  20200529.7044   20200535.1184
  20326852.246   -29244351.23049 -22499094.76949  20326856.6074   20326862.7324
  22251259.571    -4931083.70249  -1847905.48349  22251262.0554   22251270.0044
  18562848.921   -31224436.45749 -24325697.63749  18562853.6694   18562859.4314
  18238406.043    -7274729.09449  -5652879.07949  18238409.3924   18238414.9374
  21108179.831   -24671034.231 9 -19196589.193 9  21108181.803    21108188.299
  21903702.615   -13709310.17749 -10662403.23749  21903705.0264   21903712.9594
  19873663.503   -30926825.51249 -23820859.63149  19873666.6904   19873672.5534
 96  2 17 19 36 29.9930000  0  8 29 27 16 19 18 28  2 31
  20205783.183    -4160528.36649  -3244205.58449  20205787.1134   20205792.9134
  20303252.877   -29368377.71849 -22595738.76949  20303255.3464   20303260.6744
  22230019.209    -5042700.34449  -1934879.48149  22230022.3674   22230029.5534
  18547675.629   -31304182.92149 -24387837.73849  18547678.4294   18547684.1334
  18233974.545    -7298016.93649  -5671025.45749  18233977.8434   18233983.5744
  21101709.980   -24705023.413 9 -19223074.260 9  21101713.353    21101718.244
  21876404.325   -13852759.90649 -10774182.19449  21876407.9994   21876415.2354
  19855426.111   -31022660.05449 -23895535.88849  19855429.4354   19855435.4004
 96  2 17 19 36 59.9930000  0  8 29 27 16 19 18 28  2 31
  20211091.956    -4132622.06449  -3222460.45449  20211097.5404   20211103.1304
  20279659.548   -29492350.33249 -22692340.78649  20279664.1424   20279670.2394
  22208860.072    -5153894.74549  -2021524.45849  22208863.2914   22208869.9514
  18532529.838   -31383767.01749 -24449851.31749  18532534.2364   18532540.0794
  18229633.145    -7320827.65449  -5688800.04849  18229636.8784   18229642.5864
  21095337.210   -24738510.185 9 -19249167.811 9  21095340.400    21095346.020
  21849134.808   -13996066.50149 -10885849.61249  21849137.4844   21849144.9084
  19837282.136   -31118006.44049 -23969831.75549  19837285.5164   19837291.7104
 96  2 17 19 37 29.9930000  0  8 29 27 16 19 18 28  2 31
  20216459.470    -4104432.20649  -3200494.36749  20216462.2474   20216467.7664
  20256079.281   -29616269.02449 -22788900.78449  20256083.0754   20256088.7364
  22187782.010    -5264656.19749  -2107832.07249  22187785.9434   22187792.5464
  18517420.623   -31463167.16149 -24511721.55849  18517424.6134   18517430.5424
  18225382.790    -7343165.66249  -5706206.29849  18225386.1374   18225391.8144
  21089062.112   -24771491.558 9 -19274867.574 9  21089064.802    21089071.542
  21821889.171   -14139238.80549 -10997412.39149  21821893.0494   21821900.0734
  19819233.784   -31212854.78849 -24043739.54749  19819236.7574   19819242.2654
 96  2 17 19 37 59.9930000  0  8 29 27 16 19 18 28  2 31
  20221872.987    -4075972.60049  -3178318.08949  20221877.7274   20221883.6274
  20232506.016   -29740142.34549 -22885425.43549  20232510.6534   20232516.4834
  22166785.932    -5374983.36349  -2193801.29749  22166790.3354   22166796.9564
  18502345.865   -31542387.34549 -24573451.57349  18502349.6734   18502355.7094
  18221221.986    -7365031.99649  -5723245.01349  18221225.2644   18221230.6004
  21082879.589   -24803967.437 9 -19300173.481 9  21082884.329    21082890.411
  21794669.802   -14282284.73349 -11108876.68949  21794672.3254   21794679.9464
  19801280.103   -31307208.45949 -24117261.88549  19801281.5814   19801287.7314
 96  2 17 19 38 29.9930000  0  8 29 27 16 19 18 28  2 31
  20227335.929    -4047267.95649  -3155950.86849  20227339.4294   20227345.9884
  20208941.212   -29863978.54549 -22981921.15249  20208945.2284   20208951.4224
  22145875.202    -5484872.53249  -2279429.20049  22145879.3734   22145887.5124
  18487301.384   -31621447.19849 -24635056.65249  18487305.2364   18487311.0804
  18217145.351    -7386448.77149  -5739933.42149  18217149.9874   18217155.3474
  21076795.101   -24835948.230 9 -19325093.521 9  21076800.219    21076805.919
  21767470.724   -14425218.50549 -11220253.59649  21767471.9064   21767481.1894
  19783416.141   -31401073.76349 -24190403.66649  19783419.9674   19783426.2574
 96  2 17 19 38 59.9930000  0  8 29 27 16 19 18 28  2 31
  20232849.905    -4018286.44849  -3133367.91149  20232855.1914   20232860.6504
  20185386.594   -29987762.54849 -23078376.19649  20185390.8204   20185396.7484
  22125052.242    -5594301.09249  -2364698.19549  22125055.6684   22125063.1544
  18472290.387   -31700332.22549 -24696525.50849  18472293.8244   18472299.6704
  18213160.707    -7407397.61049  -5756257.20749  18213163.3434   18213168.7574
  21070808.227   -24867418.221 9 -19349615.589 9  21070810.420    21070817.981
  21740294.087   -14568021.59049 -11331528.67149  21740297.4984   21740305.8324
  19765652.400   -31494435.81949 -24263153.30449  19765653.7704   19765660.3204
 96  2 17 19 39 29.9920000  0  8 29 27 16 19 18 28  2 31
  20238415.171    -3989044.05649  -3110581.67149  20238419.2904   20238425.8424
  20161841.097   -30111496.68349 -23174792.37249  20161844.3464   20161850.1994
  22104314.786    -5703280.35549  -2449617.08449  22104317.4384   22104325.6314
  18457311.395   -31779047.75249 -24757862.28049  18457314.7074   18457320.5404
  18209265.838    -7427863.02549  -5772204.30049  18209269.2134   18209274.4934
  21064914.815   -24898376.067 9 -19373738.615 9  21064919.862    21064924.643
  21713146.274   -14710685.34449 -11442695.17749  21713149.7054   21713156.4394
  19747979.256   -31587291.27749 -24335508.19249  19747983.6694   19747989.4654
 96  2 17 19 39 59.9920000  0  8 29 27 16 19 18 28  2 31
  20244027.761    -3959554.99249  -3087603.21249  20244031.6494   20244037.1234
  20138304.823   -30235182.90349 -23271171.22349  20138307.9584   20138313.9464
  22083657.546    -5811827.92349  -2534199.60149  22083662.6224   22083668.4334
  18442361.582   -31857603.29649 -24819074.39249  18442366.1544   18442372.1184
  18205461.910    -7447847.53349  -5787776.66149  18205466.2464   18205471.7274
  21059123.792   -24928820.103 9 -19397461.179 9  21059126.610    21059131.754
  21686026.831   -14853202.53949 -11553747.47149  21686029.3794   21686037.1784
  19730404.781   -31679650.73749 -24407476.58249  19730408.4604   19730414.3574
 96  2 17 19 40 29.9920000  0  8 29 27 16 19 18 28  2 31
  20249684.913    -3929827.12149  -3064438.68049  20249688.6784   20249694.4914
  20114778.234   -30358806.27349 -23367501.10249  20114782.5484   20114788.7494
  22063080.761    -5919957.61549  -2618456.50749  22063086.9254   22063092.7504
  18427443.970   -31936002.92249 -24880165.01049  18427447.4544   18427453.3944
  18201747.519    -7467372.52049  -5802990.95749  18201750.7924   18201756.2414
  21053422.628   -24958758.768 9 -19420790.049 9  21053428.283    21053434.976
  21658934.755   -14995574.92749 -11664686.93349  21658936.7874   21658944.3354
  19712924.472   -31771512.14649 -24479056.88549  19712927.6814   19712933.5924
 96  2 17 19 40 59.9920000  0  8 29 27 16 19 18 28  2 31
  20255384.289    -3899860.11949  -3041087.80449  20255390.9214   20255397.2584
  20091266.220   -30482369.44549 -23463784.06849  20091269.4844   20091275.7574
  22042583.061    -6027682.25949  -2702397.80049  22042587.7134   22042594.9824
  18412555.699   -32014234.61049 -24941124.77049  18412560.3654   18412566.2574
  18198118.181    -7486444.56949  -5817852.31049  18198121.4724   18198126.8654
  21047826.566   -24988192.193 9 -19443725.172 9  21047828.302    21047834.124
  21631870.529   -15137798.38549 -11775510.34149  21631871.7954   21631879.8464
  19695537.938   -31862870.81649 -24550245.43449  19695542.8684   19695549.0884
 96  2 17 19 41 29.9920000  0  8 29 27 16 19 18 28  2 31
  20261132.554    -3869679.22949  -3017570.27349  20261133.8354   20261139.6844
  20067760.560   -30605882.33949 -23560027.85949  20067765.5764   20067771.9474
  22022160.844    -6135004.02759  -2786025.18059  22022163.3504   22022168.3264
  18397701.330   -32092304.08949 -25001958.12649  18397704.4724   18397709.9144
  18194573.221    -7505074.43549  -5832369.10549  18194576.3294   18194581.7654
  21042318.712   -25017124.916 9 -19466270.155 9  21042320.928    21042327.796
  21604832.252   -15279873.39149 -11886218.07849  21604837.2434   21604843.8164
  19678249.651   -31953732.01149 -24621046.34149  19678252.5814   19678258.6634
 96  2 17 19 41 59.9920000  0  8 29 27 16 19 18 28  2 31
  20266917.511    -3839270.95149  -2993875.55049  20266921.6884   20266926.4724
  20044266.315   -30729352.25549 -23656238.16649  20044270.5194   20044276.3734
  22001817.090    -6241909.70659  -2869328.29259  22001820.2544   22001824.5634
  18382872.754   -32170223.87249 -25062674.84349  18382876.6194   18382882.2214
  18191108.583    -7523271.45349  -5846548.61249  18191113.4884   18191118.8504
  21036905.519   -25045565.440 9 -19488431.596 9  21036909.607    21036915.997
  21577826.367   -15421808.03249 -11996816.42749  21577826.7404   21577833.7584
  19661054.282   -32044091.40049 -24691456.23449  19661057.8014   19661063.4484
 96  2 17 19 42 29.9920000  0  8 29 27 16 19 18 28  2 31
  20272754.747    -3808594.58749  -2969971.92249  20272758.3754   20272764.3274
  20020781.677   -30852766.84949 -23752405.37449  20020785.3884   20020791.3304
  21981559.890    -6348361.83659  -2952278.00759  21981563.6894   21981571.4684
  18368077.769   -32247970.17249 -25123256.38049  18368082.1744   18368087.8304
  18187735.810    -7541001.11749  -5860363.95249  18187739.6214   18187744.9484
  21031592.781   -25073495.863 9 -19510195.594 9  21031596.354    21031599.923
  21550845.338   -15563579.09949 -12107287.33849  21550848.4244   21550856.3724
  19643961.027   -32133918.11949 -24761451.05649  19643964.2694   19643970.3974
 96  2 17 19 42 59.9920000  0  8 29 27 16 19 18 28  2 31
  20278644.040    -3777642.34649  -2945853.32949  20278648.2434   20278654.4164
  19997300.548   -30976150.09349 -23848548.13549  19997306.2204   19997311.9454
  21961390.431    -6454351.92749  -3034867.68949  21961391.7284   21961401.6454
  18353316.356   -32325545.15649 -25183704.40949  18353319.6724   18353325.5384
  18184452.459    -7558252.39549  -5873806.51949  18184456.5794   18184462.4204
  21026373.320   -25100915.916 9 -19531561.852 9  21026376.862    21026382.224
  21523901.042   -15705175.81249 -12217622.38649  21523902.9544   21523910.5804
  19626966.290   -32223219.69849 -24831036.68149  19626970.5654   19626976.4904
 96  2 17 19 43 29.9920000  0  8 29 27 16 19 18 28  2 31
  20284588.283    -3746410.40049  -2921516.77749  20284591.2664   20284597.8594
  19973829.498   -31099499.84749 -23944664.80949  19973833.5054   19973839.7154
  21941309.169    -6559884.25549  -3117100.67549  21941311.9074   21941319.0944
  18338582.002   -32402973.32949 -25244038.05549  18338585.8214   18338591.6634
  18181259.545    -7575036.10149  -5886884.75249  18181262.9704   18181268.2434
  21021253.813   -25127835.059 9 -19552537.841 9  21021255.684    21021259.423
  21496987.272   -15846602.16949 -12327824.69749  21496990.5134   21496998.5434
  19610072.098   -32312002.61549 -24900218.16749  19610076.0364   19610081.4344
 96  2 17 19 43 59.9920000  0  8 29 27 16 19 18 28  2 31
  20290586.099    -3714894.64449  -2896959.09149  20290588.5474   20290595.1754
  19950367.100   -31222800.75149 -24040743.40949  19950370.6074   19950376.4124
  21921312.849    -6664962.40949  -3198979.74049  21921316.1464   21921322.4384
  18323877.216   -32480246.36649 -25304250.81049  18323881.5084   18323887.0684
  18178152.052    -7591363.97049  -5899607.77749  18178155.8544   18178161.2194
  21016223.318   -25154255.925 9 -19573125.532 9  21016226.848    21016232.398
  21470106.372   -15987864.12149 -12437898.90249  21470109.9894   21470116.4534
  19593276.862   -32400261.84549 -24968991.58049  19593280.9184   19593286.8764
 96  2 17 19 44 29.9920000  0  8 29 27 16 19 18 28  2 31
  20296628.502    -3683130.26049  -2872207.65049  20296633.5104   20296639.9984
  19926910.803   -31346058.98449 -24136788.76249  19926915.0744   19926920.8224
  21901397.058    -6769601.34049  -3280516.55049  21901401.8294   21901411.6164
  18309204.682   -32557357.55249 -25364337.44049  18309207.4734   18309213.2294
  18175126.007    -7607270.32749  -5912002.35549  18175129.0704   18175134.5704
  21011287.964   -25180190.344 9 -19593334.238 9  21011291.701    21011298.076
  21443251.742   -16128979.05649 -12547858.54549  21443255.7024   21443263.9684
  19576578.618   -32488014.53849 -25037370.28449  19576581.9584   19576587.6564
 96  2 17 19 44 59.9920000  0  8 29 27 16 19 18 28  2 31
  20302717.193    -3651131.49849  -2847273.58849  20302722.5274   20302728.6794
  19903465.444   -31469268.41949 -24232796.10549  19903469.2914   19903475.1044
  21881571.057    -6873814.32149  -3361721.45349  21881573.8064   21881580.8894
  18294558.485   -32634315.82949 -25424304.92749  18294562.8294   18294568.3434
  18172175.925    -7622770.82549  -5924080.67849  18172179.5514   18172184.7464
  21006444.806   -25205645.438 9 -19613169.325 9  21006449.173    21006454.008
  21416422.512   -16269966.78449 -12657719.06749  21416427.1214   21416434.8634
  19559975.017   -32575264.57849 -25105357.30849  19559978.6984   19559984.5134
 96  2 17 19 45 29.9920000  0  8 29 27 16 19 18 28  2 31
  20308851.495    -3618896.57649  -2822155.50149  20308856.8714   20308862.3864
  19880035.073   -31592394.35449 -24328738.38049  19880039.0384   19880044.8784
  21861818.870    -6977597.86249  -3442591.72449  21861822.3754   21861831.5974
  18279948.013   -32711099.81549 -25484136.59749  18279951.1044   18279956.9974
  18169304.977    -7637856.70749  -5935835.91949  18169308.8924   18169314.0794
  21001694.610   -25230613.946 9 -19632625.337 9  21001696.139    21001704.038
  21389616.388   -16410828.26849 -12767481.22049  21389621.9304   21389629.9164
  19543471.149   -32661992.84349 -25172937.76449  19543475.6064   19543480.7104
 96  2 17 19 45 59.9920000  0  8 29 27 16 19 18 28  2 31
  20315024.203    -3586453.63849  -2796875.32249  20315030.3784   20315036.1954
  19856613.290   -31715477.07149 -24424646.97549  19856616.7764   19856622.4274
  21842148.391    -7080978.73349  -3523148.24349  21842151.6074   21842158.1604
  18265367.700   -32787717.49849 -25543838.68149  18265371.2404   18265377.2134
  18166511.895    -7652537.33949  -5947275.38949  18166514.8944   18166520.4114
  20997029.481   -25255118.001 9 -19651719.466 9  20997033.995    20997038.840
  21362831.826   -16551588.04649 -12877164.14049  21362836.0734   21362843.9574
  19527060.599   -32748223.68949 -25240130.61549  19527066.2134   19527070.9874
 96  2 17 19 46 29.9920000  0  8 29 27 16 19 18 28  2 31
  20321241.342    -3553793.98549  -2771426.28049  20321245.3304   20321251.4524
  19833196.563   -31838532.60049 -24520534.38849  19833200.0044   19833205.8944
  21822551.301    -7183962.54649  -3603395.33149  21822551.9634   21822560.8724
  18250814.380   -32864188.06549 -25603426.13149  18250819.4164   18250825.2864
  18163798.438    -7666797.10649  -5958386.91049  18163801.5194   18163806.8924
  20992456.581   -25279158.640 9 -19670452.398 9  20992458.830    20992464.958
  21336069.504   -16692235.24449 -12986759.33349  21336072.3884   21336079.7654
  19510746.353   -32833964.42449 -25306941.56449  19510749.5884   19510755.5404
 96  2 17 19 46 59.9920000  0  8 29 27 16 19 18 28  2 31
  20327496.466    -3520921.55849  -2745811.44249  20327500.3374   20327507.5324
  19809782.418   -31961571.87049 -24616409.13049  19809786.7864   19809792.7554
  21803024.467    -7286570.21849  -3683349.34649  21803027.8294   21803035.5904
  18236285.347   -32940550.63249 -25662929.42749  18236288.2054   18236293.9574
  18161167.785    -7680618.57349  -5969156.89649  18161171.2914   18161176.6504
  20987964.074   -25302750.137 9 -19688835.438 9  20987969.205    20987976.489
  21309324.060   -16832772.56049 -13096268.89049  21309328.8174   21309337.0044
  19494522.615   -32919228.16649 -25373380.83249  19494524.4944   19494530.0284
 96  2 17 19 47 29.9920000  0  8 29 27 16 19 18 28  2 31
  20333791.136    -3487840.95849  -2720034.38249  20333795.4484   20333802.4084
  19786370.584   -32084601.46249 -24712276.32449  19786374.7984   19786380.5024
  21783573.711    -7388790.18949  -3763001.25249  21783575.6164   21783584.6654
  18221774.007   -33016801.68749 -25722345.82649  18221777.9024   18221783.8514
  18158619.547    -7694005.02049  -5979587.90749  18158623.9364   18158629.3584
  20983563.194   -25325888.433 9 -19706865.282 9  20983566.193    20983574.372
  21282605.563   -16973180.85449 -13205677.91049  21282610.4484   21282617.5034
  19478386.447   -33004017.73049 -25439450.60649  19478389.2314   19478395.5504
 96  2 17 19 47 59.9920000  0  8 29 27 16 19 18 28  2 31
  20340127.676    -3454553.34849  -2694096.02149  20340130.2124   20340136.2344
  19762959.521   -32207632.75749 -24808144.84849  19762962.6324   19762968.3294
  21764195.603    -7490604.93449  -3842337.38549  21764201.4254   21764208.5934
  18207281.189   -33092955.57649 -25781686.51449  18207286.4624   18207292.2714
  18156153.936    -7706961.78249  -5989684.09349  18156158.1734   18156163.7834
  20979247.059   -25348573.400 9 -19724541.927 9  20979249.132    20979255.897
  21255913.017   -17113449.26949 -13314977.93849  21255918.0994   21255925.9664
  19462339.073   -33088340.04949 -25505156.30749  19462343.1834   19462349.7054
 96  2 17 19 48 29.9920000  0  8 29 27 16 19 18 28  2 31
  20346500.360    -3421060.13049  -2667997.45149  20346503.7464   20346510.5534
  19739552.582   -32330642.96149 -24903996.94949  19739554.5664   19739560.3104
  21744906.110    -7591989.99049  -3921338.70349  21744908.6314   21744917.1434
  18192812.724   -33169001.42549 -25840943.01449  18192815.4274   18192821.3004
  18153769.832    -7719490.72549  -5999446.91349  18153774.1174   18153779.5874
  20975016.131   -25370800.433 9 -19741861.670 9  20975019.323    20975025.877
  21229250.967   -17253571.36949 -13424163.95649  21229254.3314   21229261.4654
  19446384.092   -33172190.02149 -25570493.93249  19446387.6854   19446393.5074
 96  2 17 19 48 59.9920000  0  8 29 27 16 19 18 28  2 31
  20352912.648    -3387353.95849  -2641732.95349  20352918.1554   20352924.9874
  19716151.231   -32453612.24149 -24999817.15749  19716154.2144   19716160.3034
  21725700.296    -7692910.41849  -3999977.98649  21725703.0134   21725711.0794
  18178367.789   -33244901.36749 -25900085.82849  18178372.2584   18178377.9654
  18151469.943    -7731580.48849  -6008867.52149  18151473.6734   18151479.1764
  20970879.462   -25392549.899 9 -19758809.367 9  20970881.873    20970887.993
  21202616.484   -17393534.45049 -13533226.04549  21202620.0274   21202627.5474
  19430525.115   -33255535.64749 -25635438.57149  19430527.0474   19430533.1624
 96  2 17 19 49 29.9920000  0  8 29 27 16 19 18 28  2 31
  20359368.320    -3353439.37049  -2615306.04549  20359371.7254   20359378.3834
  19692755.784   -32576553.84449 -25095615.79449  19692759.5424   19692765.1464
  21706587.983    -7793367.88649  -4078256.52849  21706590.2734   21706594.4384
  18163956.070   -33320637.90049 -25959101.30249  18163959.9664   18163965.8034
  18149247.540    -7743258.15149  -6017967.01149  18149251.4924   18149256.9964
  20966830.210   -25413826.299 9 -19775388.412 9  20966832.775    20966837.066
  21176009.195   -17533349.08749 -13642172.46749  21176013.7904   21176021.4704
  19414758.984   -33338374.07149 -25699987.98249  19414763.2564   19414769.6614
 96  2 17 19 49 59.9920000  0  8 29 27 16 19 18 28  2 31
  20365859.840    -3319319.89349  -2588719.49249  20365864.6984   20365871.0824
  19669369.301   -32699456.98949 -25191384.46949  19669371.8454   19669377.6044
  21687549.619    -7893380.50249  -4156188.43049  21687554.7354   21687562.8494
  18149575.829   -33396207.01549 -26017986.32649  18149579.4714   18149585.2364
  18147106.396    -7754517.69249  -6026740.69049  18147109.0564   18147114.2944
  20962870.016   -25434634.421 9 -19791602.538 9  20962873.578    20962879.402
  21149429.586   -17673032.99749 -13751017.03049  21149432.8294   21149440.0394
  19399095.913   -33420694.41149 -25764133.69749  19399098.6494   19399104.7444
 96  2 17 19 50 29.9920000  0  8 29 27 16 19 18 28  2 31
  20372389.859    -3285004.90449  -2561980.57949  20372394.1064   20372401.1084
  19645987.048   -32822322.28449 -25287123.64849  19645990.8254   19645997.1134
  21668603.027    -7992959.67549  -4233782.58249  21668606.9624   21668613.6024
  18135229.707   -33471594.61549 -26076729.90849  18135233.8034   18135239.4954
  18145042.008    -7765359.87949  -6035189.15549  18145045.8474   18145051.2344
  20959000.192   -25454975.012 9 -19807452.367 9  20959002.444    20959008.627
  21122870.921   -17812593.84149 -13859765.66849  21122875.5434   21122882.8444
  19383530.710   -33502476.42349 -25827859.93549  19383536.3134   19383542.0454
 96  2 17 19 50 59.9920000  0  8 29 27 16 19 18 28  2 31
  20378955.421    -3250499.31749  -2535093.16149  20378960.4194   20378966.1014
  19622614.850   -32945142.75549 -25382827.90149  19622619.3714   19622625.1574
  21649734.370    -8092117.10149  -4311048.08949  21649736.2034   21649744.2974
  18120914.824   -33546819.83649 -26135346.96049  18120918.8634   18120924.7914
  18143057.640    -7775783.73149  -6043311.64749  18143062.0864   18143067.6884
  20955215.349   -25474849.453 9 -19822938.949 9  20955220.404    20955226.240
  21096337.220   -17952032.54949 -13968419.14949  21096341.0674   21096348.1444
  19368075.231   -33583709.44249 -25891158.39149  19368077.8244   19368083.5804
 96  2 17 19 51 29.9920000  0  8 29 27 16 19 18 28  2 31
  20385558.502    -3215802.43249  -2508056.68149  20385562.6084   20385569.1744
  19599257.720   -33067884.29149 -25478470.63949  19599262.1404   19599267.9674
  21630947.259    -8190851.50349  -4387983.97449  21630948.2774   21630957.0994
  18106630.760   -33621883.97149 -26193838.49549  18106634.5074   18106640.5054
  18141155.619    -7785782.65949  -6051103.03249  18141159.4384   18141165.0704
  20951523.165   -25494253.459 9 -19838058.984 9  20951527.600    20951534.352
  21069828.553   -18091337.64449 -14076968.49349  21069831.8344   21069839.3364
  19352719.062   -33664403.46249 -25954036.83249  19352722.6134   19352728.6934
 96  2 17 19 51 59.9920000  0  8 29 27 16 19 18 28  2 31
  20392196.752    -3180919.98349  -2480875.59849  20392201.5894   20392207.2954
  19575918.893   -33190540.47349 -25574046.87849  19575921.8734   19575927.0104
  21612238.055    -8289157.92949  -4464586.39249  21612242.7454   21612249.3884
  18092374.596   -33696796.16049 -26252211.63149  18092379.1944   18092385.1014
  18139335.142    -7795353.17549  -6058560.58649  18139338.1474   18139343.7574
  20947922.645   -25513190.365 9 -19852815.015 9  20947924.803    20947931.094
  21043344.078   -18230512.56949 -14185416.43149  21043347.8334   21043354.9924
  19337462.797   -33744566.59849 -26016501.60449  19337467.6774   19337473.6954
 96  2 17 19 52 29.9920000  0  8 29 27 16 19 18 28  2 31
  20398874.244    -3145838.07249  -2453539.09249  20398876.4404   20398884.4504
  19552592.796   -33313120.02149 -25669563.40049  19552595.4804   19552601.2804
  21593617.723    -8387014.43649  -4540838.19049  21593620.1984   21593628.7274
  18078148.265   -33771563.13049 -26310471.61149  18078151.7814   18078157.3864
  18137595.013    -7804497.25449  -6065685.85449  18137598.4134   18137603.9314
  20944406.803   -25531658.227 9 -19867205.551 9  20944410.784    20944416.370
  21016885.987   -18369541.73249 -14293750.78949  21016890.9524   21016898.6654
  19322311.329   -33824205.77249 -26078558.09649  19322313.2214   19322319.1664
 96  2 17 19 52 59.9920000  0  8 29 27 16 19 18 28  2 31
  20405590.218    -3110537.59049  -2426032.27749  20405594.9364   20405601.2024
  19529281.882   -33435617.71349 -25765016.14249  19529284.7964   19529290.6814
  21575083.140    -8484407.82849  -4616729.13749  21575086.6844   21575094.8374
  18063948.190   -33846182.27249 -26368616.40049  18063952.2104   18063957.9874
  18135936.231    -7813206.63849  -6072472.39349  18135940.9934   18135946.7444
  20940983.907   -25549651.117 9 -19881225.994 9  20940985.972    20940991.642
  20990460.132   -18508412.68349 -14401961.87149  20990464.5934   20990471.8824
  19307253.268   -33903330.07349 -26140213.38949  19307256.1334   19307262.3684
 96  2 17 19 53 29.9910000  0  8 29 27 16 19 18 28  2 31
  20412351.396    -3075020.03349  -2398356.30749  20412353.5684   20412360.1164
  19505980.496   -33558063.33449 -25860428.30449  19505984.3994   19505990.1924
  21556635.677    -8581349.26449  -4692267.92749  21556639.3644   21556646.1684
  18049778.978   -33920639.42749 -26426634.96549  18049783.5484   18049789.4794
  18134360.686    -7821495.23249  -6078931.05449  18134363.5754   18134369.4224
  20937646.637   -25567179.999 9 -19894884.854 9  20937650.794    20937656.306
  20964062.974   -18647125.32849 -14510049.61449  20964069.0514   20964075.7854
  19292290.750   -33981949.73649 -26201475.44549  19292295.6444   19292301.0534
 96  2 17 19 53 59.9910000  0  8 29 27 16 19 18 28  2 31
  20419151.358    -3039271.21449  -2370500.14149  20419155.6874   20419163.3354
  19482683.766   -33680489.82349 -25955825.55349  19482687.7074   19482693.3704
  21538273.978    -8677836.05449  -4767452.42449  21538278.0764   21538284.8544
  18035643.866   -33994925.48049 -26484520.19649  18035647.3384   18035653.2344
  18132864.083    -7829357.70649  -6085057.66849  18132867.5044   18132873.2144
  20934400.349   -25584241.758 9 -19908179.775 9  20934403.403    20934410.325
  20937700.182   -18785679.28449 -14618013.69449  20937703.0744   20937709.8754
  19277429.047   -34060046.08249 -26262329.72749  19277434.0164   19277439.9924
 96  2 17 19 54 29.9910000  0  8 29 27 16 19 18 28  2 31
  20425997.196    -3003301.31949  -2342471.70349  20426000.4464   20426007.6764
  19459390.362   -33802894.72749 -26051205.99749  19459394.9014   19459400.0424
  21520002.511    -8773859.97849  -4842276.25849  21520006.3384   21520014.2294
  18021543.004   -34069023.43449 -26542258.86549  18021546.9854   18021552.9484
  18131449.362    -7836784.71049  -6090844.95049  18131453.9554   18131459.5064
  20931242.545   -25600836.539 9 -19921110.802 9  20931246.304    20931251.766
  20911366.297   -18924057.07149 -14725840.51849  20911370.7104   20911378.1914
  19262672.474   -34137607.17349 -26322766.93049  19262674.9004   19262680.5044
 96  2 17 19 54 59.9910000  0  8 29 27 16 19 18 28  2 31
  20432878.213    -2967132.71049  -2314288.42849  20432883.6564   20432889.6554
  19436101.560   -33925274.33249 -26146566.71649  19436106.6244   19436111.7754
  21501815.101    -8869437.54949  -4916752.27649  21501819.4204   21501826.6614
  18007478.346   -34142934.14149 -26599851.62049  18007482.2234   18007488.1554
  18130119.802    -7843775.81849  -6096292.58049  18130123.7264   18130129.4644
  20928172.384   -25616968.031 9 -19933680.782 9  20928176.412    20928181.254
  20885068.825   -19062258.46949 -14833529.88849  20885071.6404   20885078.6894
  19248012.635   -34214637.66049 -26382790.66249  19248016.0954   19248022.7774
 96  2 17 19 55 29.9910000  0  8 29 27 16 19 18 28  2 31
  20439794.091    -2930787.48749  -2285967.53049  20439800.2894   20439805.4214
  19412819.809   -34047625.39549 -26241905.20049  19412824.0604   19412829.3134
  21483712.694    -8964568.75749  -4990880.49049  21483715.6514   21483721.3794
  17993448.860   -34216658.14949 -26657298.90249  17993452.8914   17993458.6884
  18128871.843    -7850337.70549  -6101405.75349  18128875.2134   18128880.8624
  20925189.254   -25632640.785 9 -19945893.366 9  20925193.540    20925200.217
  20858801.477   -19200282.18449 -14941080.80749  20858805.9954   20858812.8594
  19233455.123   -34291140.14849 -26442402.97749  19233458.3714   19233464.2394
 96  2 17 19 55 59.9910000  0  8 29 27 16 19 18 28  2 31
  20446742.138    -2894275.96649  -2257517.03349  20446748.2224   20446753.7884
  19389543.717   -34169934.27249 -26337210.80149  19389549.0874   19389554.7614
  21465695.937    -9059250.36949  -5064658.38149  21465697.4584   21465704.5804
  17979452.036   -34290215.00549 -26714615.93149  17979455.6884   17979461.1824
  18127702.957    -7856472.23249  -6106185.90849  18127707.5604   18127713.4904
  20922295.488   -25647859.920 9 -19957752.431 9  20922297.626    20922303.034
  20832573.162   -19338128.48649 -15048493.49349  20832575.2164   20832581.7074
  19218995.980   -34367118.35049 -26501606.74749  19218999.8964   19219006.0774
 96  2 17 19 56 29.9910000  0  8 29 27 16 19 18 28  2 31
  20453723.631    -2857596.91649  -2228936.00749  20453727.8494   20453734.8174
  19366282.450   -34292176.78749 -26432464.69849  19366287.4214   19366292.7064
  21447767.031    -9153477.65449  -5138082.23149  21447768.7314   21447773.7584
  17965482.766   -34363621.17049 -26771815.53749  17965486.7904   17965492.2914
  18126617.403    -7862186.05449  -6110638.25049  18126620.5534   18126626.2344
  20919485.813   -25662622.256 9 -19969255.611 9  20919488.559    20919494.615
  20806374.139   -19475798.76149 -15155769.00149  20806376.7524   20806384.4524
  19204635.461   -34442578.33349 -26560406.71649  19204640.8794   19204646.5224
 96  2 17 19 56 59.9910000  0  8 29 27 16 19 18 28  2 31
  20460734.486    -2820742.69249  -2200218.48249  20460740.8044   20460746.8824
  19343033.913   -34414352.09549 -26527666.22249  19343038.2444   19343043.3984
  21429916.234    -9247254.11349  -5211154.78849  21429922.2864   21429930.1294
  17951538.136   -34436903.71449 -26828918.81949  17951541.9314   17951547.4464
  18125605.321    -7867498.41149  -6114777.76149  18125609.6354   18125615.1754
  20916763.101   -25676929.760 9 -19980404.315 9  20916765.814    20916772.444
  20780208.202   -19613302.76849 -15262914.97049  20780211.1954   20780217.9444
  19190377.478   -34517523.11549 -26618805.22849  19190378.8064   19190385.1634
 96  2 17 19 57 29.9910000  0  8 29 27 16 19 18 28  2 31
  20467787.405    -2783691.89949  -2171347.76549  20467792.0154   20467797.2444
  19319798.097   -34536459.32449 -26622814.69849  19319801.7124   19319807.2564
  21412163.953    -9340566.58749  -5283865.80449  21412164.9944   21412171.3734
  17937617.421   -34510061.13449 -26885924.59549  17937620.3994   17937626.0744
  18124671.828    -7872406.18349  -6118602.01449  18124675.5984   18124681.0994
  20914127.586   -25690778.007 9 -19991195.231 9  20914130.178    20914137.385
  20754072.517   -19750648.16549 -15369937.33249  20754075.3144   20754081.4794
  19176217.573   -34591926.32949 -26676781.73149  19176220.2064   19176226.2774
 96  2 17 19 57 59.9910000  0  8 29 27 16 19 18 28  2 31
  20474878.599    -2746438.27649  -2142319.02149  20474881.1054   20474886.1784
  19296570.706   -34658514.07349 -26717922.27649  19296575.4304   19296581.1954
  21394487.226    -9433430.12049  -5356226.98649  21394493.4194   21394501.0644
  17923714.264   -34583113.00249 -26942848.13049  17923718.6954   17923724.8294
  18123812.601    -7876917.69349  -6122117.48749  18123817.1284   18123822.5484
  20911577.175   -25704183.593 9 -20001641.162 9  20911579.753    20911585.525
  20727961.188   -19887864.98349 -15476859.51449  20727963.8674   20727970.2504
  19162161.150   -34665791.01749 -26734338.62549  19162165.0484   19162170.2544
 96  2 17 19 58 29.9910000  0  8 29 27 16 19 18 28  2 31
  20482005.952    -2708986.66749  -2113135.98249  20482007.8294   20482012.9844
  19273354.155   -34780515.55449 -26812988.34549  19273359.3714   19273364.6304
  21376906.125    -9525844.21649  -5428237.98049  21376908.7544   21376914.9244
  17909837.520   -34656043.12249 -26999676.79349  17909840.9084   17909846.5944
  18123030.860    -7881024.34749  -6125317.49149  18123035.5874   18123041.2454
  20909109.290   -25717145.381 9 -20011741.290 9  20909112.685    20909119.532
  20701871.863   -20024964.14649 -15583690.00449  20701874.4944   20701882.1074
  19148211.976   -34739104.75049 -26791466.19649  19148213.5704   19148219.1004
 96  2 17 19 58 59.9910000  0  8 29 27 16 19 18 28  2 31
  20489169.110    -2671326.25549  -2083790.23849  20489173.8384   20489179.7604
  19250148.886   -34902464.13749 -26908013.19949  19250153.1534   19250158.8584
  21359405.752    -9617804.49049  -5499895.31449  21359409.9214   21359416.3484
  17895988.808   -34728817.93849 -27056384.44249  17895992.1504   17895997.8924
  18122333.383    -7884700.81249  -6128182.28249  18122336.0864   18122341.7454
  20906730.536   -25729653.220 9 -20021487.671 9  20906732.883    20906739.371
  20675808.003   -20161930.68249 -15690417.13649  20675810.7794   20675817.7624
  19134368.292   -34811843.19249 -26848145.49549  19134372.1074   19134377.2424
 96  2 17 19 59 29.9910000  0  8 29 27 16 19 18 28  2 31
  20496374.439    -2633462.90849  -2054286.39449  20496379.2634   20496385.6844
  19226951.507   -35024362.25149 -27002998.72349  19226956.6394   19226962.1894
  21341990.870    -9709315.49349  -5571202.59649  21341995.0084   21342001.3844
  17882174.740   -34801409.16749 -27112949.03249  17882178.2344   17882184.3614
  18121715.827    -7887940.77049  -6130706.93849  18121719.2554   18121724.9694
  20904436.011   -25741711.887 9 -20030884.084 9  20904438.305    20904444.534
  20649769.025   -20298761.17049 -15797038.26949  20649772.6624   20649780.4134
  19120636.428   -34884011.60149 -26904380.60649  19120638.6074   19120643.8964
 96  2 17 19 59 59.9910000  0  8 29 27 16 19 18 28  2 31
  20503615.296    -2595420.92349  -2024643.32549  20503618.7394   20503624.5834
  19203766.447   -35146207.44649 -27097943.00849  19203770.3004   19203776.2774
  21324661.134    -9800384.59449  -5642165.50849  21324665.1654   21324671.1624
  17868397.051   -34873808.99349 -27169364.47749  17868401.0654   17868407.0294
  18121178.084    -7890762.49249  -6132905.69249  18121182.5474   18121187.9004
  20902224.152   -25753329.231 9 -20039936.571 9  20902227.943    20902233.768
  20623759.178   -20435441.19849 -15903542.14949  20623763.5154   20623770.1294
  19107005.566   -34955625.64449 -26960183.76649  19107010.9924   19107016.8044
 96  2 17 20  0 29.9910000  0  8 29 27 16 19 18 28  2 31
  20510884.239    -2557230.77749  -1994884.81949  20510886.8244   20510892.2184
  19180588.634   -35268009.52149 -27192853.70649  19180592.3424   19180598.0394
  21307414.749    -9891011.35849  -5712783.77949  21307419.1534   21307426.9444
  17854655.697   -34946026.86149 -27225638.13849  17854658.6954   17854664.4704
  18120714.815    -7893194.95549  -6134801.13349  18120719.3174   18120725.1054
  20900096.032   -25764513.563 9 -20048651.630 9  20900099.430    20900106.069
  20597782.078   -20571954.32849 -16009915.97449  20597786.1524   20597792.6734
  19093484.317   -35026694.88749 -27015562.39249  19093486.9584   19093493.0194
 96  2 17 20  0 59.9910000  0  8 29 27 16 19 18 28  2 31
  20518177.575    -2518892.97449  -1965011.24949  20518180.6294   20518188.0614
  19157417.718   -35389772.12249 -27287733.64149  19157421.5284   19157427.3094
  21290255.471    -9981189.04149  -5783052.08349  21290258.0164   21290265.8424
  17840945.621   -35018064.98249 -27281771.73949  17840950.3924   17840956.3224
  18120325.202    -7895250.85549  -6136403.14049  18120327.8394   18120334.1994
  20898050.537   -25775264.252 9 -20057028.839 9  20898053.178    20898060.706
  20571841.117   -20708285.71249 -16116148.17449  20571843.1894   20571850.0924
  19080058.737   -35097237.03949 -27070530.30649  19080063.4034   19080069.3104
 96  2 17 20  1 29.9910000  0  8 29 27 16 19 18 28  2 31
  20525497.860    -2480425.26849  -1935036.47949  20525501.2434   20525507.3494
  19134253.621   -35511486.63049 -27382576.09849  19134260.0914   19134265.9544
  21273181.466   -10070908.34049  -5852963.22649  21273185.5314   21273192.9644
  17827269.214   -35089938.25949 -27337776.89049  17827273.2454   17827279.0494
  18120003.213    -7896933.42449  -6137714.24749  18120007.8574   18120013.6914
  20896086.734   -25785586.728 9 -20065072.354 9  20896090.170    20896094.897
  20545931.213   -20844443.35249 -16222244.99749  20545933.1024   20545940.3724
  19066732.929   -35167271.27349 -27125102.45149  19066736.1204   19066742.2994
 96  2 17 20  1 59.9910000  0  8 29 27 16 19 18 28  2 31
  20532839.526    -2441823.60349  -1904957.31149  20532848.2934   20532853.7004
  19111106.457   -35633135.89249 -27477367.71649  19111110.9834   19111117.0524
  21256198.895   -10160153.15749  -5922504.62249  21256202.7734   21256209.5934
  17813621.575   -35161658.45549 -27393662.75949  17813625.7634   17813631.3074
  18119758.420    -7898227.35849  -6138722.52249  18119761.9474   18119767.6124
  20894204.618   -25795474.533 9 -20072777.101 9  20894207.424    20894213.672
  20520051.839   -20980425.55449 -16328205.10249  20520056.0914   20520063.6044
  19053506.257   -35236791.19849 -27179273.81349  19053506.8874   19053513.0584
 96  2 17 20  2 29.9910000  0  8 29 27 16 19 18 28  2 31
  20540219.271    -2403075.77349  -1874764.25649  20540221.1894   20540227.4994
  19087969.954   -35754719.34549 -27572108.05449  19087974.1904   19087980.5084
  21239309.115   -10248920.68349  -5991674.13349  21239310.8884   21239318.0444
  17800001.338   -35233231.39949 -27449433.88349  17800005.7284   17800011.1684
  18119589.078    -7899116.22549  -6139415.16049  18119592.9614   18119598.5504
  20892405.292   -25804930.567 9 -20080145.504 9  20892408.924    20892414.578
  20494204.564   -21116251.43649 -16434043.40949  20494209.5834   20494216.0954
  19040373.018   -35305802.38349 -27233048.77349  19040374.3544   19040380.7714
 96  2 17 20  2 59.9910000  0  8 29 27 16 19 18 28  2 31
  20547626.989    -2364150.65549  -1844433.04349  20547628.1204   20547634.3304
  19064852.491   -35876205.04549 -27666772.22349  19064856.2124   19064862.5074
  21222507.345   -10337207.98049  -6060469.45049  21222509.8344   21222517.9664
  17786415.997   -35304634.28549 -27505072.49549  17786418.2354   17786423.4764
  18119506.604    -7899556.11049  -6139757.94849  18119509.3274   18119514.7554
  20890692.116   -25813938.142 9 -20087164.395 9  20890694.205    20890698.497
  20468391.691   -21251917.23049 -16539756.97249  20468393.0914   20468400.5154
  19027342.363   -35374286.09449 -27286412.71049  19027342.4404   19027348.6684
 96  2 17 20  3 29.9910000  0  8 29 27 16 19 18 28  2 31
  20555067.415    -2325039.22949  -1813956.66749  20555070.3454   20555077.2454
  19041752.543   -35997594.08249 -27761361.06449  19041756.6184   19041762.3544
  21205794.913   -10425021.93949  -6128895.87749  21205799.2684   21205805.7474
  17772858.493   -35375868.47749 -27560579.65949  17772862.6924   17772868.1554
  18119508.765    -7899541.16449  -6139746.31349  18119511.9894   18119517.5074
  20889061.514   -25822498.265 9 -20093834.643 9  20889065.679    20889070.430
  20442601.724   -21387426.45549 -16645348.54249  20442606.1614   20442613.7284
  19014412.964   -35442207.80949 -27339338.73149  19014417.3544   19014423.2364
 96  2 17 20  3 59.9910000  0  8 29 27 16 19 18 28  2 31
  20562547.936    -2285721.80149  -1783319.78049  20562552.9114   20562559.8864
  19018666.734   -36118909.90649 -27855892.86349  19018670.9944   19018677.1074
  21189173.075   -10512374.33349  -6196962.66649  21189176.4804   21189184.1844
  17759335.274   -35446931.46549 -27615953.41849  17759339.8814   17759345.3584
  18119592.143    -7899097.63949  -6139400.71949  18119596.3844   18119601.7084
  20887516.293   -25830617.416 9 -20100161.255 9  20887520.704    20887525.783
  20416847.408   -21522775.79949 -16750815.52649  20416850.0634   20416857.9334
  19001598.729   -35509551.77549 -27391814.53249  19001602.0254   19001608.1034
 96  2 17 20  4 29.9910000  0  8 29 27 16 19 18 28  2 31
  20570065.481    -2246207.21649  -1752529.24549  20570072.0214   20570078.3324
  18995593.353   -36240166.58149 -27950378.57649  18995596.7304   18995602.3344
  21172635.428   -10599272.10049  -6264675.19649  21172640.0584   21172648.3444
  17745845.959   -35517822.11049 -27671192.88349  17745849.7064   17745855.3984
  18119754.281    -7898249.27349  -6138739.67249  18119757.7994   18119763.3774
  20886055.347   -25838299.376 9 -20106147.226 9  20886058.522    20886062.472
  20391120.715   -21657961.18549 -16856154.75649  20391124.9164   20391132.7194
  18988894.014   -35576317.19049 -27443839.52049  18988896.9884   18988903.0054
 96  2 17 20  4 59.9910000  0  8 29 27 16 19 18 28  2 31
  20577627.412    -2206493.49549  -1721583.54249  20577629.2804   20577636.0274
  18972529.647   -36361365.13949 -28044819.00049  18972533.5264   18972539.0304
  21156191.297   -10685699.99549  -6332021.62249  21156193.8414   21156200.4694
  17732390.786   -35588527.47249 -27726287.97949  17732394.8724   17732400.7274
  18119993.197    -7896992.33249  -6137760.24849  18119996.6694   18120002.5124
  20884678.582   -25845529.609 9 -20111781.144 9  20884683.125    20884688.463
  20365433.424   -21792955.09549 -16961344.79349  20365436.4054   20365444.3534
  18976301.704   -35642487.02549 -27495400.40549  18976305.6054   18976311.4804
 96  2 17 20  5 29.9910000  0  8 29 27 16 19 18 28  2 31
  20585218.519    -2166583.85849  -1690485.17549  20585224.8634   20585231.1444
  18949475.197   -36482516.85149 -28139222.92249  18949479.0274   18949484.6314
  21139833.321   -10771639.83449  -6398987.74849  21139839.1284   21139847.2724
  17718972.759   -35659039.53649 -27781232.44749  17718977.0324   17718982.9114
  18120304.430    -7895352.11449  -6136482.17249  18120308.8984   18120314.6394
  20883389.225   -25852307.510 9 -20117062.665 9  20883392.966    20883399.250
  20339784.251   -21927749.60349 -17066379.45149  20339785.9954   20339794.2874
  18963823.564   -35708064.93249 -27546500.04649  18963826.6254   18963832.2354
 96  2 17 20  5 59.9910000  0  8 29 27 16 19 18 28  2 31
  20592849.974    -2126489.73549  -1659243.07649  20592853.5954   20592859.9994
  18926431.439   -36603605.73649 -28233577.89249  18926436.9224   18926442.4764
  21123576.965   -10857085.61549  -6465568.85849  21123580.2044   21123588.2304
  17705592.465   -35729360.46949 -27836027.98349  17705595.4104   17705601.2814
  18120691.969    -7893328.56549  -6134905.40449  18120694.4154   18120699.8044
  20882187.196   -25858632.581 9 -20121991.317 9  20882189.494    20882195.166
  20314172.129   -22062333.44349 -17171249.98949  20314175.8164   20314183.1884
  18951451.545   -35773079.55649 -27597160.77749  18951454.9984   18951460.1124
 96  2 17 20  6 29.9900000  0  9 29 27 16 19 18 12 28  2 31
  20600506.003    -2086250.32249  -1627887.73449  20600510.6534   20600517.1864
  18903404.693   -36724624.39049 -28327878.12849  18903407.6734   18903413.3344
  21107409.709   -10942053.96549  -6531777.94049  21107411.2444   21107418.9764
  17692242.754   -35799505.68949 -27890686.59749  17692247.0154   17692253.0284
  18121148.189    -7890922.48649  -6133030.55149  18121152.0604   18121157.9054
  21511574.955    -5901545.51519  -4568532.53419  21511581.996    21511589.741
  20881065.773   -25864521.532 9 -20126580.117 9  20881068.563    20881075.065
  20288600.368   -22196717.01149 -17275964.44249  20288603.0274   20288610.7024
  18939182.753   -35837552.27249 -27647399.23349  18939186.2894   18939191.5284
 96  2 17 20  6 59.9900000  0  9 29 27 16 19 18 12 28  2 31
  20608190.544    -2045867.43249  -1596420.61849  20608196.5484   20608202.1844
  18880385.614   -36845587.89349 -28422135.39749  18880389.0384   18880394.6594
  21091324.939   -11026570.06049  -6597634.63949  21091329.1674   21091336.0794
  17678925.237   -35869489.75649 -27945219.64049  17678929.7714   17678935.4094
  18121679.403    -7888133.17149  -6130857.07449  18121683.0624   18121688.8114
  21486086.975    -6035493.349 9  -4672907.435 9  21486090.174    21486100.673
  20880025.125   -25869988.378 9 -20130840.019 9  20880028.038    20880034.962
  20263061.728   -22330920.10449 -17380538.27749  20263064.5914   20263072.5474
  18927016.040   -35901490.43449 -27697221.15249  18927019.2494   18927024.5434
 96  2 17 20  7 29.9900000  0  9 29 27 16 19 18 12 28  2 31
  20615911.179    -2005321.94849  -1564826.80949  20615910.7784   20615917.3764
  18857384.330   -36966456.43749 -28516318.66649  18857388.5044   18857394.4694
  21075332.886   -11110608.12949  -6663118.83149  21075336.1724   21075343.9364
  17665643.858   -35939287.53949 -27999607.52549  17665647.6164   17665653.5654
  18122288.572    -7884933.35549  -6128363.72849  18122292.0114   18122297.5634
  21460617.373    -6169327.774 9  -4777193.970 9  21460625.380    21460632.397
  20879070.534   -25875013.473 9 -20134755.692 9  20879072.526    20879078.855
  20237563.966   -22464918.34849 -17484952.48649  20237566.2554   20237573.7904
  18914956.806   -35964868.81849 -27746606.88949  18914958.1924   18914964.1444
 96  2 17 20  7 59.9900000  0  9 29 27 16 19 18 12 28  2 31
  20623654.150    -1964613.49449  -1533106.01249  20623658.7784   20623664.4144
  18834405.133   -37087217.15549 -28610417.92249  18834408.2664   18834413.9294
  21059436.300   -11194170.35049  -6728232.24349  21059435.8764   21059443.5464
  17652396.376   -36008903.22149 -28053853.51049  17652399.9064   17652405.8544
  18122979.791    -7881296.55049  -6125529.87349  18122983.8144   18122989.3734
  21435172.447    -6303043.233 9  -4881387.798 9  21435178.727    21435187.271
  20878198.193   -25879593.076 9 -20138324.249 9  20878201.067    20878207.034
  20212103.895   -22598701.99049 -17589199.48449  20212108.1594   20212115.6344
  18903003.119   -36027674.04349 -27795546.01249  18903007.0134   18903012.9144
 96  2 17 20  8 29.9900000  0  9 29 27 16 19 18 12 28  2 31
  20631432.232    -1923736.57849  -1501253.92049  20631437.0864   20631444.2534
  18811445.162   -37207869.83649 -28704432.99249  18811448.9744   18811454.6794
  21043625.115   -11277242.03849  -6792963.44049  21043627.6404   21043635.2584
  17639186.041   -36078325.12549 -28107948.49849  17639189.5324   17639195.2804
  18123755.833    -7877224.78149  -6122357.08749  18123758.9394   18123764.2944
  21409751.751    -6436633.531 9  -4985484.098 9  21409755.362    21409765.259
  20877412.903   -25883722.426 9 -20141541.922 9  20877415.673    20877421.024
  20186687.056   -22732276.78649 -17693283.73049  20186690.2114   20186697.0384
  18891165.940   -36089889.35149 -27844025.46649  18891167.6604   18891173.6944
 96  2 17 20  8 59.9900000  0  9 29 27 16 19 18 12 28  2 31
  20639241.908    -1882688.54949  -1469268.51249  20639248.2834   20639254.0904
  18788507.030   -37328412.01049 -28798361.94949  18788510.3444   18788516.3064
  21027912.922   -11359801.79449  -6857295.70649  21027917.0874   21027924.2904
  17626013.767   -36147544.43749 -28161885.62649  17626017.2894   17626023.2594
  18124611.057    -7872726.90049  -6118852.26349  18124614.4654   18124620.1994
  21384356.121    -6570092.746 9  -5089478.259 9  21384357.450    21384369.820
  20876712.488   -25887397.544 9 -20144405.670 9  20876715.833    20876721.966
  20161306.803   -22865649.78249 -17797210.73949  20161309.7444   20161316.4724
  18879435.866   -36151516.29349 -27892046.47149  18879440.0244   18879445.9194
 96  2 17 20  9 29.9900000  0  9 29 27 16 19 18 12 28  2 31
  20647084.393    -1841481.25049  -1437159.00149  20647089.4124   20647096.8794
  18765589.609   -37448843.34849 -28892204.54249  18765593.2564   18765599.1044
  21012298.079   -11441847.22549  -6921227.22849  21012303.5674   21012311.9774
  17612879.275   -36216562.40649 -28215665.85949  17612883.6474   17612889.6114
  18125543.618    -7867824.68249  -6115032.37149  18125547.5034   18125553.4444
  21358986.177    -6703426.371 9  -5193374.561 9  21358988.903    21358998.420
  20876097.275   -25890625.466 9 -20146920.955 9  20876101.477    20876107.831
  20135964.085   -22998821.53349 -17900980.92749  20135967.5334   20135974.9144
  18867819.670   -36212568.02449 -27939619.24449  18867822.5864   18867828.7944
 96  2 17 20  9 59.9900000  0  9 29 27 16 19 18 12 28  2 31
  20654959.984    -1800101.76549  -1404915.32249  20654964.1834   20654970.4374
  18742694.600   -37569157.89549 -28985956.12849  18742698.1814   18742703.7674
  20996783.478   -11523381.37549  -6984760.33649  20996789.2024   20996796.2624
  17599787.808   -36285359.14549 -28269273.70749  17599792.4784   17599798.0564
  18126552.392    -7862519.40049  -6110898.40649  18126557.2624   18126562.7434
  21333634.183    -6836629.367 9  -5297169.060 9  21333640.372    21333650.135
  20875570.973   -25893402.585 9 -20149084.973 9  20875572.530    20875579.090
  20110658.931   -23131794.23349 -18004596.02249  20110664.0844   20110670.0094
  18856311.213   -36273032.40649 -27986734.36749  18856316.7494   18856323.0074
 96  2 17 20 10 29.9900000  0  9 29 27 16 19 18 12 28  2 31
  20662869.559    -1758545.01549  -1372533.51649  20662871.4564   20662878.5324
  18719822.629   -37689353.80749 -29079615.26649  18719825.8194   18719831.5454
  20981367.893   -11604402.79549  -7047893.91049  20981371.0874   20981378.7054
  17586742.140   -36353918.47749 -28322696.56249  17586746.3164   17586751.5804
  18127639.384    -7856808.83349  -6106448.63749  18127643.9874   18127649.6304
  21308316.028    -6969699.521 9  -5400860.054 9  21308318.343    21308326.704
  20875126.467   -25895728.615 9 -20150897.468 9  20875130.374    20875136.753
  20085391.214   -23264574.74549 -18108061.34349  20085396.5434   20085403.0294
  18844919.824   -36332905.94849 -28033389.08049  18844923.3394   18844928.8744
 96  2 17 20 10 59.9900000  0  9 29 27 16 19 18 12 28  2 31
  20670810.032    -1716809.98149  -1340012.77949  20670813.0494   20670820.3194
  18696968.687   -37809452.27149 -29173198.46849  18696971.9084   18696977.4364
  20966045.046   -11684935.87749  -7110646.94049  20966046.5724   20966053.8254
  17573737.562   -36422256.49249 -28375946.96049  17573741.6954   17573746.9014
  18128802.060    -7850694.16849  -6101683.99049  18128807.4194   18128812.9614
  21283012.859    -7102651.816 9  -5504459.225 9  21283016.591    21283023.504
  20874767.826   -25897620.254 9 -20152371.488 9  20874770.307    20874776.859
  20060161.900   -23397166.61149 -18211379.65949  20060165.6494   20060171.5084
  18833638.085   -36392197.67149 -28079590.44649  18833640.5854   18833646.6794
 96  2 17 20 11 29.9900000  0  9 29 27 16 19 18 12 28  2 31
  20678787.872    -1674875.24949  -1307336.41349  20678793.9374   20678800.9714
  18674133.195   -37929448.80849 -29266702.24849  18674137.2504   18674143.1184
  20950807.787   -11764995.44249  -7173031.02749  20950811.5914   20950818.0824
  17560775.924   -36490373.35849 -28429025.03449  17560779.5974   17560784.9034
  18130049.431    -7844146.71349  -6096582.10649  18130052.9824   18130058.8334
  21257738.879    -7235479.173 9  -5607961.037 9  21257740.425    21257752.019
  20874490.814   -25899071.851 9 -20153502.633 9  20874494.349    20874500.489
  20034971.431   -23529546.58349 -18314532.86349  20034974.2094   20034981.1244
  18822468.858   -36450882.15249 -28125318.63049  18822473.4144   18822478.8184
 96  2 17 20 11 59.9900000  0  9 29 27 16 19 18 12 28  2 31
  20686803.644    -1632760.49249  -1274519.78249  20686807.9424   20686813.8864
  18651315.678   -38049354.57149 -29360135.29849  18651319.6694   18651325.4804
  20935661.995   -11844582.06449  -7235046.58449  20935665.6034   20935673.5174
  17547853.865   -36558280.60249 -28481939.77149  17547857.3144   17547862.8854
  18131382.017    -7837149.41849  -6091129.69649  18131384.7354   18131390.3394
  21232487.648    -7368186.483 9  -5711369.328 9  21232487.889    21232496.856
  20874298.067   -25900090.073 9 -20154296.075 9  20874300.039    20874306.677
  20009816.765   -23661730.19649 -18417533.06549  20009820.5494   20009826.8684
  18811420.231   -36508957.44849 -28170572.11649  18811421.5684   18811427.3564
 96  2 17 20 12 29.9900000  0  9 29 27 16 19 18 12 28  2 31
  20694851.785    -1590492.77749  -1241583.98249  20694851.8444   20694857.8194
  18628512.644   -38169183.34749 -29453508.36249  18628517.2884   18628522.6864
  20920606.453   -11923697.68249  -7296695.14549  20920611.2014   20920618.0834
  17534963.117   -36626021.94649 -28534725.22949  17534966.5114   17534972.0744
  18132794.155    -7829720.10649  -6085340.64549  18132798.7744   18132804.4144
  21207249.394    -7500783.717 9  -5814691.820 9  21207255.306    21207264.814
  20874182.505   -25900686.639 9 -20154760.931 9  20874187.135    20874193.183
  19984701.672   -23793711.92049 -18520375.93349  19984705.7534   19984712.2394
  18800478.069   -36566455.29749 -28215375.65349  18800480.7374   18800485.8234
 96  2 17 20 12 59.9900000  0  9 29 27 16 19 18 12 28  2 31
  20702916.744    -1548079.33249  -1208534.62949  20702922.2964   20702928.7644
  18605726.815   -38288924.70849 -29546813.30849  18605731.1834   18605736.9374
  20905644.120   -12002331.37049  -7357968.16449  20905647.4094   20905655.2104
  17522104.785   -36693594.80249 -28587379.40949  17522107.9134   17522113.0994
  18134290.236    -7821867.23449  -6079221.55249  18134292.9404   18134298.4554
  21182042.531    -7633263.458 9  -5917922.759 9  21182044.897    21182054.684
  20874153.050   -25900855.759 9 -20154892.725 9  20874154.767    20874161.072
  19959627.402   -23925481.98849 -18623053.87449  19959630.7554   19959636.3734
  18789642.751   -36623375.25749 -28259728.89149  18789648.5334   18789653.8634
 96  2 17 20 13 29.9900000  0  9 29 27 16 19 18 12 28  2 31
  20711010.172    -1505559.21149  -1175402.12749  20711013.3064   20711020.1964
  18582960.326   -38408567.78549 -29640041.67149  18582963.5854   18582969.4244
  20890774.112   -12080479.00949  -7418862.43649  20890777.5714   20890783.8104
  17509279.198   -36760988.02649 -28639893.61149  17509283.1804   17509288.9624
  18135862.823    -7813604.54649  -6072783.12049  18135865.7014   18135871.3584
  21156853.810    -7765633.417 9  -6021068.167 9  21156856.922    21156865.249
  20874198.924   -25900607.019 9 -20154698.920 9  20874201.908    20874208.800
  19934590.354   -24057053.06249 -18725576.75749  19934593.2084   19934599.9294
  18778919.665   -36679736.50549 -28303646.75649  18778923.7074   18778929.7574
 96  2 17 20 13 59.9900000  0  9 29 27 16 19 18 12 28  2 31
  20719123.613    -1462934.73349  -1142188.32349  20719125.3504   20719131.2374
  18560213.976   -38528102.06149 -29733185.25149  18560217.2424   18560222.5074
  20876001.705   -12158103.41149  -7479348.97449  20876005.4454   20876014.2164
  17496492.727   -36828184.38349 -28692254.40949  17496496.5184   17496501.9674
  18137508.757    -7804947.99349  -6066037.78049  18137512.9784   18137518.8394
  21131683.788    -7897887.990 9  -6124123.645 9  21131688.456    21131696.681
  20874322.265   -25899936.423 9 -20154176.407 9  20874329.071    20874336.102
  19909587.238   -24188427.12149 -18827946.11949  19909593.3374   19909600.1614
  18768295.904   -36735554.82449 -28347141.56749  18768301.8974   18768307.4674
 96  2 17 20 14 29.9900000  0  9 29 27 16 19 18 12 28  2 31
  20727255.943    -1420181.85949  -1108874.45749  20727259.2264   20727268.1654
  18537487.535   -38647522.78449 -29826240.35449  18537492.1254   18537497.6104
  20861330.580   -12235209.36949  -7539431.55349  20861332.0444   20861339.6494
  17483745.007   -36895174.27449 -28744454.32949  17483748.5294   17483754.1164
  18139227.372    -7795922.33649  -6059004.82549  18139230.4974   18139236.0884
  21106536.572    -8030033.027 9  -6227093.799 9  21106543.035    21106550.379
  20874533.571   -25898851.557 9 -20153331.098 9  20874536.469    20874542.330
  19884627.958   -24319597.82949 -18930157.02749  19884632.3794   19884638.9334
  18757778.349   -36790843.56949 -28390223.70749  18757780.8934   18757786.1024
 96  2 17 20 14 59.9900000  0  9 29 27 16 19 18 12 28  2 31
  20735420.980    -1377299.09049  -1075459.39349  20735420.6824   20735426.2744
  18514783.965   -38766837.95549 -29919213.20349  18514787.3304   18514792.7484
  20846750.719   -12311803.33049  -7599115.17349  20846757.2444   20846764.2304
  17471040.028   -36961940.51949 -28796479.97749  17471043.2464   17471049.0474
  18141014.909    -7786527.75449  -6051684.40049  18141018.2384   18141024.0314
  21081411.854    -8162078.716 9  -6329986.514 9  21081414.406    21081422.593
  20874815.305   -25897364.363 9 -20152172.250 9  20874820.044    20874825.846
  19859702.074   -24450585.05749 -19032224.95849  19859706.2594   19859713.1364
  18747359.400   -36845586.52449 -28432880.57249  18747363.1254   18747368.9134
 96  2 17 20 15 29.9900000  0  9 29 27 16 19 18 12 28  2 31
  20743600.513    -1334274.16249  -1041933.55149  20743608.2264   20743614.8434
  18492096.513   -38886057.83349 -30012111.80649  18492100.5174   18492106.1254
  20832274.102   -12387896.99949  -7658408.94549  20832276.7944   20832283.6994
  17458374.657   -37028498.11949 -28848343.05249  17458378.0424   17458383.7764
  18142872.404    -7776766.82649  -6044078.51049  18142875.4944   18142881.3224
  21056303.848    -8294029.333 9  -6432805.133 9  21056306.445    21056313.551
  20875175.927   -25895481.019 9 -20150704.741 9  20875178.040    20875183.902
  19834812.214   -24581385.91149 -19134147.67749  19834816.0624   19834822.8204
  18737044.831   -36899784.46149 -28475112.73349  18737050.2854   18737055.8794
 96  2 17 20 15 59.9900000  0  9 29 27 16 19 18 12 28  2 31
  20751823.684    -1291083.38349  -1008278.47849  20751827.1404   20751834.0874
  18469427.692   -39005183.95949 -30104937.35049  18469431.8134   18469437.0184
  20817886.881   -12463505.55049  -7717324.69649  20817889.6914   20817895.8274
  17445743.976   -37094872.41349 -28900063.28849  17445747.3284   17445753.2614
  18144798.055    -7766645.02849  -6036191.41949  18144801.8774   18144807.9454
  21031212.643    -8425880.314 9  -6535546.136 9  21031215.279    21031223.064
  20875607.240   -25893198.755 9 -20148926.394 9  20875612.013    20875618.544
  19809955.941   -24711998.74149 -19235923.88349  19809960.4344   19809966.9634
  18726840.154   -36953418.43849 -28516905.43049  18726844.1584   18726849.8884
 96  2 17 20 16 29.9900000  0  9 29 27 16 19 18 12 28  2 31
  20760071.099    -1247740.45149   -974504.86549  20760075.1964   20760081.1934
  18446775.044   -39124223.84649 -30197695.70149  18446778.7704   18446784.7904
  20803584.524   -12538657.40049  -7775884.59349  20803589.4164   20803595.7054
  17433144.774   -37161081.66349 -28951654.91649  17433148.0804   17433153.9394
  18146794.706    -7756153.28249  -6028016.06049  18146798.2964   18146804.2214
  21006137.327    -8557632.973 9  -6638210.499 9  21006142.585    21006151.401
  20876119.905   -25890520.631 9 -20146839.591 9  20876121.616    20876128.072
  19785137.909   -24842422.99049 -19337553.15449  19785141.6664   19785148.6984
  18716743.308   -37006470.21849 -28558244.47949  18716748.7574   18716754.0504
 96  2 17 20 16 59.9900000  0  9 29 27 16 19 18 12 28  2 31
  20768342.859    -1204280.11949   -940639.75549  20768345.3154   20768352.3344
  18424135.042   -39243193.30649 -30290399.16849  18424139.7954   18424145.4634
  20789371.043   -12613365.68049  -7834098.82749  20789372.9894   20789378.6324
  17420574.002   -37227142.86249 -29003131.18149  17420577.1154   17420582.8534
  18148861.163    -7745291.61549  -6019552.44649  18148865.3244   18148871.0284
  20981083.360    -8689293.794 9  -6740803.302 9  20981089.998    20981096.564
  20876702.717   -25887454.927 9 -20144450.775 9  20876704.869    20876711.181
  19760352.823   -24972677.92549 -19439050.49049  19760355.4594   19760361.7314
  18706760.020   -37058939.41649 -28599129.55849  18706764.1294   18706769.4684
 96  2 17 20 17 29.9900000  0  9 29 27 16 19 18 12 28  2 31
  20776631.578    -1160713.34349   -906691.69249  20776635.9274   20776643.9634
  18401512.965   -39362082.22449 -30383039.87349  18401516.0614   18401521.7654
  20775238.481   -12687635.23249  -7891971.25549  20775240.3674   20775245.7744
  17408030.779   -37293057.62849 -29054493.34249  17408033.7234   17408039.8624
  18150995.717    -7734072.84849  -6010810.57649  18151000.2614   18151006.2344
  20956050.553    -8820860.838 9  -6843323.008 9  20956052.330    20956059.122
  20877359.565   -25884001.326 9 -20141759.693 9  20877362.609    20877368.348
  19735598.500   -25102758.39149 -19540411.88549  19735601.8394   19735608.9894
  18696883.585   -37110831.19149 -28639564.69049  18696888.9764   18696895.0154
 96  2 17 20 17 59.9900000  0  9 29 27 16 19 18 12 28  2 31
  20784943.605    -1117046.78549   -872665.89349  20784945.8784   20784953.0934
  18378907.967   -39480872.47649 -30475603.70349  18378911.4214   18378916.6454
  20761191.072   -12761448.06649  -7949487.75249  20761192.8154   20761199.6614
  17395518.415   -37358809.38349 -29105728.48149  17395521.5154   17395527.4454
  18153201.525    -7722485.30949  -6001781.35949  18153205.3544   18153211.4474
  20931031.325    -8952328.593 9  -6945765.370 9  20931034.292    20931043.109
  20878090.620   -25880156.177 9 -20138763.492 9  20878093.985    20878100.216
  19710880.129   -25232655.78849 -19641630.62249  19710883.3454   19710890.0374
  18687121.769   -37162148.95249 -28679552.54649  18687124.1774   18687129.9284
 96  2 17 20 18 29.9900000  0  9 29 27 16 19 18 12 28  2 31
  20793267.827    -1073289.07549   -838569.05549  20793273.1954   20793279.6584
  18356321.075   -39599560.45749 -30568087.83549  18356325.5444   18356330.8384
  20747234.290   -12834783.84549  -8006632.53349  20747238.6174   20747245.4174
  17383041.886   -37424370.56749 -29156815.12349  17383045.6734   17383051.8124
  18155475.471    -7710535.43149  -5992469.79349  18155479.3724   18155485.1554
  20906032.159    -9083694.675 9  -7048128.464 9  20906036.425    20906045.191
  20878897.279   -25875918.957 9 -20135461.782 9  20878900.750    20878906.743
  19686200.394   -25362350.29649 -19742691.26249  19686203.0024   19686209.8304
  18677462.179   -37212900.80049 -28719099.42449  18677466.1264   18677472.5784
 96  2 17 20 18 59.9900000  0  9 29 27 16 19 18 12 28  2 31
  20801614.695    -1029427.43249   -804391.23249  20801620.1364   20801625.6544
  18333759.204   -39718125.45349 -30660476.13849  18333763.3944   18333768.7194
  20733375.766   -12907624.70749  -8063391.63649  20733377.9554   20733384.1824
  17370605.903   -37489723.27149 -29207739.31149  17370609.5454   17370615.5494
  18157818.347    -7698225.73249  -5982877.85649  18157821.9954   18157827.5954
  20881053.304    -9214955.283 9  -7150409.419 9  20881057.294    20881067.550
  20879779.902   -25871287.616 9 -20131852.984 9  20879782.262    20879787.874
  19661560.602   -25491826.95749 -19843582.14649  19661564.5084   19661571.6974
  18667909.961   -37263093.31749 -28758210.47249  18667914.7824   18667920.7364
 96  2 17 20 19 29.9890000  0  9 29 27 16 19 18 12 28  2 31
  20809986.432     -985450.21849   -770123.36349  20809988.3534   20809994.3144
  18311223.594   -39836550.09049 -30752755.06349  18311227.9594   18311233.4374
  20719612.254   -12979956.17749  -8119753.81649  20719613.0134   20719619.7124
  17358212.334   -37554849.76649 -29258487.23549  17358216.3294   17358222.1474
  18160230.557    -7685552.06949  -5973002.30949  18160233.4984   18160239.2594
  20856099.139    -9346095.638 9  -7252596.655 9  20856105.361    20856112.958
  20880735.096   -25866253.898 9 -20127930.655 9  20880739.412    20880746.049
  19636968.383   -25621056.86649 -19944280.76049  19636972.6094   19636979.8784
  18658468.124   -37312716.39149 -28796877.78449  18658471.4104   18658477.3504
 96  2 17 20 19 59.9890000  0  9 29 27 16 19 18 12 28  2 31
  20818375.200     -941357.71649   -735765.65049  20818378.5714   20818384.6934
  18288708.767   -39954868.29049 -30844951.05249  18288712.5574   18288718.2194
  20705941.860   -13051788.95449  -8175727.41649  20705945.1664   20705949.9654
  17345861.426   -37619761.88649 -29309068.10449  17345864.0444   17345870.0394
  18162711.465    -7672504.59549  -5962835.47149  18162716.2704   18162722.0664
  20831161.867    -9477134.659 9  -7354704.913 9  20831167.830    20831177.055
  20881766.943   -25860829.578 9 -20123703.940 9  20881771.494    20881778.360
  19612421.215   -25750059.05849 -20044801.92949  19612424.8564   19612431.2464
  18649130.199   -37361777.34749 -28835107.09249  18649136.0224   18649140.9124
 96  2 17 20 20 29.9890000  0  9 29 27 16 19 18 12 28  2 31
  20826788.024     -897130.12549   -701302.69349  20826795.0104   20826802.1214
  18266212.642   -40073085.27549 -30937068.17449  18266216.6004   18266222.5744
  20692366.908   -13123115.37049  -8231306.45449  20692371.6234   20692377.4174
  17333549.012   -37684449.70849 -29359474.20149  17333554.2394   17333560.2414
  18165267.701    -7659072.67849  -5952369.07149  18165272.1724   18165277.9244
  20806248.172    -9608059.293 9  -7456724.076 9  20806252.783    20806263.026
  20882875.557   -25855008.116 9 -20119167.740 9  20882879.247    20882885.686
  19587914.201   -25878839.40949 -20145150.22749  19587918.5504   19587925.0474
  18639906.753   -37410249.12349 -28872877.30249  18639912.0644   18639917.1134
 96  2 17 20 20 59.9890000  0  9 29 27 16 19 18 12 28  2 31
  20835234.581     -852756.54949   -666725.96649  20835239.7484   20835245.7394
  18243735.608   -40191205.09049 -31029109.57849  18243739.1254   18243745.0264
  20678889.956   -13193940.87549  -8286495.16349  20678894.1344   20678900.3934
  17321284.588   -37748907.66749 -29409701.18049  17321288.3944   17321294.2264
  18167903.376    -7645224.71949  -5941578.48549  18167907.2074   18167913.2154
  20781359.400    -9738859.813 9  -7558646.499 9  20781361.898    20781371.245
  20884062.117   -25848781.603 9 -20114315.913 9  20884064.180    20884070.258
  19563447.444   -26007412.82849 -20245337.29149  19563451.4504   19563458.4244
  18630800.372   -37458112.50649 -28910173.43349  18630803.7034   18630809.0894
 96  2 17 20 21 29.9890000  0  9 29 27 16 19 18 12 28  2 31
  20843706.933     -808238.00449   -632036.28949  20843710.2444   20843718.7694
  18221272.751   -40309239.71849 -31121084.60549  18221277.9574   18221283.7674
  20665504.457   -13264278.02249  -8341303.34649  20665507.9384   20665513.4704
  17309062.724   -37813135.05949 -29459748.49749  17309066.2764   17309071.9704
  18170617.783    -7630963.87749  -5930466.17249  18170620.8464   18170626.7434
  20756493.993    -9869537.338 9  -7660473.112 9  20756496.330    20756505.299
  20885322.441   -25842153.020 9 -20109150.794 9  20885325.878    20885331.896
  19539018.412   -26135791.63549 -20345372.69849  19539021.6974   19539028.6414
  18621807.477   -37505364.10949 -28946992.87849  18621812.2824   18621817.4294
 96  2 17 20 21 59.9890000  0  9 29 27 16 19 18 12 28  2 31
  20852205.243     -763554.57949   -597218.11849  20852213.9254   20852220.8904
  18198833.162   -40427166.71049 -31212975.76049  18198836.9474   18198842.7434
  20652216.488   -13334114.87349  -8395721.67749  20652219.1354   20652225.8084
  17296885.791   -37877127.25349 -29509612.54749  17296889.1004   17296894.8684
  18173410.570    -7616281.71349  -5919025.55449  18173414.7914   18173420.7424
  20731651.422   -10000080.571 9  -7762195.040 9  20731652.837    20731663.385
  20886661.867   -25835112.753 9 -20103664.897 9  20886665.607    20886671.710
  19514626.654   -26263972.61949 -20445253.95949  19514629.9584   19514636.7524
  18612934.338   -37552005.45749 -28983336.77149  18612935.9594   18612941.5254
 96  2 17 20 22 29.9890000  0  9 29 27 16 19 18 12 28  2 31
  20860743.748     -718736.48349   -562295.02549  20860742.9524   20860750.0014
  18176413.643   -40544984.74449 -31304782.00949  18176417.0154   18176423.0194
  20639018.380   -13403466.35449  -8449761.82049  20639021.4674   20639028.8284
  17284747.811   -37940906.42449 -29559310.61149  17284752.2324   17284758.0464
  18176276.364    -7601226.90149  -5907294.55649  18176279.9664   18176285.8144
  20706830.034   -10130506.280 9  -7863825.435 9  20706835.385    20706844.607
  20888077.451   -25827679.463 9 -20097872.753 9  20888080.074    20888086.269
  19490272.298   -26391958.17749 -20544982.93849  19490274.5844   19490282.0034
  18604162.253   -37598068.28549 -29019229.91149  18604170.6394   18604176.4424
 96  2 17 20 22 59.9890000  0  9 29 27 16 19 18 12 28  2 31
  20869293.832     -673800.39749   -527279.98849  20869293.8994   20869299.6534
  18154018.297   -40662669.11749 -31396484.10849  18154022.6384   18154028.4464
  20625912.949   -13472331.24249  -8503422.77349  20625916.9064   20625924.8254
  17272655.655   -38004456.55349 -29608830.19249  17272659.3524   17272665.0294
  18179205.360    -7585824.63749  -5895292.82149  18179210.9214   18179217.0844
  20682036.559   -10260809.040 9  -7965359.996 9  20682039.051    20682048.448
  20889565.967   -25819849.716 9 -20091771.663 9  20889570.122    20889576.419
  19465959.938   -26519714.46249 -20644533.27149  19465963.7284   19465970.8664
  18595513.944   -37643558.34749 -29054676.69549  18595514.5734   18595520.5644
 96  2 17 20 23 29.9890000  0  9 29 27 16 19 18 12 28  2 31
  20877862.189     -628751.39949   -492176.97449  20877866.5724   20877873.2554
  18131654.184   -40780196.62749 -31488063.97449  18131657.8124   18131663.4224
  20612906.965   -13540687.74249  -8556687.59149  20612909.7044   20612915.7464
  17260603.818   -38067784.32249 -29658176.50849  17260608.0864   17260614.1434
  18182201.902    -7570090.37849  -5883032.38549  18182204.6514   18182211.0604
  20657265.327   -10390989.606 9  -8066799.377 9  20657266.715    20657275.812
  20891132.271   -25811626.388 9 -20085363.886 9  20891134.945    20891141.370
  19441697.715   -26647218.38649 -20743886.94649  19441701.1464   19441707.5264
  18586966.400   -37688488.63849 -29089687.31249  18586964.1664   18586970.4234
 96  2 17 20 23 59.9890000  0  9 29 27 16 19 18 12 28  2 31
  20886455.817     -583607.49449   -457000.00849  20886457.3154   20886463.1204
  18109317.590   -40897571.72849 -31579525.08249  18109321.8894   18109327.5504
  20599998.553   -13608519.79549  -8609543.74849  20600000.9874   20600008.8454
  17248593.023   -38130906.31349 -29707362.47649  17248596.4704   17248602.4414
  18185257.834    -7554028.68649  -5870516.80949  18185261.6024   18185267.6664
  20632511.642   -10521053.565 9  -8168147.861 9  20632516.663    20632525.894
  20892772.022   -25803016.879 9 -20078655.185 9  20892773.236    20892779.563
  19417481.058   -26774469.87449 -20843043.92249  19417484.9484   19417492.1764
  18578512.230   -37732868.19749 -29124268.80449  18578519.2494   18578525.1954
 96  2 17 20 24 29.9890000  0  9 29 27 16 19 18 12 28  2 31
  20895056.614     -538394.21849   -421768.95349  20895060.6424   20895067.9374
  18087005.744   -41014818.89649 -31670886.50549  18087010.3144   18087016.1474
  20587188.984   -13675838.38649  -8661999.79849  20587190.2194   20587198.2164
  17236618.829   -38193825.76649 -29756390.61949  17236623.5024   17236629.1724
  18188375.694    -7537636.85049  -5857743.97249  18188380.6604   18188386.6564
  20607782.043   -10651011.592 9  -8269413.827 9  20607786.486    20607794.989
  20894481.857   -25794033.618 9 -20071655.229 9  20894482.932    20894488.523
  19393310.861   -26901483.73649 -20942015.73849  19393315.3474   19393322.1324
  18570174.918   -37776684.06049 -29158411.02549  18570181.1744   18570187.5314
 96  2 17 20 24 59.9890000  0  9 29 27 16 19 18 12 28  2 31
  20903670.819     -493102.95749   -386477.16749  20903679.3294   20903685.8064
  18064716.556   -41131950.97849 -31762158.25049  18064721.1914   18064726.9074
  20574474.813   -13742655.63949  -8714065.20549  20574475.3084   20574482.2894
  17224684.253   -38256547.69849 -29805264.85449  17224687.9644   17224693.7614
  18191562.815    -7520892.64149  -5844696.56049  18191566.9654   18191572.6394
  20583071.312   -10780869.061 9  -8370601.435 9  20583075.260    20583084.197
  20896258.612   -25784684.138 9 -20064369.895 9  20896261.827    20896267.617
  19369182.898   -27028284.18849 -21040821.26449  19369186.1414   19369192.6794
  18561948.134   -37819932.87449 -29192111.40049  18561952.0534   18561957.4174
 96  2 17 20 25 29.9890000  0  9 29 27 16 19 18 12 28  2 31
  20912309.712     -447711.93249   -351107.62049  20912317.5154   20912324.5324
  18042450.435   -41248968.67949 -31853340.86549  18042453.5874   18042459.2674
  20561853.501   -13808970.49549  -8765739.13549  20561856.3414   20561863.2524
  17212783.625   -38319086.53849 -29853996.41649  17212787.1404   17212792.9214
  18194822.237    -7503763.96249  -5831349.56249  18194826.7404   18194832.4754
  20558380.589   -10910620.291 9  -8471706.250 9  20558384.383    20558392.905
  20898105.964   -25774964.611 9 -20056796.225 9  20898111.523    20898117.370
  19345090.893   -27154887.07149 -21139472.84549  19345094.3354   19345101.2374
  18553828.118   -37862609.48049 -29225365.88449  18553830.1864   18553836.2774
 96  2 17 20 25 59.9890000  0  9 29 27 16 19 18 12 28  2 31
  20920973.945     -402219.33849   -315658.96849  20920973.9854   20920981.2434
  18020198.953   -41365893.05549 -31944450.76049  18020203.4674   18020208.8544
  20549320.226   -13874808.04049  -8817041.14249  20549327.8954   20549335.0664
  17200918.715   -38381440.40949 -29902583.85449  17200921.8574   17200927.2664
  18198154.305    -7486259.34349  -5817709.62749  18198157.9714   18198163.5624
  20533708.638   -11040271.202 9  -8572732.903 9  20533712.029    20533721.266
  20900027.315   -25764882.896 9 -20048940.355 9  20900030.269    20900035.930
  19321032.392   -27281315.39149 -21237988.39449  19321035.3544   19321042.8524
  18545815.605   -37904705.25549 -29258167.79749  18545819.4454   18545825.7804
 96  2 17 20 26 29.9890000  0  9 29 27 16 19 18 12 28  2 31
  20929650.073     -356616.53749   -280124.40249  20929654.1694   20929657.9244
  17997968.424   -41482721.25149 -32035485.70949  17997971.9274   17997977.2384
  20536885.662   -13940193.72449  -8867991.01149  20536886.1884   20536892.9014
  17189092.866   -38443590.09749 -29951012.18349  17189095.0614   17189100.8724
  18201555.358    -7468389.67449  -5803785.22749  18201558.4694   18201564.4324
  20509054.362   -11169828.142 9  -8673686.331 9  20509058.486    20509067.302
  20902014.185   -25754447.595 9 -20040808.964 9  20902015.917    20902021.635
  19297003.850   -27407584.12749 -21336379.60249  19297007.6224   19297014.5864
  18537918.939   -37946225.40749 -29290521.15749  18537919.3174   18537925.0164
 96  2 17 20 26 59.9890000  0  9 29 27 16 19 18 12 28  2 31
  20938345.436     -310894.86449   -244497.22049  20938353.2454   20938360.1144
  17975761.097   -41599419.09249 -32126419.08449  17975764.7964   17975770.5994
  20524523.822   -14005114.09349  -8918578.35449  20524531.8834   20524539.5794
  17177303.543   -38505533.61349 -29999279.85749  17177307.3764   17177313.5044
  18205022.512    -7450166.42749  -5789585.31349  18205026.1314   18205031.9524
  20484420.679   -11299283.575 9  -8774560.654 9  20484423.824    20484432.800
  20904066.844   -25743652.731 9 -20032397.397 9  20904070.063    20904076.391
  19273010.286   -27533673.23049 -21434630.83849  19273014.0154   19273020.5314
  18530121.137   -37987180.37849 -29322434.11749  18530125.5624   18530130.5734
 96  2 17 20 27 29.9890000  0  9 29 27 16 19 18 12 28  2 31
  20947068.303     -265072.26049   -208791.38049  20947072.3864   20947079.6434
  17953580.611   -41715977.80749 -32217244.05149  17953584.3474   17953589.9584
  20512261.512   -14069554.91649  -8968792.00049  20512269.5394   20512277.0724
  17165556.594   -38567264.30349 -30047381.69849  17165560.6284   17165566.5614
  18208555.511    -7431597.55449  -5775116.08449  18208559.6124   18208565.3924
  20459803.520   -11428631.927 9  -8875351.519 9  20459810.083    20459818.333
  20906190.520   -25732494.814 9 -20023702.927 9  20906193.230    20906199.713
  19249051.353   -27659575.88249 -21532736.79149  19249055.0764   19249061.9984
  18522439.333   -38027566.59449 -29353903.89849  18522439.9954   18522445.4404
 96  2 17 20 27 59.9890000  0  9 29 27 16 19 18 12 28  2 31
  20955802.918     -219163.71349   -173018.59849  20955809.9874   20955815.9854
  17931428.071   -41832391.78949 -32307956.23549  17931431.7654   17931437.3044
  20500091.893   -14133505.68949  -9018623.79049  20500101.1494   20500106.6444
  17153852.546   -38628769.59849 -30095307.90249  17153856.2294   17153862.3024
  18212152.898    -7412699.48549  -5760390.33849  18212156.0114   18212161.8754
  20435215.249   -11557871.309 9  -8976057.488 9  20435215.998    20435224.303
  20908383.146   -25720974.199 9 -20014725.835 9  20908385.588    20908391.779
  19225131.879   -27785279.85949 -21630687.92849  19225134.8654   19225140.8794
  18514860.636   -38067378.30849 -29384926.01949  18514864.8584   18514869.9094
 96  2 17 20 28 29.9890000  0  9 29 27 16 19 18 12 28  2 31
  20964557.921     -173163.59549   -137174.46649  20964561.7674   20964569.6034
  17909307.595   -41948636.67149 -32398536.65949  17909311.1124   17909316.4384
  20488027.924   -14196949.25149  -9068060.34549  20488027.4704   20488033.6604
  17142193.225   -38690041.01149 -30143051.86149  17142196.7574   17142202.6834
  18215815.560    -7393454.24049  -5745394.06249  18215818.2394   18215824.4234
  20410641.859   -11686985.537 9  -9076665.918 9  20410647.137    20410655.626
  20910647.091   -25709076.562 9 -20005454.995 9  20910649.659    20910655.444
  19201256.333   -27910742.76349 -21728451.22249  19201259.4974   19201266.3864
  18507397.714   -38106610.69349 -29415496.69149  18507398.4974   18507404.1254
 96  2 17 20 28 59.9890000  0  9 29 27 16 19 18 12 28  2 31
  20973325.619     -127081.35749   -101266.32949  20973331.1464   20973338.3034
  17887216.242   -42064723.76549 -32488994.13049  17887220.4504   17887225.9324
  20476047.627   -14259886.73849  -9117102.53549  20476050.2254   20476057.4374
  17130575.587   -38751089.96549 -30190622.47549  17130579.5074   17130585.4694
  18219543.143    -7373862.45649  -5730127.75249  18219546.4034   18219552.4704
  20386098.232   -11815972.235 9  -9177174.966 9  20386101.307    20386110.168
  20912981.244   -25696801.616 9 -19995890.128 9  20912985.503    20912991.553
  19177431.296   -28035943.04149 -21826009.86549  19177435.0604   19177441.7764
  18500041.669   -38145258.78549 -29445612.08949  18500043.7604   18500049.7494
 96  2 17 20 29 29.9890000  0  9 29 27 16 19 18 12 28  2 31
  20982111.023      -80913.18949    -65291.23049  20982117.2954   20982124.5454
  17865149.712   -42180681.64649 -32579350.91549  17865154.2664   17865160.2114
  20464160.341   -14322341.26049  -9165768.40849  20464166.0534   20464173.8924
  17119004.296   -38811904.53849 -30238010.46149  17119006.9504   17119012.6304
  18223336.732    -7353924.20149  -5714591.47349  18223340.5464   18223346.3554
  20361574.542   -11944837.487 9  -9277589.378 9  20361580.035    20361587.473
  20915387.765   -25684157.332 9 -19986037.457 9  20915391.759    20915397.676
  19153653.476   -28160895.18049 -21923375.15649  19153657.2164   19153663.8254
  18492797.341   -38183317.01749 -29475267.86549  18492802.2644   18492808.0274
 96  2 17 20 29 59.9890000  0  9 29 27 16 19 18 12 28  2 31
  20990915.846      -34637.92149    -29232.69749  20990922.4504   20990929.7844
  17843110.722   -42296503.87049 -32669601.98849  17843114.1624   17843119.8614
  20452365.954   -14384324.06149  -9214066.70849  20452370.4504   20452377.5634
  17107478.764   -38872466.56149 -30285201.64949  17107482.3004   17107487.8244
  18227197.415    -7333634.20449  -5698781.10749  18227201.6614   18227207.5074
  20337073.198   -12073575.695 9  -9377904.802 9  20337080.421    20337089.533
  20917867.737   -25671140.040 9 -19975894.132 9  20917868.615    20917874.929
  19129926.580   -28285578.67449 -22020531.11349  19129930.6634   19129937.6934
  18485669.509   -38220780.46549 -29504460.17249  18485673.2754   18485678.6514
 96  2 17 20 30 29.9890000  0  9 29 27 16 19 18 12 28  2 31
  20999746.532       11741.96249      6907.38149  20999749.3564   20999755.6274
  17821093.393   -42412197.35849 -32759752.74949  17821098.3044   17821103.9734
  20440657.741   -14445838.34149  -9261999.91349  20440664.9874   20440673.0404
  17096003.336   -38932769.65049 -30332191.07149  17096007.3124   17096012.7884
  18231126.112    -7312989.98749  -5682694.73249  18231129.9954   18231136.4364
  20312604.502   -12202188.680 9  -9478122.654 9  20312606.625    20312614.608
  20920413.533   -25657753.881 9 -19965463.387 9  20920416.236    20920422.685
  19106249.436   -28410003.05949 -22117485.17049  19106253.5194   19106260.5134
  18478649.767   -38257649.51749 -29533189.31249  18478656.8244   18478662.4304
 96  2 17 20 30 59.9890000  0  9 29 27 16 19 18 12 28  2 31
  21008590.398       58217.83249     43122.25549  21008592.1514   21008599.8724
  17799103.353   -42527760.96049 -32849802.30549  17799107.4694   17799113.0724
  20429047.087   -14506884.41349  -9309568.29749  20429048.3224   20429056.3794
  17084575.651   -38992821.65349 -30378984.84349  17084579.6624   17084585.3984
  18235121.607    -7292001.45049  -5666340.05449  18235124.1224   18235130.1384
  20288150.141   -12330682.212 9  -9578247.423 9  20288155.201    20288163.370
  20923031.592   -25644006.578 9 -19954751.203 9  20923032.248    20923038.765
  19082614.724   -28534208.85949 -22214268.88849  19082618.2784   19082624.8254
  18471753.930   -38293927.32149 -29561457.73849  18471753.7014   18471759.0254
 96  2 17 20 31 29.9890000  0  9 29 27 16 19 18 12 28  2 31
  21017446.731      104781.10649     79405.22949  21017453.3114   21017462.2464
  17777139.869   -42643179.46049 -32939738.79049  17777143.9464   17777149.5504
  20417515.423   -14567450.07649  -9356762.33049  20417522.5434   20417529.6214
  17073193.971   -39052636.39149 -30425593.72949  17073197.1604   17073202.8744
  18239182.581    -7270659.26349  -5649709.80749  18239185.5584   18239191.2684
  20263722.628   -12459057.677 9  -9678280.225 9  20263725.936    20263734.915
  20925714.198   -25629901.228 9 -19943760.034 9  20925716.309    20925722.413
  19059020.121   -28658201.52049 -22310886.52449  19059022.9354   19059029.7284
  18464960.207   -38329618.53949 -29589269.07349  18464961.9434   18464967.2154
 96  2 17 20 31 59.9890000  0  9 29 27 16 19 18 12 28  2 31
  21026324.955      151413.22249    115741.85049  21026327.4884   21026335.0224
  17755204.999   -42758449.44749 -33029559.55249  17755208.6874   17755214.3434
  20406087.084   -14627521.66549  -9403571.38249  20406091.2584   20406099.3364
  17061851.054   -39112238.89149 -30472037.23849  17061855.3594   17061860.8654
  18243309.019    -7248972.16649  -5632810.79649  18243312.4084   18243318.2064
  20239309.798   -12587321.690 9  -9778226.166 9  20239318.242    20239327.071
  20928464.437   -25615446.728 9 -19932496.796 9  20928466.967    20928472.736
  19035464.169   -28781988.47549 -22407343.88349  19035467.3994   19035473.7424
  18458271.721   -38364743.08749 -29616638.87149  18458278.0814   18458283.7094
 96  2 17 20 32 29.9880000  0  9 29 27 16 19 18 12 28  2 31
  21035209.762      198102.35349    152122.90049  21035212.9104   21035221.0204
  17733298.310   -42873568.06349 -33119262.36249  17733302.1384   17733307.9114
  20394750.710   -14687093.33849  -9449990.84649  20394754.7684   20394763.6654
  17050546.828   -39171648.91049 -30518330.76249  17050549.9194   17050555.6884
  18247499.564    -7226944.21849  -5615646.18949  18247504.4924   18247510.2074
  20214926.827   -12715479.038 9  -9878089.007 9  20214931.527    20214937.271
  20931280.761   -25600654.702 9 -19920970.558 9  20931281.803    20931287.700
  19011945.625   -28905580.03449 -22503648.97549  19011948.5834   19011955.3084
  18451698.050   -38399310.20649 -29643574.28049  18451699.6254   18451705.6074
 96  2 17 20 32 59.9880000  0  9 29 27 16 19 18 12 28  2 31
  21044105.126      244851.86849    188550.99749  21044109.1064   21044117.2894
  17711419.657   -42988544.10349 -33208854.07849  17711423.1254   17711428.6804
  20383509.900   -14746179.78449  -9496032.25649  20383511.6184   20383520.2124
  17039274.599   -39230876.73349 -30564482.31949  17039279.1614   17039284.9734
  18251758.271    -7204572.43349  -5598213.66249  18251761.6344   18251767.4854
  20190556.111   -12843546.423 9  -9977881.743 9  20190561.329    20190569.829
  20934154.457   -25585534.412 9 -19909188.539 9  20934159.194    20934165.068
  18988462.720   -29028979.30249 -22599804.23649  18988466.5424   18988472.7344
  18445218.978   -38433341.71449 -29670092.36349  18445224.5634   18445230.1624
 96  2 17 20 33 29.9880000  0  9 29 27 16 19 18 12 28  2 31
  21053019.583      291696.42949    225053.15349  21053022.3744   21053030.5364
  17689573.355   -43103348.68649 -33298312.18549  17689576.4994   17689582.3064
  20372363.566   -14804737.47949  -9541661.61649  20372369.0694   20372376.2154
  17028049.953   -39289869.98949 -30610451.09349  17028053.0854   17028059.0074
  18256088.009    -7181820.40649  -5580484.83849  18256091.1214   18256096.7944
  20166209.674   -12971481.589 9 -10077571.441 9  20166214.583    20166222.927
  20937105.307   -25570050.385 9 -19897123.066 9  20937105.310    20937111.365
  18965029.557   -29152128.47449 -22695764.61149  18965032.0954   18965038.3214
  18438852.900   -38466813.47549 -29696174.24049  18438854.6384   18438860.2114
 96  2 17 20 33 59.9880000  0  9 29 27 16 19 18 12 28  2 31
  21061950.594      338648.54849    261639.12249  21061957.8054   21061964.8024
  17667757.457   -43217987.68349 -33387641.26749  17667761.4354   17667767.5034
  20361319.780   -14862771.53449  -9586882.97049  20361324.2524   20361331.8434
  17016871.443   -39348607.75249 -30656220.78549  17016875.5654   17016881.4024
  18260486.472    -7158701.92949  -5562470.46849  18260490.3124   18260496.3324
  20141890.746   -13099281.502 9 -10177155.769 9  20141894.965    20141904.144
  20940119.977   -25554201.587 9 -19884773.354 9  20940121.500    20940127.313
  18941640.522   -29275032.31849 -22791533.83149  18941644.0114   18941650.3494
  18432585.600   -38499727.39449 -29721821.47349  18432590.5034   18432597.2114
 96  2 17 20 34 29.9880000  0  9 29 27 16 19 18 12 28  2 31
  21070911.186      385722.08049    298319.72249  21070915.0524   21070923.6474
  17645975.072   -43332451.40049 -33476833.76449  17645979.5654   17645985.3794
  20350375.568   -14920287.26149  -9631700.41249  20350379.9324   20350387.2884
  17005746.223   -39407072.84949 -30701778.00849  17005750.1124   17005756.0884
  18264955.336    -7135212.01849  -5544166.66849  18264960.0384   18264966.2144
  20117599.324   -13226937.086 9 -10276627.644 9  20117603.529    20117612.256
  20943210.152   -25537981.240 9 -19872134.124 9  20943207.788    20943214.392
  18918303.247   -29397670.20449 -22887095.81049  18918306.4884   18918313.1884
  18426433.283   -38532065.96549 -29747020.34849  18426437.0134   18426443.1464
 96  2 17 20 34 59.9880000  0  9 29 27 16 19 18 12 28  2 31
  21079886.460      432909.76049    335089.24749  21079893.5384   21079902.9644
  17624227.931   -43446737.36449 -33565887.75349  17624231.6674   17624237.4804
  20339534.457   -14977283.77149  -9676113.30449  20339534.3994   20339542.3824
  16994675.204   -39465250.50249 -30747111.25049  16994679.2794   16994685.1984
  18269496.279    -7111354.88249  -5525576.72149  18269499.9514   18269506.2034
  20093336.346   -13354441.051 9 -10375981.347 9  20093340.035    20093349.107
  20946360.968   -25521384.139 9 -19859201.321 9  20946367.089    20946372.907
  18895015.399   -29520049.00149 -22982455.89849  18895018.9104   18895025.2354
  18420391.872   -38563818.12749 -29771762.32349  18420394.5984   18420400.6944
 96  2 17 20 35 29.9880000  0  9 29 27 16 19 18 12 28  2 31
  21088892.940      480197.88349    371937.04749  21088895.2404   21088901.4444
  17602514.392   -43560839.36349 -33654798.39349  17602518.7904   17602524.8154
  20328783.617   -15033763.82549  -9720123.73949  20328787.4684   20328793.2374
  16983658.540   -39523146.84349 -30792225.29249  16983661.9384   16983667.8264
  18274103.134    -7087147.25349  -5506713.66249  18274106.7304   18274113.0414
  20069101.975   -13481791.853 9 -10475215.702 9  20069104.849    20069113.846
  20949586.304   -25504410.853 9 -19845975.397 9  20949596.694    20949602.882
  18871776.948   -29642169.91849 -23077615.04049  18871780.2004   18871786.4104
  18414464.246   -38594957.26749 -29796026.59849  18414468.6894   18414475.0004
 96  2 17 20 35 59.9880000  0  9 29 27 16 19 18 12 28  2 31
  21097911.056      527601.23049    408874.61749  21097914.6514   21097921.7434
  17580843.043   -43674726.70149 -33743541.76249  17580846.8824   17580852.7164
  20318137.053   -15089715.86549  -9763722.74249  20318139.1864   20318145.0484
  16972698.868   -39580740.35649 -30837103.36349  16972702.3194   16972708.1454
  18278781.365    -7062563.96449  -5487557.89049  18278784.7974   18278790.7674
  20044900.412   -13608966.377 9 -10574312.706 9  20044906.015    20044913.583
  20952900.506   -25487040.32419 -19832439.92919  20952901.895    20952908.314
  18848590.425   -29764007.74049 -23172553.58949  18848594.8174   18848601.8924
  18408670.634   -38625424.97949 -29819767.70049  18408671.4464   18408677.9484
 96  2 17 20 36 29.9880000  0  9 29 27 16 19 18 12 28  2 31
  21106955.191      575120.31849    445902.39449  21106956.5154   21106964.8434
  17559218.192   -43788365.73149 -33832091.65349  17559221.8874   17559227.8794
  20307593.950   -15145114.69049  -9806890.65349  20307596.8604   20307604.4954
  16961800.740   -39638005.99249 -30881725.94049  16961804.7204   16961811.0134
  18283533.869    -7037586.63649  -5468095.06549  18283538.0304   18283544.0284
  20020738.809   -13735944.315 9 -10673256.502 9  20020742.559    20020751.167
  20956283.860   -25469254.18619 -19818580.62119  20956287.211    20956292.640
  18825465.989   -29885534.12649 -23267249.46249  18825469.2864   18825476.4144
  18403002.349   -38655196.16349 -29842966.03749  18403006.7044   18403011.9004
 96  2 17 20 36 59.9880000  0  9 29 27 16 19 18 12 28  2 31
  21116016.911      622749.48449    483015.94049  21116020.9344   21116028.5634
  17537642.003   -43901748.46949 -33920441.83449  17537646.0204   17537651.6404
  20297163.452   -15199940.09049  -9849611.76849  20297164.5704   20297171.3694
  16950966.510   -39694940.68649 -30926090.65249  16950970.8044   16950976.5184
  18288362.891    -7012207.43049  -5448319.08849  18288367.3204   18288373.2974
  19996614.960   -13862718.406 9 -10772041.474 9  19996618.477    19996626.653
  20959750.491   -25451047.60919 -19804393.70919  20959751.469    20959756.721
  18802400.449   -30006742.47149 -23361697.51649  18802403.6994   18802411.0924
  18397470.700   -38684271.40849 -29865622.09049  18397473.5984   18397479.5694
 96  2 17 20 37 29.9880000  0  9 29 27 16 19 18 12 28  2 31
  21125106.523      670505.04749    520227.96949  21125108.6844   21125116.3484
  17516115.775   -44014866.99549 -34008586.12749  17516120.1094   17516126.0514
  20286838.927   -15254176.24749  -9891873.72149  20286843.5474   20286851.2444
  16940196.591   -39751538.81149 -30970193.09249  16940200.5254   16940206.3644
  18293270.798    -6986416.74949  -5428222.48249  18293275.0384   18293281.4524
  19972529.708   -13989282.169 9 -10870662.540 9  19972534.392    19972542.648
  20963293.279   -25432415.90719 -19789875.50119  20963295.732    20963302.657
  18779399.789   -30127606.78649 -23455877.48849  18779404.6944   18779411.1244
  18392065.798   -38712661.56449 -29887744.29249  18392070.1174   18392076.7474
 96  2 17 20 37 59.9880000  0  9 29 27 16 19 18 12 28  2 31
  21134218.299      718394.14949    557544.05249  21134220.9504   21134228.1244
  17494639.011   -44127734.45549 -34096534.79549  17494642.4844   17494648.1354
  20276629.563   -15307829.43449  -9933681.40249  20276631.9214   20276641.5784
  16929487.256   -39807813.91949 -31014043.83449  16929491.9264   16929497.7294
  18298259.032    -6960208.82049  -5407800.75149  18298262.5684   18298268.2564
  19948482.315   -14115644.667 9 -10969126.769 9  19948487.128    19948496.019
  20966916.439   -25413370.45319 -19775034.88819  20966920.897    20966926.864
  18756464.899   -30248136.54649 -23549796.77249  18756468.2604   18756474.9474
  18386788.303   -38740413.43649 -29909369.14149  18386789.3594   18386796.4244
